<?xml version="1.0" encoding="UTF-8" standalone="no" ?>
<gpx xmlns="http://www.topografix.com/GPX/1/1" xmlns:xsi="http://www.w3.org/2001/XMLSchema-instance" xsi:schemaLocation="http://www.topografix.com/GPX/1/1 http://www.topografix.com/GPX/1/1/gpx.xsd" version="1.1" creator="VisuGPX - https://www.visugpx.com">
  <metadata>
    <name>col de la forclaz tour du lac</name>
    <desc><![CDATA[une sortie classique pour les annecyens]]></desc>
  </metadata>
  <trk>
    <name><![CDATA[col de la forclazs tour du lac]]></name>
    <trkseg>
      <trkpt lat="45.93699" lon="6.12242">
        <ele>477</ele>
        <time>2014-05-14T15:28:30.000Z</time>
      </trkpt>
      <trkpt lat="45.93657" lon="6.12283">
        <ele>477.39999389648</ele>
        <time>2014-05-14T15:28:37.000Z</time>
      </trkpt>
      <trkpt lat="45.93636" lon="6.12282">
        <ele>476.60000610352</ele>
        <time>2014-05-14T15:28:41.000Z</time>
      </trkpt>
      <trkpt lat="45.93633" lon="6.12264">
        <ele>475.79998779297</ele>
        <time>2014-05-14T15:28:43.000Z</time>
      </trkpt>
      <trkpt lat="45.93629" lon="6.12231">
        <ele>474.20001220703</ele>
        <time>2014-05-14T15:28:47.000Z</time>
      </trkpt>
      <trkpt lat="45.93619" lon="6.12225">
        <ele>474</ele>
        <time>2014-05-14T15:28:49.000Z</time>
      </trkpt>
      <trkpt lat="45.93605" lon="6.12241">
        <ele>474.60000610352</ele>
        <time>2014-05-14T15:28:52.000Z</time>
      </trkpt>
      <trkpt lat="45.93576" lon="6.123">
        <ele>475.60000610352</ele>
        <time>2014-05-14T15:28:59.000Z</time>
      </trkpt>
      <trkpt lat="45.93559" lon="6.12322">
        <ele>475.60000610352</ele>
        <time>2014-05-14T15:29:02.000Z</time>
      </trkpt>
      <trkpt lat="45.93534" lon="6.12338">
        <ele>475</ele>
        <time>2014-05-14T15:29:06.000Z</time>
      </trkpt>
      <trkpt lat="45.93528" lon="6.12339">
        <ele>474.60000610352</ele>
        <time>2014-05-14T15:29:07.000Z</time>
      </trkpt>
      <trkpt lat="45.93517" lon="6.12343">
        <ele>474.20001220703</ele>
        <time>2014-05-14T15:29:09.000Z</time>
      </trkpt>
      <trkpt lat="45.93515" lon="6.1237">
        <ele>473.79998779297</ele>
        <time>2014-05-14T15:29:13.000Z</time>
      </trkpt>
      <trkpt lat="45.93516" lon="6.12398">
        <ele>473.20001220703</ele>
        <time>2014-05-14T15:29:16.000Z</time>
      </trkpt>
      <trkpt lat="45.93511" lon="6.12483">
        <ele>474.79998779297</ele>
        <time>2014-05-14T15:29:24.000Z</time>
      </trkpt>
      <trkpt lat="45.93508" lon="6.12566">
        <ele>472</ele>
        <time>2014-05-14T15:29:31.000Z</time>
      </trkpt>
      <trkpt lat="45.93505" lon="6.12602">
        <ele>471.60000610352</ele>
        <time>2014-05-14T15:29:34.000Z</time>
      </trkpt>
      <trkpt lat="45.93486" lon="6.12656">
        <ele>471.60000610352</ele>
        <time>2014-05-14T15:29:39.000Z</time>
      </trkpt>
      <trkpt lat="45.93469" lon="6.12684">
        <ele>471.20001220703</ele>
        <time>2014-05-14T15:29:42.000Z</time>
      </trkpt>
      <trkpt lat="45.93439" lon="6.12716">
        <ele>468.20001220703</ele>
        <time>2014-05-14T15:29:47.000Z</time>
      </trkpt>
      <trkpt lat="45.93415" lon="6.12739">
        <ele>465.60000610352</ele>
        <time>2014-05-14T15:29:52.000Z</time>
      </trkpt>
      <trkpt lat="45.93386" lon="6.12772">
        <ele>463</ele>
        <time>2014-05-14T15:29:58.000Z</time>
      </trkpt>
      <trkpt lat="45.93361" lon="6.128">
        <ele>461.20001220703</ele>
        <time>2014-05-14T15:30:03.000Z</time>
      </trkpt>
      <trkpt lat="45.93342" lon="6.12821">
        <ele>460</ele>
        <time>2014-05-14T15:30:08.000Z</time>
      </trkpt>
      <trkpt lat="45.93337" lon="6.12826">
        <ele>459.60000610352</ele>
        <time>2014-05-14T15:30:11.000Z</time>
      </trkpt>
      <trkpt lat="45.93333" lon="6.12829">
        <ele>459.20001220703</ele>
        <time>2014-05-14T15:30:17.000Z</time>
      </trkpt>
      <trkpt lat="45.93329" lon="6.12833">
        <ele>459</ele>
        <time>2014-05-14T15:30:19.000Z</time>
      </trkpt>
      <trkpt lat="45.9333" lon="6.12853">
        <ele>459.39999389648</ele>
        <time>2014-05-14T15:30:23.000Z</time>
      </trkpt>
      <trkpt lat="45.93331" lon="6.12859">
        <ele>459.60000610352</ele>
        <time>2014-05-14T15:30:24.000Z</time>
      </trkpt>
      <trkpt lat="45.93343" lon="6.12907">
        <ele>461.39999389648</ele>
        <time>2014-05-14T15:30:31.000Z</time>
      </trkpt>
      <trkpt lat="45.93347" lon="6.12931">
        <ele>461</ele>
        <time>2014-05-14T15:30:34.000Z</time>
      </trkpt>
      <trkpt lat="45.9335" lon="6.12947">
        <ele>460.79998779297</ele>
        <time>2014-05-14T15:30:36.000Z</time>
      </trkpt>
      <trkpt lat="45.93364" lon="6.12983">
        <ele>461.39999389648</ele>
        <time>2014-05-14T15:30:41.000Z</time>
      </trkpt>
      <trkpt lat="45.93372" lon="6.13006">
        <ele>462</ele>
        <time>2014-05-14T15:30:44.000Z</time>
      </trkpt>
      <trkpt lat="45.9338" lon="6.13057">
        <ele>462</ele>
        <time>2014-05-14T15:30:50.000Z</time>
      </trkpt>
      <trkpt lat="45.93393" lon="6.13106">
        <ele>462.60000610352</ele>
        <time>2014-05-14T15:30:56.000Z</time>
      </trkpt>
      <trkpt lat="45.93415" lon="6.13141">
        <ele>462.79998779297</ele>
        <time>2014-05-14T15:31:01.000Z</time>
      </trkpt>
      <trkpt lat="45.93456" lon="6.13186">
        <ele>461.79998779297</ele>
        <time>2014-05-14T15:31:08.000Z</time>
      </trkpt>
      <trkpt lat="45.93486" lon="6.13217">
        <ele>463.79998779297</ele>
        <time>2014-05-14T15:31:13.000Z</time>
      </trkpt>
      <trkpt lat="45.93524" lon="6.13262">
        <ele>471</ele>
        <time>2014-05-14T15:31:19.000Z</time>
      </trkpt>
      <trkpt lat="45.9354" lon="6.13306">
        <ele>473</ele>
        <time>2014-05-14T15:31:23.000Z</time>
      </trkpt>
      <trkpt lat="45.93543" lon="6.13315">
        <ele>473</ele>
        <time>2014-05-14T15:31:24.000Z</time>
      </trkpt>
      <trkpt lat="45.9353" lon="6.13347">
        <ele>467</ele>
        <time>2014-05-14T15:31:28.000Z</time>
      </trkpt>
      <trkpt lat="45.93527" lon="6.13368">
        <ele>464.79998779297</ele>
        <time>2014-05-14T15:31:31.000Z</time>
      </trkpt>
      <trkpt lat="45.93536" lon="6.13377">
        <ele>466.20001220703</ele>
        <time>2014-05-14T15:31:33.000Z</time>
      </trkpt>
      <trkpt lat="45.93546" lon="6.13384">
        <ele>467.39999389648</ele>
        <time>2014-05-14T15:31:35.000Z</time>
      </trkpt>
      <trkpt lat="45.93577" lon="6.13424">
        <ele>472.20001220703</ele>
        <time>2014-05-14T15:31:43.000Z</time>
      </trkpt>
      <trkpt lat="45.936" lon="6.13468">
        <ele>474.60000610352</ele>
        <time>2014-05-14T15:31:50.000Z</time>
      </trkpt>
      <trkpt lat="45.93623" lon="6.13528">
        <ele>473.39999389648</ele>
        <time>2014-05-14T15:31:58.000Z</time>
      </trkpt>
      <trkpt lat="45.93646" lon="6.1358">
        <ele>473.79998779297</ele>
        <time>2014-05-14T15:32:05.000Z</time>
      </trkpt>
      <trkpt lat="45.93674" lon="6.1365">
        <ele>474</ele>
        <time>2014-05-14T15:32:15.000Z</time>
      </trkpt>
      <trkpt lat="45.93692" lon="6.137">
        <ele>472.79998779297</ele>
        <time>2014-05-14T15:32:22.000Z</time>
      </trkpt>
      <trkpt lat="45.93707" lon="6.13753">
        <ele>474</ele>
        <time>2014-05-14T15:32:28.000Z</time>
      </trkpt>
      <trkpt lat="45.937" lon="6.13786">
        <ele>473.60000610352</ele>
        <time>2014-05-14T15:32:32.000Z</time>
      </trkpt>
      <trkpt lat="45.93681" lon="6.13789">
        <ele>472.60000610352</ele>
        <time>2014-05-14T15:32:35.000Z</time>
      </trkpt>
      <trkpt lat="45.93658" lon="6.13785">
        <ele>471.60000610352</ele>
        <time>2014-05-14T15:32:40.000Z</time>
      </trkpt>
      <trkpt lat="45.93646" lon="6.13794">
        <ele>471</ele>
        <time>2014-05-14T15:32:44.000Z</time>
      </trkpt>
      <trkpt lat="45.93646" lon="6.13806">
        <ele>471.20001220703</ele>
        <time>2014-05-14T15:32:46.000Z</time>
      </trkpt>
      <trkpt lat="45.93647" lon="6.13826">
        <ele>471.39999389648</ele>
        <time>2014-05-14T15:32:49.000Z</time>
      </trkpt>
      <trkpt lat="45.93643" lon="6.13859">
        <ele>470.60000610352</ele>
        <time>2014-05-14T15:32:54.000Z</time>
      </trkpt>
      <trkpt lat="45.93643" lon="6.13866">
        <ele>470.60000610352</ele>
        <time>2014-05-14T15:32:55.000Z</time>
      </trkpt>
      <trkpt lat="45.93635" lon="6.13925">
        <ele>469.79998779297</ele>
        <time>2014-05-14T15:33:02.000Z</time>
      </trkpt>
      <trkpt lat="45.93628" lon="6.14012">
        <ele>470</ele>
        <time>2014-05-14T15:33:12.000Z</time>
      </trkpt>
      <trkpt lat="45.93628" lon="6.14071">
        <ele>470.60000610352</ele>
        <time>2014-05-14T15:33:19.000Z</time>
      </trkpt>
      <trkpt lat="45.93634" lon="6.14121">
        <ele>471.39999389648</ele>
        <time>2014-05-14T15:33:25.000Z</time>
      </trkpt>
      <trkpt lat="45.93648" lon="6.14184">
        <ele>472.60000610352</ele>
        <time>2014-05-14T15:33:33.000Z</time>
      </trkpt>
      <trkpt lat="45.93665" lon="6.14248">
        <ele>473.60000610352</ele>
        <time>2014-05-14T15:33:41.000Z</time>
      </trkpt>
      <trkpt lat="45.93686" lon="6.1432">
        <ele>474</ele>
        <time>2014-05-14T15:33:50.000Z</time>
      </trkpt>
      <trkpt lat="45.93705" lon="6.14394">
        <ele>472.20001220703</ele>
        <time>2014-05-14T15:33:59.000Z</time>
      </trkpt>
      <trkpt lat="45.93721" lon="6.14437">
        <ele>469</ele>
        <time>2014-05-14T15:34:04.000Z</time>
      </trkpt>
      <trkpt lat="45.93723" lon="6.14472">
        <ele>465.60000610352</ele>
        <time>2014-05-14T15:34:07.000Z</time>
      </trkpt>
      <trkpt lat="45.93734" lon="6.14503">
        <ele>464</ele>
        <time>2014-05-14T15:34:11.000Z</time>
      </trkpt>
      <trkpt lat="45.93745" lon="6.14515">
        <ele>464.20001220703</ele>
        <time>2014-05-14T15:34:14.000Z</time>
      </trkpt>
      <trkpt lat="45.93757" lon="6.14534">
        <ele>464</ele>
        <time>2014-05-14T15:34:17.000Z</time>
      </trkpt>
      <trkpt lat="45.9377" lon="6.14567">
        <ele>462.79998779297</ele>
        <time>2014-05-14T15:34:21.000Z</time>
      </trkpt>
      <trkpt lat="45.93771" lon="6.14573">
        <ele>462.79998779297</ele>
        <time>2014-05-14T15:34:22.000Z</time>
      </trkpt>
      <trkpt lat="45.93774" lon="6.14587">
        <ele>462.60000610352</ele>
        <time>2014-05-14T15:34:25.000Z</time>
      </trkpt>
      <trkpt lat="45.93776" lon="6.14594">
        <ele>462.60000610352</ele>
        <time>2014-05-14T15:34:29.000Z</time>
      </trkpt>
      <trkpt lat="45.9377" lon="6.14575">
        <ele>462.60000610352</ele>
        <time>2014-05-14T15:34:35.000Z</time>
      </trkpt>
      <trkpt lat="45.9376" lon="6.14544">
        <ele>463.20001220703</ele>
        <time>2014-05-14T15:34:40.000Z</time>
      </trkpt>
      <trkpt lat="45.93747" lon="6.14521">
        <ele>463.79998779297</ele>
        <time>2014-05-14T15:34:45.000Z</time>
      </trkpt>
      <trkpt lat="45.93747" lon="6.14517">
        <ele>464.20001220703</ele>
        <time>2014-05-14T15:34:46.000Z</time>
      </trkpt>
      <trkpt lat="45.93746" lon="6.14507">
        <ele>465</ele>
        <time>2014-05-14T15:34:49.000Z</time>
      </trkpt>
      <trkpt lat="45.93767" lon="6.14513">
        <ele>467.79998779297</ele>
        <time>2014-05-14T15:34:54.000Z</time>
      </trkpt>
      <trkpt lat="45.93777" lon="6.14524">
        <ele>468</ele>
        <time>2014-05-14T15:34:58.000Z</time>
      </trkpt>
      <trkpt lat="45.93805" lon="6.14526">
        <ele>473.39999389648</ele>
        <time>2014-05-14T15:35:02.000Z</time>
      </trkpt>
      <trkpt lat="45.93816" lon="6.14549">
        <ele>471.20001220703</ele>
        <time>2014-05-14T15:35:05.000Z</time>
      </trkpt>
      <trkpt lat="45.93818" lon="6.14558">
        <ele>470</ele>
        <time>2014-05-14T15:35:06.000Z</time>
      </trkpt>
      <trkpt lat="45.93821" lon="6.14588">
        <ele>469</ele>
        <time>2014-05-14T15:35:09.000Z</time>
      </trkpt>
      <trkpt lat="45.93825" lon="6.14607">
        <ele>468.79998779297</ele>
        <time>2014-05-14T15:35:11.000Z</time>
      </trkpt>
      <trkpt lat="45.93826" lon="6.14629">
        <ele>468.20001220703</ele>
        <time>2014-05-14T15:35:15.000Z</time>
      </trkpt>
      <trkpt lat="45.93819" lon="6.14669">
        <ele>468</ele>
        <time>2014-05-14T15:35:21.000Z</time>
      </trkpt>
      <trkpt lat="45.93811" lon="6.14717">
        <ele>469</ele>
        <time>2014-05-14T15:35:28.000Z</time>
      </trkpt>
      <trkpt lat="45.93806" lon="6.14766">
        <ele>468</ele>
        <time>2014-05-14T15:35:36.000Z</time>
      </trkpt>
      <trkpt lat="45.93797" lon="6.14813">
        <ele>465.79998779297</ele>
        <time>2014-05-14T15:35:43.000Z</time>
      </trkpt>
      <trkpt lat="45.93786" lon="6.14887">
        <ele>462</ele>
        <time>2014-05-14T15:35:52.000Z</time>
      </trkpt>
      <trkpt lat="45.93774" lon="6.1497">
        <ele>460</ele>
        <time>2014-05-14T15:36:02.000Z</time>
      </trkpt>
      <trkpt lat="45.93763" lon="6.15054">
        <ele>459.79998779297</ele>
        <time>2014-05-14T15:36:12.000Z</time>
      </trkpt>
      <trkpt lat="45.93761" lon="6.15111">
        <ele>462.39999389648</ele>
        <time>2014-05-14T15:36:19.000Z</time>
      </trkpt>
      <trkpt lat="45.93752" lon="6.15184">
        <ele>466.79998779297</ele>
        <time>2014-05-14T15:36:28.000Z</time>
      </trkpt>
      <trkpt lat="45.93747" lon="6.15267">
        <ele>471</ele>
        <time>2014-05-14T15:36:38.000Z</time>
      </trkpt>
      <trkpt lat="45.93747" lon="6.15283">
        <ele>471.60000610352</ele>
        <time>2014-05-14T15:36:40.000Z</time>
      </trkpt>
      <trkpt lat="45.93753" lon="6.1531">
        <ele>472.60000610352</ele>
        <time>2014-05-14T15:36:45.000Z</time>
      </trkpt>
      <trkpt lat="45.93754" lon="6.15313">
        <ele>472.79998779297</ele>
        <time>2014-05-14T15:36:46.000Z</time>
      </trkpt>
      <trkpt lat="45.93761" lon="6.15324">
        <ele>472.79998779297</ele>
        <time>2014-05-14T15:36:49.000Z</time>
      </trkpt>
      <trkpt lat="45.9379" lon="6.15349">
        <ele>473.60000610352</ele>
        <time>2014-05-14T15:36:57.000Z</time>
      </trkpt>
      <trkpt lat="45.93802" lon="6.15373">
        <ele>473.79998779297</ele>
        <time>2014-05-14T15:37:02.000Z</time>
      </trkpt>
      <trkpt lat="45.93803" lon="6.15385">
        <ele>473.79998779297</ele>
        <time>2014-05-14T15:37:04.000Z</time>
      </trkpt>
      <trkpt lat="45.93794" lon="6.15419">
        <ele>472.79998779297</ele>
        <time>2014-05-14T15:37:10.000Z</time>
      </trkpt>
      <trkpt lat="45.93785" lon="6.15439">
        <ele>471.79998779297</ele>
        <time>2014-05-14T15:37:16.000Z</time>
      </trkpt>
      <trkpt lat="45.93784" lon="6.15441">
        <ele>471.79998779297</ele>
        <time>2014-05-14T15:37:17.000Z</time>
      </trkpt>
      <trkpt lat="45.93769" lon="6.15455">
        <ele>471.20001220703</ele>
        <time>2014-05-14T15:37:22.000Z</time>
      </trkpt>
      <trkpt lat="45.93762" lon="6.15477">
        <ele>471</ele>
        <time>2014-05-14T15:37:25.000Z</time>
      </trkpt>
      <trkpt lat="45.93762" lon="6.15486">
        <ele>471</ele>
        <time>2014-05-14T15:37:26.000Z</time>
      </trkpt>
      <trkpt lat="45.93761" lon="6.15563">
        <ele>472.79998779297</ele>
        <time>2014-05-14T15:37:34.000Z</time>
      </trkpt>
      <trkpt lat="45.93764" lon="6.15606">
        <ele>473.79998779297</ele>
        <time>2014-05-14T15:37:40.000Z</time>
      </trkpt>
      <trkpt lat="45.93768" lon="6.15637">
        <ele>475.39999389648</ele>
        <time>2014-05-14T15:37:46.000Z</time>
      </trkpt>
      <trkpt lat="45.9377" lon="6.15645">
        <ele>475.79998779297</ele>
        <time>2014-05-14T15:37:51.000Z</time>
      </trkpt>
      <trkpt lat="45.93772" lon="6.15664">
        <ele>476.20001220703</ele>
        <time>2014-05-14T15:37:55.000Z</time>
      </trkpt>
      <trkpt lat="45.93779" lon="6.15703">
        <ele>477.60000610352</ele>
        <time>2014-05-14T15:38:02.000Z</time>
      </trkpt>
      <trkpt lat="45.93786" lon="6.1574">
        <ele>480.79998779297</ele>
        <time>2014-05-14T15:38:09.000Z</time>
      </trkpt>
      <trkpt lat="45.93793" lon="6.15777">
        <ele>481.60000610352</ele>
        <time>2014-05-14T15:38:16.000Z</time>
      </trkpt>
      <trkpt lat="45.93801" lon="6.15821">
        <ele>483</ele>
        <time>2014-05-14T15:38:25.000Z</time>
      </trkpt>
      <trkpt lat="45.93805" lon="6.15857">
        <ele>484.39999389648</ele>
        <time>2014-05-14T15:38:32.000Z</time>
      </trkpt>
      <trkpt lat="45.93808" lon="6.15894">
        <ele>485.79998779297</ele>
        <time>2014-05-14T15:38:39.000Z</time>
      </trkpt>
      <trkpt lat="45.9381" lon="6.15942">
        <ele>489.39999389648</ele>
        <time>2014-05-14T15:38:48.000Z</time>
      </trkpt>
      <trkpt lat="45.93809" lon="6.15984">
        <ele>493.39999389648</ele>
        <time>2014-05-14T15:38:56.000Z</time>
      </trkpt>
      <trkpt lat="45.93807" lon="6.1602">
        <ele>498.60000610352</ele>
        <time>2014-05-14T15:39:03.000Z</time>
      </trkpt>
      <trkpt lat="45.93803" lon="6.16062">
        <ele>504.60000610352</ele>
        <time>2014-05-14T15:39:11.000Z</time>
      </trkpt>
      <trkpt lat="45.93795" lon="6.16102">
        <ele>509.39999389648</ele>
        <time>2014-05-14T15:39:19.000Z</time>
      </trkpt>
      <trkpt lat="45.93787" lon="6.16141">
        <ele>513.20001220703</ele>
        <time>2014-05-14T15:39:27.000Z</time>
      </trkpt>
      <trkpt lat="45.93775" lon="6.16184">
        <ele>517.20001220703</ele>
        <time>2014-05-14T15:39:36.000Z</time>
      </trkpt>
      <trkpt lat="45.93771" lon="6.16197">
        <ele>518.20001220703</ele>
        <time>2014-05-14T15:39:39.000Z</time>
      </trkpt>
      <trkpt lat="45.93776" lon="6.16201">
        <ele>518.59997558594</ele>
        <time>2014-05-14T15:39:43.000Z</time>
      </trkpt>
      <trkpt lat="45.93779" lon="6.16197">
        <ele>518.40002441406</ele>
        <time>2014-05-14T15:39:44.000Z</time>
      </trkpt>
      <trkpt lat="45.93799" lon="6.16157">
        <ele>514.20001220703</ele>
        <time>2014-05-14T15:39:53.000Z</time>
      </trkpt>
      <trkpt lat="45.93811" lon="6.16128">
        <ele>510.20001220703</ele>
        <time>2014-05-14T15:39:59.000Z</time>
      </trkpt>
      <trkpt lat="45.93814" lon="6.16124">
        <ele>509</ele>
        <time>2014-05-14T15:40:00.000Z</time>
      </trkpt>
      <trkpt lat="45.93826" lon="6.16124">
        <ele>505.60000610352</ele>
        <time>2014-05-14T15:40:04.000Z</time>
      </trkpt>
      <trkpt lat="45.93828" lon="6.16138">
        <ele>506.79998779297</ele>
        <time>2014-05-14T15:40:07.000Z</time>
      </trkpt>
      <trkpt lat="45.93821" lon="6.16149">
        <ele>509.20001220703</ele>
        <time>2014-05-14T15:40:10.000Z</time>
      </trkpt>
      <trkpt lat="45.93809" lon="6.16175">
        <ele>515.40002441406</ele>
        <time>2014-05-14T15:40:16.000Z</time>
      </trkpt>
      <trkpt lat="45.93798" lon="6.16203">
        <ele>518.79998779297</ele>
        <time>2014-05-14T15:40:22.000Z</time>
      </trkpt>
      <trkpt lat="45.93784" lon="6.16234">
        <ele>519.79998779297</ele>
        <time>2014-05-14T15:40:29.000Z</time>
      </trkpt>
      <trkpt lat="45.93763" lon="6.16278">
        <ele>519.59997558594</ele>
        <time>2014-05-14T15:40:39.000Z</time>
      </trkpt>
      <trkpt lat="45.93744" lon="6.16319">
        <ele>519.20001220703</ele>
        <time>2014-05-14T15:40:48.000Z</time>
      </trkpt>
      <trkpt lat="45.9372" lon="6.16364">
        <ele>516.40002441406</ele>
        <time>2014-05-14T15:40:58.000Z</time>
      </trkpt>
      <trkpt lat="45.93699" lon="6.16403">
        <ele>515</ele>
        <time>2014-05-14T15:41:07.000Z</time>
      </trkpt>
      <trkpt lat="45.93682" lon="6.16433">
        <ele>509.79998779297</ele>
        <time>2014-05-14T15:41:14.000Z</time>
      </trkpt>
      <trkpt lat="45.93667" lon="6.16458">
        <ele>517.79998779297</ele>
        <time>2014-05-14T15:41:20.000Z</time>
      </trkpt>
      <trkpt lat="45.93648" lon="6.16494">
        <ele>526.59997558594</ele>
        <time>2014-05-14T15:41:28.000Z</time>
      </trkpt>
      <trkpt lat="45.9363" lon="6.16532">
        <ele>529.40002441406</ele>
        <time>2014-05-14T15:41:36.000Z</time>
      </trkpt>
      <trkpt lat="45.93609" lon="6.16571">
        <ele>530.20001220703</ele>
        <time>2014-05-14T15:41:44.000Z</time>
      </trkpt>
      <trkpt lat="45.93604" lon="6.16582">
        <ele>529.79998779297</ele>
        <time>2014-05-14T15:41:46.000Z</time>
      </trkpt>
      <trkpt lat="45.93591" lon="6.16637">
        <ele>532.40002441406</ele>
        <time>2014-05-14T15:41:55.000Z</time>
      </trkpt>
      <trkpt lat="45.93585" lon="6.16695">
        <ele>537.79998779297</ele>
        <time>2014-05-14T15:42:05.000Z</time>
      </trkpt>
      <trkpt lat="45.93585" lon="6.16722">
        <ele>539.20001220703</ele>
        <time>2014-05-14T15:42:10.000Z</time>
      </trkpt>
      <trkpt lat="45.93585" lon="6.16778">
        <ele>542.79998779297</ele>
        <time>2014-05-14T15:42:21.000Z</time>
      </trkpt>
      <trkpt lat="45.93584" lon="6.16839">
        <ele>547.40002441406</ele>
        <time>2014-05-14T15:42:33.000Z</time>
      </trkpt>
      <trkpt lat="45.93579" lon="6.169">
        <ele>552.40002441406</ele>
        <time>2014-05-14T15:42:45.000Z</time>
      </trkpt>
      <trkpt lat="45.93568" lon="6.16953">
        <ele>558.79998779297</ele>
        <time>2014-05-14T15:42:55.000Z</time>
      </trkpt>
      <trkpt lat="45.93553" lon="6.16999">
        <ele>563.20001220703</ele>
        <time>2014-05-14T15:43:04.000Z</time>
      </trkpt>
      <trkpt lat="45.93532" lon="6.1704">
        <ele>565.20001220703</ele>
        <time>2014-05-14T15:43:12.000Z</time>
      </trkpt>
      <trkpt lat="45.93505" lon="6.17084">
        <ele>559.79998779297</ele>
        <time>2014-05-14T15:43:21.000Z</time>
      </trkpt>
      <trkpt lat="45.93478" lon="6.17134">
        <ele>560.59997558594</ele>
        <time>2014-05-14T15:43:31.000Z</time>
      </trkpt>
      <trkpt lat="45.93461" lon="6.1718">
        <ele>562.40002441406</ele>
        <time>2014-05-14T15:43:39.000Z</time>
      </trkpt>
      <trkpt lat="45.93457" lon="6.17197">
        <ele>563.20001220703</ele>
        <time>2014-05-14T15:43:42.000Z</time>
      </trkpt>
      <trkpt lat="45.93451" lon="6.17213">
        <ele>563.40002441406</ele>
        <time>2014-05-14T15:43:45.000Z</time>
      </trkpt>
      <trkpt lat="45.93442" lon="6.17227">
        <ele>563.20001220703</ele>
        <time>2014-05-14T15:43:48.000Z</time>
      </trkpt>
      <trkpt lat="45.93419" lon="6.17238">
        <ele>563</ele>
        <time>2014-05-14T15:43:54.000Z</time>
      </trkpt>
      <trkpt lat="45.93399" lon="6.17228">
        <ele>562.20001220703</ele>
        <time>2014-05-14T15:43:59.000Z</time>
      </trkpt>
      <trkpt lat="45.93395" lon="6.17224">
        <ele>562</ele>
        <time>2014-05-14T15:44:00.000Z</time>
      </trkpt>
      <trkpt lat="45.93369" lon="6.17188">
        <ele>561.20001220703</ele>
        <time>2014-05-14T15:44:06.000Z</time>
      </trkpt>
      <trkpt lat="45.93364" lon="6.17182">
        <ele>561</ele>
        <time>2014-05-14T15:44:07.000Z</time>
      </trkpt>
      <trkpt lat="45.93338" lon="6.17168">
        <ele>560</ele>
        <time>2014-05-14T15:44:11.000Z</time>
      </trkpt>
      <trkpt lat="45.93257" lon="6.17156">
        <ele>555.79998779297</ele>
        <time>2014-05-14T15:44:22.000Z</time>
      </trkpt>
      <trkpt lat="45.93201" lon="6.17157">
        <ele>553.79998779297</ele>
        <time>2014-05-14T15:44:30.000Z</time>
      </trkpt>
      <trkpt lat="45.93154" lon="6.17166">
        <ele>554.40002441406</ele>
        <time>2014-05-14T15:44:37.000Z</time>
      </trkpt>
      <trkpt lat="45.93112" lon="6.17187">
        <ele>557.59997558594</ele>
        <time>2014-05-14T15:44:44.000Z</time>
      </trkpt>
      <trkpt lat="45.93071" lon="6.17219">
        <ele>563</ele>
        <time>2014-05-14T15:44:52.000Z</time>
      </trkpt>
      <trkpt lat="45.93027" lon="6.1726">
        <ele>563.40002441406</ele>
        <time>2014-05-14T15:45:02.000Z</time>
      </trkpt>
      <trkpt lat="45.92998" lon="6.1729">
        <ele>565</ele>
        <time>2014-05-14T15:45:10.000Z</time>
      </trkpt>
      <trkpt lat="45.92975" lon="6.17313">
        <ele>567.59997558594</ele>
        <time>2014-05-14T15:45:17.000Z</time>
      </trkpt>
      <trkpt lat="45.92944" lon="6.17338">
        <ele>562.59997558594</ele>
        <time>2014-05-14T15:45:26.000Z</time>
      </trkpt>
      <trkpt lat="45.9292" lon="6.17356">
        <ele>562</ele>
        <time>2014-05-14T15:45:33.000Z</time>
      </trkpt>
      <trkpt lat="45.92903" lon="6.17366">
        <ele>565.40002441406</ele>
        <time>2014-05-14T15:45:38.000Z</time>
      </trkpt>
      <trkpt lat="45.92894" lon="6.17357">
        <ele>568</ele>
        <time>2014-05-14T15:45:42.000Z</time>
      </trkpt>
      <trkpt lat="45.92886" lon="6.17324">
        <ele>570.59997558594</ele>
        <time>2014-05-14T15:45:47.000Z</time>
      </trkpt>
      <trkpt lat="45.92876" lon="6.17316">
        <ele>571.59997558594</ele>
        <time>2014-05-14T15:45:50.000Z</time>
      </trkpt>
      <trkpt lat="45.92869" lon="6.17321">
        <ele>571.79998779297</ele>
        <time>2014-05-14T15:45:52.000Z</time>
      </trkpt>
      <trkpt lat="45.92841" lon="6.17345">
        <ele>572.40002441406</ele>
        <time>2014-05-14T15:45:58.000Z</time>
      </trkpt>
      <trkpt lat="45.9281" lon="6.17367">
        <ele>577</ele>
        <time>2014-05-14T15:46:03.000Z</time>
      </trkpt>
      <trkpt lat="45.92771" lon="6.17381">
        <ele>578.40002441406</ele>
        <time>2014-05-14T15:46:10.000Z</time>
      </trkpt>
      <trkpt lat="45.92726" lon="6.17397">
        <ele>578.59997558594</ele>
        <time>2014-05-14T15:46:19.000Z</time>
      </trkpt>
      <trkpt lat="45.92669" lon="6.17416">
        <ele>579.20001220703</ele>
        <time>2014-05-14T15:46:30.000Z</time>
      </trkpt>
      <trkpt lat="45.92614" lon="6.1743">
        <ele>578.40002441406</ele>
        <time>2014-05-14T15:46:40.000Z</time>
      </trkpt>
      <trkpt lat="45.92559" lon="6.17434">
        <ele>579.20001220703</ele>
        <time>2014-05-14T15:46:49.000Z</time>
      </trkpt>
      <trkpt lat="45.92515" lon="6.1743">
        <ele>580</ele>
        <time>2014-05-14T15:46:56.000Z</time>
      </trkpt>
      <trkpt lat="45.92463" lon="6.17414">
        <ele>582.79998779297</ele>
        <time>2014-05-14T15:47:04.000Z</time>
      </trkpt>
      <trkpt lat="45.92421" lon="6.17397">
        <ele>582.59997558594</ele>
        <time>2014-05-14T15:47:11.000Z</time>
      </trkpt>
      <trkpt lat="45.92393" lon="6.17382">
        <ele>581.79998779297</ele>
        <time>2014-05-14T15:47:16.000Z</time>
      </trkpt>
      <trkpt lat="45.9238" lon="6.17366">
        <ele>581.59997558594</ele>
        <time>2014-05-14T15:47:20.000Z</time>
      </trkpt>
      <trkpt lat="45.92356" lon="6.17346">
        <ele>581.59997558594</ele>
        <time>2014-05-14T15:47:25.000Z</time>
      </trkpt>
      <trkpt lat="45.92339" lon="6.17353">
        <ele>582.20001220703</ele>
        <time>2014-05-14T15:47:28.000Z</time>
      </trkpt>
      <trkpt lat="45.92329" lon="6.17372">
        <ele>582.40002441406</ele>
        <time>2014-05-14T15:47:31.000Z</time>
      </trkpt>
      <trkpt lat="45.92326" lon="6.17395">
        <ele>582.79998779297</ele>
        <time>2014-05-14T15:47:34.000Z</time>
      </trkpt>
      <trkpt lat="45.92313" lon="6.17435">
        <ele>583.59997558594</ele>
        <time>2014-05-14T15:47:40.000Z</time>
      </trkpt>
      <trkpt lat="45.92293" lon="6.17485">
        <ele>585.79998779297</ele>
        <time>2014-05-14T15:47:48.000Z</time>
      </trkpt>
      <trkpt lat="45.92273" lon="6.17523">
        <ele>586.59997558594</ele>
        <time>2014-05-14T15:47:55.000Z</time>
      </trkpt>
      <trkpt lat="45.92242" lon="6.17556">
        <ele>588.59997558594</ele>
        <time>2014-05-14T15:48:03.000Z</time>
      </trkpt>
      <trkpt lat="45.92206" lon="6.17598">
        <ele>590.20001220703</ele>
        <time>2014-05-14T15:48:13.000Z</time>
      </trkpt>
      <trkpt lat="45.92185" lon="6.17636">
        <ele>592</ele>
        <time>2014-05-14T15:48:21.000Z</time>
      </trkpt>
      <trkpt lat="45.92159" lon="6.17688">
        <ele>594.59997558594</ele>
        <time>2014-05-14T15:48:31.000Z</time>
      </trkpt>
      <trkpt lat="45.92139" lon="6.1773">
        <ele>600.20001220703</ele>
        <time>2014-05-14T15:48:39.000Z</time>
      </trkpt>
      <trkpt lat="45.92128" lon="6.1777">
        <ele>601.79998779297</ele>
        <time>2014-05-14T15:48:46.000Z</time>
      </trkpt>
      <trkpt lat="45.92128" lon="6.17796">
        <ele>602.40002441406</ele>
        <time>2014-05-14T15:48:50.000Z</time>
      </trkpt>
      <trkpt lat="45.92138" lon="6.17845">
        <ele>603.40002441406</ele>
        <time>2014-05-14T15:48:58.000Z</time>
      </trkpt>
      <trkpt lat="45.92152" lon="6.17887">
        <ele>602.40002441406</ele>
        <time>2014-05-14T15:49:05.000Z</time>
      </trkpt>
      <trkpt lat="45.92161" lon="6.17921">
        <ele>602.59997558594</ele>
        <time>2014-05-14T15:49:10.000Z</time>
      </trkpt>
      <trkpt lat="45.92165" lon="6.17942">
        <ele>602.20001220703</ele>
        <time>2014-05-14T15:49:13.000Z</time>
      </trkpt>
      <trkpt lat="45.92162" lon="6.17985">
        <ele>602.40002441406</ele>
        <time>2014-05-14T15:49:19.000Z</time>
      </trkpt>
      <trkpt lat="45.9216" lon="6.17992">
        <ele>602.40002441406</ele>
        <time>2014-05-14T15:49:20.000Z</time>
      </trkpt>
      <trkpt lat="45.9215" lon="6.18019">
        <ele>601.20001220703</ele>
        <time>2014-05-14T15:49:24.000Z</time>
      </trkpt>
      <trkpt lat="45.92139" lon="6.18035">
        <ele>600.40002441406</ele>
        <time>2014-05-14T15:49:27.000Z</time>
      </trkpt>
      <trkpt lat="45.92122" lon="6.18051">
        <ele>601.20001220703</ele>
        <time>2014-05-14T15:49:31.000Z</time>
      </trkpt>
      <trkpt lat="45.92096" lon="6.18061">
        <ele>602.79998779297</ele>
        <time>2014-05-14T15:49:36.000Z</time>
      </trkpt>
      <trkpt lat="45.92061" lon="6.1806">
        <ele>606.59997558594</ele>
        <time>2014-05-14T15:49:42.000Z</time>
      </trkpt>
      <trkpt lat="45.92038" lon="6.18069">
        <ele>607.40002441406</ele>
        <time>2014-05-14T15:49:46.000Z</time>
      </trkpt>
      <trkpt lat="45.92009" lon="6.18101">
        <ele>605.79998779297</ele>
        <time>2014-05-14T15:49:52.000Z</time>
      </trkpt>
      <trkpt lat="45.91996" lon="6.1813">
        <ele>607.79998779297</ele>
        <time>2014-05-14T15:49:56.000Z</time>
      </trkpt>
      <trkpt lat="45.91991" lon="6.18163">
        <ele>608</ele>
        <time>2014-05-14T15:50:00.000Z</time>
      </trkpt>
      <trkpt lat="45.91996" lon="6.18221">
        <ele>608.79998779297</ele>
        <time>2014-05-14T15:50:07.000Z</time>
      </trkpt>
      <trkpt lat="45.9201" lon="6.18296">
        <ele>606</ele>
        <time>2014-05-14T15:50:16.000Z</time>
      </trkpt>
      <trkpt lat="45.9201" lon="6.18349">
        <ele>604.79998779297</ele>
        <time>2014-05-14T15:50:22.000Z</time>
      </trkpt>
      <trkpt lat="45.91997" lon="6.184">
        <ele>604</ele>
        <time>2014-05-14T15:50:28.000Z</time>
      </trkpt>
      <trkpt lat="45.91977" lon="6.18438">
        <ele>602.40002441406</ele>
        <time>2014-05-14T15:50:33.000Z</time>
      </trkpt>
      <trkpt lat="45.91962" lon="6.18458">
        <ele>604.40002441406</ele>
        <time>2014-05-14T15:50:36.000Z</time>
      </trkpt>
      <trkpt lat="45.91923" lon="6.18484">
        <ele>605.20001220703</ele>
        <time>2014-05-14T15:50:42.000Z</time>
      </trkpt>
      <trkpt lat="45.91862" lon="6.18514">
        <ele>608.79998779297</ele>
        <time>2014-05-14T15:50:50.000Z</time>
      </trkpt>
      <trkpt lat="45.91854" lon="6.18518">
        <ele>609</ele>
        <time>2014-05-14T15:50:51.000Z</time>
      </trkpt>
      <trkpt lat="45.91828" lon="6.18544">
        <ele>608.59997558594</ele>
        <time>2014-05-14T15:50:55.000Z</time>
      </trkpt>
      <trkpt lat="45.91815" lon="6.18563">
        <ele>607.20001220703</ele>
        <time>2014-05-14T15:50:57.000Z</time>
      </trkpt>
      <trkpt lat="45.91805" lon="6.18615">
        <ele>606.40002441406</ele>
        <time>2014-05-14T15:51:02.000Z</time>
      </trkpt>
      <trkpt lat="45.91809" lon="6.18664">
        <ele>604.40002441406</ele>
        <time>2014-05-14T15:51:06.000Z</time>
      </trkpt>
      <trkpt lat="45.91813" lon="6.18685">
        <ele>604.40002441406</ele>
        <time>2014-05-14T15:51:08.000Z</time>
      </trkpt>
      <trkpt lat="45.91838" lon="6.18796">
        <ele>602.79998779297</ele>
        <time>2014-05-14T15:51:17.000Z</time>
      </trkpt>
      <trkpt lat="45.91857" lon="6.18891">
        <ele>597.40002441406</ele>
        <time>2014-05-14T15:51:24.000Z</time>
      </trkpt>
      <trkpt lat="45.91873" lon="6.19005">
        <ele>594</ele>
        <time>2014-05-14T15:51:32.000Z</time>
      </trkpt>
      <trkpt lat="45.91885" lon="6.1908">
        <ele>594.40002441406</ele>
        <time>2014-05-14T15:51:37.000Z</time>
      </trkpt>
      <trkpt lat="45.91884" lon="6.19162">
        <ele>591.20001220703</ele>
        <time>2014-05-14T15:51:42.000Z</time>
      </trkpt>
      <trkpt lat="45.91883" lon="6.19241">
        <ele>589.79998779297</ele>
        <time>2014-05-14T15:51:47.000Z</time>
      </trkpt>
      <trkpt lat="45.91881" lon="6.19347">
        <ele>589.79998779297</ele>
        <time>2014-05-14T15:51:54.000Z</time>
      </trkpt>
      <trkpt lat="45.91874" lon="6.19403">
        <ele>590.20001220703</ele>
        <time>2014-05-14T15:51:58.000Z</time>
      </trkpt>
      <trkpt lat="45.91888" lon="6.19455">
        <ele>578.79998779297</ele>
        <time>2014-05-14T15:52:02.000Z</time>
      </trkpt>
      <trkpt lat="45.9188" lon="6.19508">
        <ele>573.59997558594</ele>
        <time>2014-05-14T15:52:06.000Z</time>
      </trkpt>
      <trkpt lat="45.91861" lon="6.19544">
        <ele>571.40002441406</ele>
        <time>2014-05-14T15:52:09.000Z</time>
      </trkpt>
      <trkpt lat="45.91854" lon="6.19555">
        <ele>570</ele>
        <time>2014-05-14T15:52:10.000Z</time>
      </trkpt>
      <trkpt lat="45.9181" lon="6.19614">
        <ele>567.20001220703</ele>
        <time>2014-05-14T15:52:16.000Z</time>
      </trkpt>
      <trkpt lat="45.91763" lon="6.19696">
        <ele>563</ele>
        <time>2014-05-14T15:52:23.000Z</time>
      </trkpt>
      <trkpt lat="45.91749" lon="6.19719">
        <ele>560.79998779297</ele>
        <time>2014-05-14T15:52:25.000Z</time>
      </trkpt>
      <trkpt lat="45.91715" lon="6.19757">
        <ele>561.40002441406</ele>
        <time>2014-05-14T15:52:29.000Z</time>
      </trkpt>
      <trkpt lat="45.91684" lon="6.19772">
        <ele>566.79998779297</ele>
        <time>2014-05-14T15:52:32.000Z</time>
      </trkpt>
      <trkpt lat="45.91549" lon="6.19801">
        <ele>575</ele>
        <time>2014-05-14T15:52:45.000Z</time>
      </trkpt>
      <trkpt lat="45.91491" lon="6.19804">
        <ele>577.59997558594</ele>
        <time>2014-05-14T15:52:51.000Z</time>
      </trkpt>
      <trkpt lat="45.91427" lon="6.19798">
        <ele>576.59997558594</ele>
        <time>2014-05-14T15:52:58.000Z</time>
      </trkpt>
      <trkpt lat="45.9136" lon="6.19792">
        <ele>574.20001220703</ele>
        <time>2014-05-14T15:53:05.000Z</time>
      </trkpt>
      <trkpt lat="45.91301" lon="6.19776">
        <ele>575.79998779297</ele>
        <time>2014-05-14T15:53:11.000Z</time>
      </trkpt>
      <trkpt lat="45.91238" lon="6.19779">
        <ele>568.40002441406</ele>
        <time>2014-05-14T15:53:17.000Z</time>
      </trkpt>
      <trkpt lat="45.91163" lon="6.19781">
        <ele>563.79998779297</ele>
        <time>2014-05-14T15:53:24.000Z</time>
      </trkpt>
      <trkpt lat="45.91111" lon="6.19793">
        <ele>562.59997558594</ele>
        <time>2014-05-14T15:53:29.000Z</time>
      </trkpt>
      <trkpt lat="45.9106" lon="6.1982">
        <ele>559.59997558594</ele>
        <time>2014-05-14T15:53:34.000Z</time>
      </trkpt>
      <trkpt lat="45.90991" lon="6.19847">
        <ele>553.79998779297</ele>
        <time>2014-05-14T15:53:40.000Z</time>
      </trkpt>
      <trkpt lat="45.90903" lon="6.19854">
        <ele>557.40002441406</ele>
        <time>2014-05-14T15:53:47.000Z</time>
      </trkpt>
      <trkpt lat="45.90891" lon="6.19857">
        <ele>556.59997558594</ele>
        <time>2014-05-14T15:53:48.000Z</time>
      </trkpt>
      <trkpt lat="45.90844" lon="6.19882">
        <ele>557.20001220703</ele>
        <time>2014-05-14T15:53:52.000Z</time>
      </trkpt>
      <trkpt lat="45.90826" lon="6.19904">
        <ele>556.79998779297</ele>
        <time>2014-05-14T15:53:54.000Z</time>
      </trkpt>
      <trkpt lat="45.90771" lon="6.19988">
        <ele>558.79998779297</ele>
        <time>2014-05-14T15:54:01.000Z</time>
      </trkpt>
      <trkpt lat="45.90758" lon="6.20016">
        <ele>561</ele>
        <time>2014-05-14T15:54:03.000Z</time>
      </trkpt>
      <trkpt lat="45.90761" lon="6.2008">
        <ele>553.40002441406</ele>
        <time>2014-05-14T15:54:07.000Z</time>
      </trkpt>
      <trkpt lat="45.90776" lon="6.202">
        <ele>544</ele>
        <time>2014-05-14T15:54:14.000Z</time>
      </trkpt>
      <trkpt lat="45.90765" lon="6.20268">
        <ele>547</ele>
        <time>2014-05-14T15:54:18.000Z</time>
      </trkpt>
      <trkpt lat="45.90742" lon="6.2031">
        <ele>540.40002441406</ele>
        <time>2014-05-14T15:54:21.000Z</time>
      </trkpt>
      <trkpt lat="45.90716" lon="6.20347">
        <ele>538.59997558594</ele>
        <time>2014-05-14T15:54:24.000Z</time>
      </trkpt>
      <trkpt lat="45.90674" lon="6.20382">
        <ele>537</ele>
        <time>2014-05-14T15:54:28.000Z</time>
      </trkpt>
      <trkpt lat="45.90637" lon="6.20425">
        <ele>536</ele>
        <time>2014-05-14T15:54:32.000Z</time>
      </trkpt>
      <trkpt lat="45.90611" lon="6.20461">
        <ele>543</ele>
        <time>2014-05-14T15:54:35.000Z</time>
      </trkpt>
      <trkpt lat="45.90576" lon="6.20499">
        <ele>542.20001220703</ele>
        <time>2014-05-14T15:54:39.000Z</time>
      </trkpt>
      <trkpt lat="45.90551" lon="6.20544">
        <ele>540</ele>
        <time>2014-05-14T15:54:43.000Z</time>
      </trkpt>
      <trkpt lat="45.90546" lon="6.20608">
        <ele>556.59997558594</ele>
        <time>2014-05-14T15:54:47.000Z</time>
      </trkpt>
      <trkpt lat="45.90529" lon="6.20686">
        <ele>586.40002441406</ele>
        <time>2014-05-14T15:54:52.000Z</time>
      </trkpt>
      <trkpt lat="45.90517" lon="6.20713">
        <ele>585.40002441406</ele>
        <time>2014-05-14T15:54:54.000Z</time>
      </trkpt>
      <trkpt lat="45.90454" lon="6.20774">
        <ele>564.79998779297</ele>
        <time>2014-05-14T15:55:00.000Z</time>
      </trkpt>
      <trkpt lat="45.90404" lon="6.20838">
        <ele>543.20001220703</ele>
        <time>2014-05-14T15:55:06.000Z</time>
      </trkpt>
      <trkpt lat="45.90372" lon="6.20887">
        <ele>538.59997558594</ele>
        <time>2014-05-14T15:55:11.000Z</time>
      </trkpt>
      <trkpt lat="45.90345" lon="6.2094">
        <ele>540.79998779297</ele>
        <time>2014-05-14T15:55:17.000Z</time>
      </trkpt>
      <trkpt lat="45.90316" lon="6.20977">
        <ele>532</ele>
        <time>2014-05-14T15:55:23.000Z</time>
      </trkpt>
      <trkpt lat="45.90271" lon="6.21022">
        <ele>544</ele>
        <time>2014-05-14T15:55:32.000Z</time>
      </trkpt>
      <trkpt lat="45.90231" lon="6.21074">
        <ele>535.79998779297</ele>
        <time>2014-05-14T15:55:40.000Z</time>
      </trkpt>
      <trkpt lat="45.90208" lon="6.21101">
        <ele>542.40002441406</ele>
        <time>2014-05-14T15:55:45.000Z</time>
      </trkpt>
      <trkpt lat="45.90168" lon="6.21122">
        <ele>551.20001220703</ele>
        <time>2014-05-14T15:55:51.000Z</time>
      </trkpt>
      <trkpt lat="45.90129" lon="6.21145">
        <ele>549.20001220703</ele>
        <time>2014-05-14T15:55:57.000Z</time>
      </trkpt>
      <trkpt lat="45.90084" lon="6.21188">
        <ele>548.40002441406</ele>
        <time>2014-05-14T15:56:04.000Z</time>
      </trkpt>
      <trkpt lat="45.90047" lon="6.2124">
        <ele>533.59997558594</ele>
        <time>2014-05-14T15:56:10.000Z</time>
      </trkpt>
      <trkpt lat="45.90031" lon="6.2126">
        <ele>536.40002441406</ele>
        <time>2014-05-14T15:56:12.000Z</time>
      </trkpt>
      <trkpt lat="45.89982" lon="6.21294">
        <ele>536.40002441406</ele>
        <time>2014-05-14T15:56:18.000Z</time>
      </trkpt>
      <trkpt lat="45.89935" lon="6.21333">
        <ele>538.79998779297</ele>
        <time>2014-05-14T15:56:24.000Z</time>
      </trkpt>
      <trkpt lat="45.89901" lon="6.21377">
        <ele>534</ele>
        <time>2014-05-14T15:56:29.000Z</time>
      </trkpt>
      <trkpt lat="45.89884" lon="6.21406">
        <ele>531.79998779297</ele>
        <time>2014-05-14T15:56:33.000Z</time>
      </trkpt>
      <trkpt lat="45.89867" lon="6.21436">
        <ele>536.20001220703</ele>
        <time>2014-05-14T15:56:38.000Z</time>
      </trkpt>
      <trkpt lat="45.89862" lon="6.21442">
        <ele>537.40002441406</ele>
        <time>2014-05-14T15:56:39.000Z</time>
      </trkpt>
      <trkpt lat="45.8984" lon="6.21485">
        <ele>536.20001220703</ele>
        <time>2014-05-14T15:56:46.000Z</time>
      </trkpt>
      <trkpt lat="45.89833" lon="6.21497">
        <ele>537.20001220703</ele>
        <time>2014-05-14T15:56:48.000Z</time>
      </trkpt>
      <trkpt lat="45.89814" lon="6.21536">
        <ele>538.20001220703</ele>
        <time>2014-05-14T15:56:55.000Z</time>
      </trkpt>
      <trkpt lat="45.898" lon="6.21554">
        <ele>539.79998779297</ele>
        <time>2014-05-14T15:56:59.000Z</time>
      </trkpt>
      <trkpt lat="45.89788" lon="6.21564">
        <ele>539.59997558594</ele>
        <time>2014-05-14T15:57:03.000Z</time>
      </trkpt>
      <trkpt lat="45.89761" lon="6.21572">
        <ele>541.79998779297</ele>
        <time>2014-05-14T15:57:10.000Z</time>
      </trkpt>
      <trkpt lat="45.89738" lon="6.21581">
        <ele>543.20001220703</ele>
        <time>2014-05-14T15:57:16.000Z</time>
      </trkpt>
      <trkpt lat="45.89735" lon="6.21583">
        <ele>543.20001220703</ele>
        <time>2014-05-14T15:57:17.000Z</time>
      </trkpt>
      <trkpt lat="45.89697" lon="6.21602">
        <ele>543.79998779297</ele>
        <time>2014-05-14T15:57:28.000Z</time>
      </trkpt>
      <trkpt lat="45.89674" lon="6.21614">
        <ele>544</ele>
        <time>2014-05-14T15:57:35.000Z</time>
      </trkpt>
      <trkpt lat="45.8964" lon="6.21633">
        <ele>543.79998779297</ele>
        <time>2014-05-14T15:57:45.000Z</time>
      </trkpt>
      <trkpt lat="45.89613" lon="6.21646">
        <ele>545.20001220703</ele>
        <time>2014-05-14T15:57:52.000Z</time>
      </trkpt>
      <trkpt lat="45.89587" lon="6.2166">
        <ele>548</ele>
        <time>2014-05-14T15:58:00.000Z</time>
      </trkpt>
      <trkpt lat="45.89564" lon="6.21668">
        <ele>549</ele>
        <time>2014-05-14T15:58:07.000Z</time>
      </trkpt>
      <trkpt lat="45.89538" lon="6.21672">
        <ele>549.79998779297</ele>
        <time>2014-05-14T15:58:14.000Z</time>
      </trkpt>
      <trkpt lat="45.8952" lon="6.21676">
        <ele>550.59997558594</ele>
        <time>2014-05-14T15:58:18.000Z</time>
      </trkpt>
      <trkpt lat="45.89487" lon="6.21679">
        <ele>553</ele>
        <time>2014-05-14T15:58:25.000Z</time>
      </trkpt>
      <trkpt lat="45.89479" lon="6.21678">
        <ele>554</ele>
        <time>2014-05-14T15:58:27.000Z</time>
      </trkpt>
      <trkpt lat="45.89456" lon="6.21666">
        <ele>556</ele>
        <time>2014-05-14T15:58:33.000Z</time>
      </trkpt>
      <trkpt lat="45.89452" lon="6.21663">
        <ele>556.40002441406</ele>
        <time>2014-05-14T15:58:34.000Z</time>
      </trkpt>
      <trkpt lat="45.89443" lon="6.21657">
        <ele>557.20001220703</ele>
        <time>2014-05-14T15:58:36.000Z</time>
      </trkpt>
      <trkpt lat="45.89418" lon="6.21654">
        <ele>557.79998779297</ele>
        <time>2014-05-14T15:58:41.000Z</time>
      </trkpt>
      <trkpt lat="45.89402" lon="6.21659">
        <ele>557.40002441406</ele>
        <time>2014-05-14T15:58:44.000Z</time>
      </trkpt>
      <trkpt lat="45.89369" lon="6.21661">
        <ele>558.40002441406</ele>
        <time>2014-05-14T15:58:50.000Z</time>
      </trkpt>
      <trkpt lat="45.89363" lon="6.21662">
        <ele>558.59997558594</ele>
        <time>2014-05-14T15:58:51.000Z</time>
      </trkpt>
      <trkpt lat="45.89331" lon="6.21658">
        <ele>559.20001220703</ele>
        <time>2014-05-14T15:58:56.000Z</time>
      </trkpt>
      <trkpt lat="45.89285" lon="6.21654">
        <ele>560</ele>
        <time>2014-05-14T15:59:03.000Z</time>
      </trkpt>
      <trkpt lat="45.89278" lon="6.21654">
        <ele>560</ele>
        <time>2014-05-14T15:59:04.000Z</time>
      </trkpt>
      <trkpt lat="45.89233" lon="6.2167">
        <ele>559.79998779297</ele>
        <time>2014-05-14T15:59:11.000Z</time>
      </trkpt>
      <trkpt lat="45.89203" lon="6.21694">
        <ele>559.40002441406</ele>
        <time>2014-05-14T15:59:16.000Z</time>
      </trkpt>
      <trkpt lat="45.8917" lon="6.21735">
        <ele>559.40002441406</ele>
        <time>2014-05-14T15:59:22.000Z</time>
      </trkpt>
      <trkpt lat="45.89133" lon="6.21768">
        <ele>560.40002441406</ele>
        <time>2014-05-14T15:59:28.000Z</time>
      </trkpt>
      <trkpt lat="45.89106" lon="6.21781">
        <ele>561.40002441406</ele>
        <time>2014-05-14T15:59:32.000Z</time>
      </trkpt>
      <trkpt lat="45.8908" lon="6.21776">
        <ele>562.79998779297</ele>
        <time>2014-05-14T15:59:36.000Z</time>
      </trkpt>
      <trkpt lat="45.8905" lon="6.21769">
        <ele>564</ele>
        <time>2014-05-14T15:59:41.000Z</time>
      </trkpt>
      <trkpt lat="45.88992" lon="6.21797">
        <ele>564.59997558594</ele>
        <time>2014-05-14T15:59:50.000Z</time>
      </trkpt>
      <trkpt lat="45.88973" lon="6.2181">
        <ele>565</ele>
        <time>2014-05-14T15:59:53.000Z</time>
      </trkpt>
      <trkpt lat="45.88938" lon="6.2182">
        <ele>564</ele>
        <time>2014-05-14T15:59:58.000Z</time>
      </trkpt>
      <trkpt lat="45.88931" lon="6.21819">
        <ele>564</ele>
        <time>2014-05-14T15:59:59.000Z</time>
      </trkpt>
      <trkpt lat="45.88914" lon="6.21815">
        <ele>564</ele>
        <time>2014-05-14T16:00:02.000Z</time>
      </trkpt>
      <trkpt lat="45.88896" lon="6.21813">
        <ele>564</ele>
        <time>2014-05-14T16:00:06.000Z</time>
      </trkpt>
      <trkpt lat="45.88858" lon="6.21802">
        <ele>565.40002441406</ele>
        <time>2014-05-14T16:00:13.000Z</time>
      </trkpt>
      <trkpt lat="45.88811" lon="6.21785">
        <ele>567.79998779297</ele>
        <time>2014-05-14T16:00:21.000Z</time>
      </trkpt>
      <trkpt lat="45.8876" lon="6.21759">
        <ele>569.40002441406</ele>
        <time>2014-05-14T16:00:31.000Z</time>
      </trkpt>
      <trkpt lat="45.88727" lon="6.21747">
        <ele>570.40002441406</ele>
        <time>2014-05-14T16:00:38.000Z</time>
      </trkpt>
      <trkpt lat="45.88693" lon="6.21739">
        <ele>571.79998779297</ele>
        <time>2014-05-14T16:00:45.000Z</time>
      </trkpt>
      <trkpt lat="45.88647" lon="6.2172">
        <ele>574.40002441406</ele>
        <time>2014-05-14T16:00:53.000Z</time>
      </trkpt>
      <trkpt lat="45.88627" lon="6.21712">
        <ele>574.59997558594</ele>
        <time>2014-05-14T16:00:56.000Z</time>
      </trkpt>
      <trkpt lat="45.88593" lon="6.21715">
        <ele>574.40002441406</ele>
        <time>2014-05-14T16:01:01.000Z</time>
      </trkpt>
      <trkpt lat="45.88545" lon="6.21731">
        <ele>574.79998779297</ele>
        <time>2014-05-14T16:01:08.000Z</time>
      </trkpt>
      <trkpt lat="45.88512" lon="6.21738">
        <ele>577</ele>
        <time>2014-05-14T16:01:13.000Z</time>
      </trkpt>
      <trkpt lat="45.88471" lon="6.21735">
        <ele>579.59997558594</ele>
        <time>2014-05-14T16:01:20.000Z</time>
      </trkpt>
      <trkpt lat="45.88449" lon="6.21731">
        <ele>580.40002441406</ele>
        <time>2014-05-14T16:01:24.000Z</time>
      </trkpt>
      <trkpt lat="45.88405" lon="6.21724">
        <ele>582</ele>
        <time>2014-05-14T16:01:32.000Z</time>
      </trkpt>
      <trkpt lat="45.88396" lon="6.21721">
        <ele>582.40002441406</ele>
        <time>2014-05-14T16:01:34.000Z</time>
      </trkpt>
      <trkpt lat="45.88373" lon="6.21714">
        <ele>583.20001220703</ele>
        <time>2014-05-14T16:01:39.000Z</time>
      </trkpt>
      <trkpt lat="45.88351" lon="6.21699">
        <ele>583.40002441406</ele>
        <time>2014-05-14T16:01:44.000Z</time>
      </trkpt>
      <trkpt lat="45.88337" lon="6.21692">
        <ele>583.40002441406</ele>
        <time>2014-05-14T16:01:47.000Z</time>
      </trkpt>
      <trkpt lat="45.88302" lon="6.21677">
        <ele>583.79998779297</ele>
        <time>2014-05-14T16:01:54.000Z</time>
      </trkpt>
      <trkpt lat="45.88264" lon="6.21666">
        <ele>584.79998779297</ele>
        <time>2014-05-14T16:02:01.000Z</time>
      </trkpt>
      <trkpt lat="45.88239" lon="6.21647">
        <ele>585.59997558594</ele>
        <time>2014-05-14T16:02:06.000Z</time>
      </trkpt>
      <trkpt lat="45.88215" lon="6.21628">
        <ele>586.79998779297</ele>
        <time>2014-05-14T16:02:11.000Z</time>
      </trkpt>
      <trkpt lat="45.88196" lon="6.21614">
        <ele>587.79998779297</ele>
        <time>2014-05-14T16:02:15.000Z</time>
      </trkpt>
      <trkpt lat="45.88163" lon="6.21581">
        <ele>589.59997558594</ele>
        <time>2014-05-14T16:02:23.000Z</time>
      </trkpt>
      <trkpt lat="45.88156" lon="6.21572">
        <ele>590.20001220703</ele>
        <time>2014-05-14T16:02:25.000Z</time>
      </trkpt>
      <trkpt lat="45.88137" lon="6.21552">
        <ele>591.20001220703</ele>
        <time>2014-05-14T16:02:30.000Z</time>
      </trkpt>
      <trkpt lat="45.88132" lon="6.21543">
        <ele>591.40002441406</ele>
        <time>2014-05-14T16:02:32.000Z</time>
      </trkpt>
      <trkpt lat="45.88113" lon="6.2152">
        <ele>591.79998779297</ele>
        <time>2014-05-14T16:02:38.000Z</time>
      </trkpt>
      <trkpt lat="45.88107" lon="6.21512">
        <ele>592</ele>
        <time>2014-05-14T16:02:40.000Z</time>
      </trkpt>
      <trkpt lat="45.88096" lon="6.215">
        <ele>592.20001220703</ele>
        <time>2014-05-14T16:02:44.000Z</time>
      </trkpt>
      <trkpt lat="45.88083" lon="6.21491">
        <ele>592.59997558594</ele>
        <time>2014-05-14T16:02:50.000Z</time>
      </trkpt>
      <trkpt lat="45.88073" lon="6.21475">
        <ele>593</ele>
        <time>2014-05-14T16:02:56.000Z</time>
      </trkpt>
      <trkpt lat="45.8805" lon="6.21448">
        <ele>594.59997558594</ele>
        <time>2014-05-14T16:03:04.000Z</time>
      </trkpt>
      <trkpt lat="45.88024" lon="6.21418">
        <ele>596.59997558594</ele>
        <time>2014-05-14T16:03:13.000Z</time>
      </trkpt>
      <trkpt lat="45.87997" lon="6.21386">
        <ele>599</ele>
        <time>2014-05-14T16:03:23.000Z</time>
      </trkpt>
      <trkpt lat="45.87974" lon="6.2136">
        <ele>601.59997558594</ele>
        <time>2014-05-14T16:03:32.000Z</time>
      </trkpt>
      <trkpt lat="45.87956" lon="6.21341">
        <ele>604.20001220703</ele>
        <time>2014-05-14T16:03:39.000Z</time>
      </trkpt>
      <trkpt lat="45.87935" lon="6.2132">
        <ele>607.20001220703</ele>
        <time>2014-05-14T16:03:47.000Z</time>
      </trkpt>
      <trkpt lat="45.87918" lon="6.21303">
        <ele>610.20001220703</ele>
        <time>2014-05-14T16:03:54.000Z</time>
      </trkpt>
      <trkpt lat="45.879" lon="6.21288">
        <ele>613.40002441406</ele>
        <time>2014-05-14T16:04:01.000Z</time>
      </trkpt>
      <trkpt lat="45.87883" lon="6.21273">
        <ele>616</ele>
        <time>2014-05-14T16:04:08.000Z</time>
      </trkpt>
      <trkpt lat="45.87864" lon="6.21259">
        <ele>617.40002441406</ele>
        <time>2014-05-14T16:04:15.000Z</time>
      </trkpt>
      <trkpt lat="45.87841" lon="6.21242">
        <ele>619.20001220703</ele>
        <time>2014-05-14T16:04:23.000Z</time>
      </trkpt>
      <trkpt lat="45.87818" lon="6.21223">
        <ele>620.79998779297</ele>
        <time>2014-05-14T16:04:30.000Z</time>
      </trkpt>
      <trkpt lat="45.878" lon="6.21212">
        <ele>622</ele>
        <time>2014-05-14T16:04:35.000Z</time>
      </trkpt>
      <trkpt lat="45.87797" lon="6.21212">
        <ele>622</ele>
        <time>2014-05-14T16:04:37.000Z</time>
      </trkpt>
      <trkpt lat="45.87794" lon="6.21214">
        <ele>621.79998779297</ele>
        <time>2014-05-14T16:04:46.000Z</time>
      </trkpt>
      <trkpt lat="45.87796" lon="6.21217">
        <ele>621.59997558594</ele>
        <time>2014-05-14T16:04:51.000Z</time>
      </trkpt>
      <trkpt lat="45.87795" lon="6.21216">
        <ele>621.59997558594</ele>
        <time>2014-05-14T16:04:56.000Z</time>
      </trkpt>
      <trkpt lat="45.87791" lon="6.21215">
        <ele>621.79998779297</ele>
        <time>2014-05-14T16:05:08.000Z</time>
      </trkpt>
      <trkpt lat="45.87782" lon="6.21218">
        <ele>621.59997558594</ele>
        <time>2014-05-14T16:05:15.000Z</time>
      </trkpt>
      <trkpt lat="45.87779" lon="6.21216">
        <ele>621.79998779297</ele>
        <time>2014-05-14T16:05:18.000Z</time>
      </trkpt>
      <trkpt lat="45.87775" lon="6.21215">
        <ele>622</ele>
        <time>2014-05-14T16:05:24.000Z</time>
      </trkpt>
      <trkpt lat="45.87771" lon="6.21212">
        <ele>622.40002441406</ele>
        <time>2014-05-14T16:05:29.000Z</time>
      </trkpt>
      <trkpt lat="45.87762" lon="6.21208">
        <ele>623</ele>
        <time>2014-05-14T16:05:34.000Z</time>
      </trkpt>
      <trkpt lat="45.87754" lon="6.21201">
        <ele>623.79998779297</ele>
        <time>2014-05-14T16:05:39.000Z</time>
      </trkpt>
      <trkpt lat="45.87742" lon="6.21199">
        <ele>624.20001220703</ele>
        <time>2014-05-14T16:05:44.000Z</time>
      </trkpt>
      <trkpt lat="45.87726" lon="6.21198">
        <ele>624.59997558594</ele>
        <time>2014-05-14T16:05:50.000Z</time>
      </trkpt>
      <trkpt lat="45.87709" lon="6.21198">
        <ele>624.79998779297</ele>
        <time>2014-05-14T16:05:55.000Z</time>
      </trkpt>
      <trkpt lat="45.87682" lon="6.21199">
        <ele>625.20001220703</ele>
        <time>2014-05-14T16:06:01.000Z</time>
      </trkpt>
      <trkpt lat="45.87656" lon="6.21201">
        <ele>625.59997558594</ele>
        <time>2014-05-14T16:06:06.000Z</time>
      </trkpt>
      <trkpt lat="45.87646" lon="6.21204">
        <ele>625.59997558594</ele>
        <time>2014-05-14T16:06:08.000Z</time>
      </trkpt>
      <trkpt lat="45.87627" lon="6.21206">
        <ele>625.40002441406</ele>
        <time>2014-05-14T16:06:12.000Z</time>
      </trkpt>
      <trkpt lat="45.87612" lon="6.21212">
        <ele>625</ele>
        <time>2014-05-14T16:06:15.000Z</time>
      </trkpt>
      <trkpt lat="45.87602" lon="6.21215">
        <ele>624.79998779297</ele>
        <time>2014-05-14T16:06:19.000Z</time>
      </trkpt>
      <trkpt lat="45.87598" lon="6.21216">
        <ele>624.79998779297</ele>
        <time>2014-05-14T16:06:21.000Z</time>
      </trkpt>
      <trkpt lat="45.87582" lon="6.2123">
        <ele>623.59997558594</ele>
        <time>2014-05-14T16:06:28.000Z</time>
      </trkpt>
      <trkpt lat="45.8757" lon="6.21234">
        <ele>623.79998779297</ele>
        <time>2014-05-14T16:06:32.000Z</time>
      </trkpt>
      <trkpt lat="45.87553" lon="6.21242">
        <ele>625.40002441406</ele>
        <time>2014-05-14T16:06:38.000Z</time>
      </trkpt>
      <trkpt lat="45.87531" lon="6.2125">
        <ele>627</ele>
        <time>2014-05-14T16:06:43.000Z</time>
      </trkpt>
      <trkpt lat="45.87508" lon="6.2125">
        <ele>627.79998779297</ele>
        <time>2014-05-14T16:06:48.000Z</time>
      </trkpt>
      <trkpt lat="45.87478" lon="6.21239">
        <ele>628</ele>
        <time>2014-05-14T16:06:55.000Z</time>
      </trkpt>
      <trkpt lat="45.87464" lon="6.21235">
        <ele>628.20001220703</ele>
        <time>2014-05-14T16:06:58.000Z</time>
      </trkpt>
      <trkpt lat="45.87429" lon="6.2123">
        <ele>629.79998779297</ele>
        <time>2014-05-14T16:07:06.000Z</time>
      </trkpt>
      <trkpt lat="45.87392" lon="6.21224">
        <ele>631.79998779297</ele>
        <time>2014-05-14T16:07:14.000Z</time>
      </trkpt>
      <trkpt lat="45.8737" lon="6.21221">
        <ele>632.40002441406</ele>
        <time>2014-05-14T16:07:19.000Z</time>
      </trkpt>
      <trkpt lat="45.8736" lon="6.21224">
        <ele>633</ele>
        <time>2014-05-14T16:07:23.000Z</time>
      </trkpt>
      <trkpt lat="45.87353" lon="6.21216">
        <ele>632.79998779297</ele>
        <time>2014-05-14T16:07:27.000Z</time>
      </trkpt>
      <trkpt lat="45.87344" lon="6.21198">
        <ele>632.59997558594</ele>
        <time>2014-05-14T16:07:33.000Z</time>
      </trkpt>
      <trkpt lat="45.87336" lon="6.21189">
        <ele>632.59997558594</ele>
        <time>2014-05-14T16:07:38.000Z</time>
      </trkpt>
      <trkpt lat="45.87326" lon="6.21192">
        <ele>633</ele>
        <time>2014-05-14T16:07:42.000Z</time>
      </trkpt>
      <trkpt lat="45.87319" lon="6.21199">
        <ele>633.40002441406</ele>
        <time>2014-05-14T16:07:47.000Z</time>
      </trkpt>
      <trkpt lat="45.87315" lon="6.212">
        <ele>633.59997558594</ele>
        <time>2014-05-14T16:07:50.000Z</time>
      </trkpt>
      <trkpt lat="45.87304" lon="6.21217">
        <ele>634.59997558594</ele>
        <time>2014-05-14T16:07:55.000Z</time>
      </trkpt>
      <trkpt lat="45.8729" lon="6.21218">
        <ele>634</ele>
        <time>2014-05-14T16:07:58.000Z</time>
      </trkpt>
      <trkpt lat="45.87285" lon="6.21217">
        <ele>633.79998779297</ele>
        <time>2014-05-14T16:07:59.000Z</time>
      </trkpt>
      <trkpt lat="45.87248" lon="6.21216">
        <ele>632</ele>
        <time>2014-05-14T16:08:05.000Z</time>
      </trkpt>
      <trkpt lat="45.87219" lon="6.21215">
        <ele>630.59997558594</ele>
        <time>2014-05-14T16:08:09.000Z</time>
      </trkpt>
      <trkpt lat="45.87186" lon="6.21198">
        <ele>627.59997558594</ele>
        <time>2014-05-14T16:08:14.000Z</time>
      </trkpt>
      <trkpt lat="45.87174" lon="6.21191">
        <ele>626.40002441406</ele>
        <time>2014-05-14T16:08:17.000Z</time>
      </trkpt>
      <trkpt lat="45.87168" lon="6.21187">
        <ele>625.79998779297</ele>
        <time>2014-05-14T16:08:20.000Z</time>
      </trkpt>
      <trkpt lat="45.87161" lon="6.2119">
        <ele>625.40002441406</ele>
        <time>2014-05-14T16:08:24.000Z</time>
      </trkpt>
      <trkpt lat="45.87164" lon="6.21195">
        <ele>625.59997558594</ele>
        <time>2014-05-14T16:08:27.000Z</time>
      </trkpt>
      <trkpt lat="45.87166" lon="6.21196">
        <ele>625.79998779297</ele>
        <time>2014-05-14T16:08:33.000Z</time>
      </trkpt>
      <trkpt lat="45.8717" lon="6.21198">
        <ele>626.20001220703</ele>
        <time>2014-05-14T16:08:49.000Z</time>
      </trkpt>
      <trkpt lat="45.87177" lon="6.21199">
        <ele>626.79998779297</ele>
        <time>2014-05-14T16:08:54.000Z</time>
      </trkpt>
      <trkpt lat="45.87189" lon="6.21207">
        <ele>628</ele>
        <time>2014-05-14T16:08:59.000Z</time>
      </trkpt>
      <trkpt lat="45.87207" lon="6.21219">
        <ele>629.59997558594</ele>
        <time>2014-05-14T16:09:06.000Z</time>
      </trkpt>
      <trkpt lat="45.87228" lon="6.21222">
        <ele>631.20001220703</ele>
        <time>2014-05-14T16:09:13.000Z</time>
      </trkpt>
      <trkpt lat="45.87255" lon="6.21222">
        <ele>632.40002441406</ele>
        <time>2014-05-14T16:09:20.000Z</time>
      </trkpt>
      <trkpt lat="45.87288" lon="6.21223">
        <ele>634</ele>
        <time>2014-05-14T16:09:28.000Z</time>
      </trkpt>
      <trkpt lat="45.87313" lon="6.21224">
        <ele>634.59997558594</ele>
        <time>2014-05-14T16:09:34.000Z</time>
      </trkpt>
      <trkpt lat="45.87325" lon="6.21233">
        <ele>634.79998779297</ele>
        <time>2014-05-14T16:09:38.000Z</time>
      </trkpt>
      <trkpt lat="45.87352" lon="6.21281">
        <ele>638.40002441406</ele>
        <time>2014-05-14T16:09:47.000Z</time>
      </trkpt>
      <trkpt lat="45.87374" lon="6.21316">
        <ele>641.20001220703</ele>
        <time>2014-05-14T16:09:54.000Z</time>
      </trkpt>
      <trkpt lat="45.87402" lon="6.21348">
        <ele>642.59997558594</ele>
        <time>2014-05-14T16:10:01.000Z</time>
      </trkpt>
      <trkpt lat="45.87437" lon="6.21381">
        <ele>643.20001220703</ele>
        <time>2014-05-14T16:10:09.000Z</time>
      </trkpt>
      <trkpt lat="45.87446" lon="6.21404">
        <ele>644</ele>
        <time>2014-05-14T16:10:13.000Z</time>
      </trkpt>
      <trkpt lat="45.87446" lon="6.21438">
        <ele>644.40002441406</ele>
        <time>2014-05-14T16:10:20.000Z</time>
      </trkpt>
      <trkpt lat="45.87454" lon="6.21463">
        <ele>644.40002441406</ele>
        <time>2014-05-14T16:10:26.000Z</time>
      </trkpt>
      <trkpt lat="45.87464" lon="6.21491">
        <ele>644.20001220703</ele>
        <time>2014-05-14T16:10:33.000Z</time>
      </trkpt>
      <trkpt lat="45.87469" lon="6.21524">
        <ele>644</ele>
        <time>2014-05-14T16:10:40.000Z</time>
      </trkpt>
      <trkpt lat="45.87469" lon="6.2158">
        <ele>645.40002441406</ele>
        <time>2014-05-14T16:10:51.000Z</time>
      </trkpt>
      <trkpt lat="45.87468" lon="6.21624">
        <ele>647.59997558594</ele>
        <time>2014-05-14T16:10:59.000Z</time>
      </trkpt>
      <trkpt lat="45.87458" lon="6.21657">
        <ele>650.59997558594</ele>
        <time>2014-05-14T16:11:05.000Z</time>
      </trkpt>
      <trkpt lat="45.87436" lon="6.21681">
        <ele>655.40002441406</ele>
        <time>2014-05-14T16:11:11.000Z</time>
      </trkpt>
      <trkpt lat="45.87427" lon="6.21685">
        <ele>656.40002441406</ele>
        <time>2014-05-14T16:11:13.000Z</time>
      </trkpt>
      <trkpt lat="45.87384" lon="6.21699">
        <ele>658.59997558594</ele>
        <time>2014-05-14T16:11:21.000Z</time>
      </trkpt>
      <trkpt lat="45.8734" lon="6.21714">
        <ele>659</ele>
        <time>2014-05-14T16:11:29.000Z</time>
      </trkpt>
      <trkpt lat="45.87306" lon="6.2173">
        <ele>660.20001220703</ele>
        <time>2014-05-14T16:11:36.000Z</time>
      </trkpt>
      <trkpt lat="45.8728" lon="6.2174">
        <ele>661.40002441406</ele>
        <time>2014-05-14T16:11:41.000Z</time>
      </trkpt>
      <trkpt lat="45.87238" lon="6.21751">
        <ele>662.20001220703</ele>
        <time>2014-05-14T16:11:49.000Z</time>
      </trkpt>
      <trkpt lat="45.87213" lon="6.21756">
        <ele>663</ele>
        <time>2014-05-14T16:11:54.000Z</time>
      </trkpt>
      <trkpt lat="45.87172" lon="6.2176">
        <ele>664.40002441406</ele>
        <time>2014-05-14T16:12:02.000Z</time>
      </trkpt>
      <trkpt lat="45.87135" lon="6.21766">
        <ele>665.79998779297</ele>
        <time>2014-05-14T16:12:10.000Z</time>
      </trkpt>
      <trkpt lat="45.8713" lon="6.21767">
        <ele>666</ele>
        <time>2014-05-14T16:12:11.000Z</time>
      </trkpt>
      <trkpt lat="45.87093" lon="6.21777">
        <ele>668.20001220703</ele>
        <time>2014-05-14T16:12:20.000Z</time>
      </trkpt>
      <trkpt lat="45.87067" lon="6.21786">
        <ele>670.20001220703</ele>
        <time>2014-05-14T16:12:26.000Z</time>
      </trkpt>
      <trkpt lat="45.8705" lon="6.21792">
        <ele>671.59997558594</ele>
        <time>2014-05-14T16:12:30.000Z</time>
      </trkpt>
      <trkpt lat="45.87033" lon="6.21796">
        <ele>672.79998779297</ele>
        <time>2014-05-14T16:12:34.000Z</time>
      </trkpt>
      <trkpt lat="45.86997" lon="6.21812">
        <ele>675</ele>
        <time>2014-05-14T16:12:42.000Z</time>
      </trkpt>
      <trkpt lat="45.86968" lon="6.21816">
        <ele>675.79998779297</ele>
        <time>2014-05-14T16:12:48.000Z</time>
      </trkpt>
      <trkpt lat="45.86929" lon="6.2182">
        <ele>677.59997558594</ele>
        <time>2014-05-14T16:12:57.000Z</time>
      </trkpt>
      <trkpt lat="45.86913" lon="6.21823">
        <ele>678.59997558594</ele>
        <time>2014-05-14T16:13:01.000Z</time>
      </trkpt>
      <trkpt lat="45.86879" lon="6.21835">
        <ele>683</ele>
        <time>2014-05-14T16:13:10.000Z</time>
      </trkpt>
      <trkpt lat="45.86857" lon="6.2184">
        <ele>684.79998779297</ele>
        <time>2014-05-14T16:13:16.000Z</time>
      </trkpt>
      <trkpt lat="45.86846" lon="6.21838">
        <ele>684.59997558594</ele>
        <time>2014-05-14T16:13:21.000Z</time>
      </trkpt>
      <trkpt lat="45.86843" lon="6.21838">
        <ele>684.79998779297</ele>
        <time>2014-05-14T16:13:26.000Z</time>
      </trkpt>
      <trkpt lat="45.86847" lon="6.21837">
        <ele>684.40002441406</ele>
        <time>2014-05-14T16:13:31.000Z</time>
      </trkpt>
      <trkpt lat="45.8685" lon="6.2184">
        <ele>685</ele>
        <time>2014-05-14T16:13:34.000Z</time>
      </trkpt>
      <trkpt lat="45.86844" lon="6.21849">
        <ele>687.40002441406</ele>
        <time>2014-05-14T16:13:39.000Z</time>
      </trkpt>
      <trkpt lat="45.86841" lon="6.2185">
        <ele>687.59997558594</ele>
        <time>2014-05-14T16:13:40.000Z</time>
      </trkpt>
      <trkpt lat="45.86824" lon="6.21852">
        <ele>688.20001220703</ele>
        <time>2014-05-14T16:13:47.000Z</time>
      </trkpt>
      <trkpt lat="45.86809" lon="6.21851">
        <ele>687.79998779297</ele>
        <time>2014-05-14T16:13:52.000Z</time>
      </trkpt>
      <trkpt lat="45.8679" lon="6.2186">
        <ele>689.79998779297</ele>
        <time>2014-05-14T16:13:57.000Z</time>
      </trkpt>
      <trkpt lat="45.86771" lon="6.21865">
        <ele>690.59997558594</ele>
        <time>2014-05-14T16:14:01.000Z</time>
      </trkpt>
      <trkpt lat="45.86756" lon="6.21865">
        <ele>689.59997558594</ele>
        <time>2014-05-14T16:14:04.000Z</time>
      </trkpt>
      <trkpt lat="45.86713" lon="6.21857">
        <ele>686.40002441406</ele>
        <time>2014-05-14T16:14:12.000Z</time>
      </trkpt>
      <trkpt lat="45.86666" lon="6.21848">
        <ele>686</ele>
        <time>2014-05-14T16:14:19.000Z</time>
      </trkpt>
      <trkpt lat="45.86622" lon="6.21837">
        <ele>685.40002441406</ele>
        <time>2014-05-14T16:14:26.000Z</time>
      </trkpt>
      <trkpt lat="45.86616" lon="6.21835">
        <ele>685.20001220703</ele>
        <time>2014-05-14T16:14:27.000Z</time>
      </trkpt>
      <trkpt lat="45.86593" lon="6.21839">
        <ele>686.59997558594</ele>
        <time>2014-05-14T16:14:31.000Z</time>
      </trkpt>
      <trkpt lat="45.86573" lon="6.21852">
        <ele>690.20001220703</ele>
        <time>2014-05-14T16:14:34.000Z</time>
      </trkpt>
      <trkpt lat="45.86558" lon="6.21857">
        <ele>692.20001220703</ele>
        <time>2014-05-14T16:14:36.000Z</time>
      </trkpt>
      <trkpt lat="45.86534" lon="6.21846">
        <ele>691.59997558594</ele>
        <time>2014-05-14T16:14:40.000Z</time>
      </trkpt>
      <trkpt lat="45.86481" lon="6.21814">
        <ele>688.59997558594</ele>
        <time>2014-05-14T16:14:48.000Z</time>
      </trkpt>
      <trkpt lat="45.86435" lon="6.21798">
        <ele>690</ele>
        <time>2014-05-14T16:14:54.000Z</time>
      </trkpt>
      <trkpt lat="45.864" lon="6.21793">
        <ele>692.40002441406</ele>
        <time>2014-05-14T16:14:58.000Z</time>
      </trkpt>
      <trkpt lat="45.86351" lon="6.21771">
        <ele>690.40002441406</ele>
        <time>2014-05-14T16:15:04.000Z</time>
      </trkpt>
      <trkpt lat="45.86294" lon="6.21731">
        <ele>685.40002441406</ele>
        <time>2014-05-14T16:15:12.000Z</time>
      </trkpt>
      <trkpt lat="45.86249" lon="6.21691">
        <ele>683.40002441406</ele>
        <time>2014-05-14T16:15:19.000Z</time>
      </trkpt>
      <trkpt lat="45.86203" lon="6.21639">
        <ele>679</ele>
        <time>2014-05-14T16:15:26.000Z</time>
      </trkpt>
      <trkpt lat="45.86171" lon="6.21595">
        <ele>677.59997558594</ele>
        <time>2014-05-14T16:15:31.000Z</time>
      </trkpt>
      <trkpt lat="45.86159" lon="6.21576">
        <ele>676.59997558594</ele>
        <time>2014-05-14T16:15:33.000Z</time>
      </trkpt>
      <trkpt lat="45.86129" lon="6.21554">
        <ele>678.40002441406</ele>
        <time>2014-05-14T16:15:37.000Z</time>
      </trkpt>
      <trkpt lat="45.86097" lon="6.21534">
        <ele>682.79998779297</ele>
        <time>2014-05-14T16:15:41.000Z</time>
      </trkpt>
      <trkpt lat="45.86098" lon="6.21511">
        <ele>682.20001220703</ele>
        <time>2014-05-14T16:15:43.000Z</time>
      </trkpt>
      <trkpt lat="45.86105" lon="6.21449">
        <ele>682.59997558594</ele>
        <time>2014-05-14T16:15:50.000Z</time>
      </trkpt>
      <trkpt lat="45.86098" lon="6.21413">
        <ele>686.40002441406</ele>
        <time>2014-05-14T16:15:55.000Z</time>
      </trkpt>
      <trkpt lat="45.8608" lon="6.21391">
        <ele>688.40002441406</ele>
        <time>2014-05-14T16:15:59.000Z</time>
      </trkpt>
      <trkpt lat="45.86075" lon="6.21386">
        <ele>688.59997558594</ele>
        <time>2014-05-14T16:16:00.000Z</time>
      </trkpt>
      <trkpt lat="45.86037" lon="6.21368">
        <ele>688.40002441406</ele>
        <time>2014-05-14T16:16:07.000Z</time>
      </trkpt>
      <trkpt lat="45.85995" lon="6.21357">
        <ele>688</ele>
        <time>2014-05-14T16:16:14.000Z</time>
      </trkpt>
      <trkpt lat="45.8595" lon="6.2135">
        <ele>687.40002441406</ele>
        <time>2014-05-14T16:16:21.000Z</time>
      </trkpt>
      <trkpt lat="45.85894" lon="6.21357">
        <ele>686.59997558594</ele>
        <time>2014-05-14T16:16:28.000Z</time>
      </trkpt>
      <trkpt lat="45.85855" lon="6.21342">
        <ele>683</ele>
        <time>2014-05-14T16:16:32.000Z</time>
      </trkpt>
      <trkpt lat="45.85792" lon="6.21296">
        <ele>675.20001220703</ele>
        <time>2014-05-14T16:16:38.000Z</time>
      </trkpt>
      <trkpt lat="45.85748" lon="6.21272">
        <ele>670.20001220703</ele>
        <time>2014-05-14T16:16:42.000Z</time>
      </trkpt>
      <trkpt lat="45.85698" lon="6.21265">
        <ele>667</ele>
        <time>2014-05-14T16:16:46.000Z</time>
      </trkpt>
      <trkpt lat="45.85644" lon="6.21268">
        <ele>664.79998779297</ele>
        <time>2014-05-14T16:16:50.000Z</time>
      </trkpt>
      <trkpt lat="45.85619" lon="6.2127">
        <ele>664.20001220703</ele>
        <time>2014-05-14T16:16:52.000Z</time>
      </trkpt>
      <trkpt lat="45.85577" lon="6.21291">
        <ele>663.79998779297</ele>
        <time>2014-05-14T16:16:56.000Z</time>
      </trkpt>
      <trkpt lat="45.85534" lon="6.21322">
        <ele>663.59997558594</ele>
        <time>2014-05-14T16:17:01.000Z</time>
      </trkpt>
      <trkpt lat="45.855" lon="6.2133">
        <ele>661.40002441406</ele>
        <time>2014-05-14T16:17:05.000Z</time>
      </trkpt>
      <trkpt lat="45.85455" lon="6.21329">
        <ele>654.59997558594</ele>
        <time>2014-05-14T16:17:10.000Z</time>
      </trkpt>
      <trkpt lat="45.85445" lon="6.21333">
        <ele>653.79998779297</ele>
        <time>2014-05-14T16:17:11.000Z</time>
      </trkpt>
      <trkpt lat="45.85379" lon="6.21368">
        <ele>647.59997558594</ele>
        <time>2014-05-14T16:17:17.000Z</time>
      </trkpt>
      <trkpt lat="45.8535" lon="6.21408">
        <ele>642.59997558594</ele>
        <time>2014-05-14T16:17:21.000Z</time>
      </trkpt>
      <trkpt lat="45.85345" lon="6.21454">
        <ele>644.40002441406</ele>
        <time>2014-05-14T16:17:24.000Z</time>
      </trkpt>
      <trkpt lat="45.85335" lon="6.21482">
        <ele>643.20001220703</ele>
        <time>2014-05-14T16:17:26.000Z</time>
      </trkpt>
      <trkpt lat="45.85314" lon="6.21495">
        <ele>640</ele>
        <time>2014-05-14T16:17:28.000Z</time>
      </trkpt>
      <trkpt lat="45.85302" lon="6.21499">
        <ele>637.40002441406</ele>
        <time>2014-05-14T16:17:29.000Z</time>
      </trkpt>
      <trkpt lat="45.85255" lon="6.21517">
        <ele>631.20001220703</ele>
        <time>2014-05-14T16:17:33.000Z</time>
      </trkpt>
      <trkpt lat="45.85206" lon="6.21563">
        <ele>627.20001220703</ele>
        <time>2014-05-14T16:17:38.000Z</time>
      </trkpt>
      <trkpt lat="45.85182" lon="6.21598">
        <ele>627.79998779297</ele>
        <time>2014-05-14T16:17:42.000Z</time>
      </trkpt>
      <trkpt lat="45.85177" lon="6.21605">
        <ele>627.79998779297</ele>
        <time>2014-05-14T16:17:43.000Z</time>
      </trkpt>
      <trkpt lat="45.8516" lon="6.21614">
        <ele>625</ele>
        <time>2014-05-14T16:17:47.000Z</time>
      </trkpt>
      <trkpt lat="45.85147" lon="6.2162">
        <ele>622.79998779297</ele>
        <time>2014-05-14T16:17:51.000Z</time>
      </trkpt>
      <trkpt lat="45.85145" lon="6.21624">
        <ele>623</ele>
        <time>2014-05-14T16:17:52.000Z</time>
      </trkpt>
      <trkpt lat="45.85123" lon="6.21659">
        <ele>625.59997558594</ele>
        <time>2014-05-14T16:18:01.000Z</time>
      </trkpt>
      <trkpt lat="45.85108" lon="6.21686">
        <ele>629.79998779297</ele>
        <time>2014-05-14T16:18:07.000Z</time>
      </trkpt>
      <trkpt lat="45.85084" lon="6.21728">
        <ele>634.40002441406</ele>
        <time>2014-05-14T16:18:16.000Z</time>
      </trkpt>
      <trkpt lat="45.85075" lon="6.21741">
        <ele>637.59997558594</ele>
        <time>2014-05-14T16:18:19.000Z</time>
      </trkpt>
      <trkpt lat="45.85057" lon="6.2177">
        <ele>642.59997558594</ele>
        <time>2014-05-14T16:18:26.000Z</time>
      </trkpt>
      <trkpt lat="45.85039" lon="6.21793">
        <ele>647.59997558594</ele>
        <time>2014-05-14T16:18:33.000Z</time>
      </trkpt>
      <trkpt lat="45.8502" lon="6.2181">
        <ele>648.40002441406</ele>
        <time>2014-05-14T16:18:40.000Z</time>
      </trkpt>
      <trkpt lat="45.84994" lon="6.21834">
        <ele>650.59997558594</ele>
        <time>2014-05-14T16:18:48.000Z</time>
      </trkpt>
      <trkpt lat="45.84963" lon="6.21859">
        <ele>653.20001220703</ele>
        <time>2014-05-14T16:18:58.000Z</time>
      </trkpt>
      <trkpt lat="45.84932" lon="6.21878">
        <ele>653.20001220703</ele>
        <time>2014-05-14T16:19:08.000Z</time>
      </trkpt>
      <trkpt lat="45.84917" lon="6.2189">
        <ele>654.40002441406</ele>
        <time>2014-05-14T16:19:13.000Z</time>
      </trkpt>
      <trkpt lat="45.84899" lon="6.21904">
        <ele>655</ele>
        <time>2014-05-14T16:19:19.000Z</time>
      </trkpt>
      <trkpt lat="45.84876" lon="6.2192">
        <ele>657.59997558594</ele>
        <time>2014-05-14T16:19:26.000Z</time>
      </trkpt>
      <trkpt lat="45.84859" lon="6.21933">
        <ele>660.20001220703</ele>
        <time>2014-05-14T16:19:31.000Z</time>
      </trkpt>
      <trkpt lat="45.84841" lon="6.21945">
        <ele>662.79998779297</ele>
        <time>2014-05-14T16:19:37.000Z</time>
      </trkpt>
      <trkpt lat="45.84825" lon="6.21952">
        <ele>664</ele>
        <time>2014-05-14T16:19:43.000Z</time>
      </trkpt>
      <trkpt lat="45.84809" lon="6.21958">
        <ele>664.79998779297</ele>
        <time>2014-05-14T16:19:48.000Z</time>
      </trkpt>
      <trkpt lat="45.84791" lon="6.21963">
        <ele>665.59997558594</ele>
        <time>2014-05-14T16:19:53.000Z</time>
      </trkpt>
      <trkpt lat="45.8477" lon="6.21966">
        <ele>665.40002441406</ele>
        <time>2014-05-14T16:19:58.000Z</time>
      </trkpt>
      <trkpt lat="45.84759" lon="6.2196">
        <ele>662.59997558594</ele>
        <time>2014-05-14T16:20:02.000Z</time>
      </trkpt>
      <trkpt lat="45.84741" lon="6.21961">
        <ele>661.79998779297</ele>
        <time>2014-05-14T16:20:07.000Z</time>
      </trkpt>
      <trkpt lat="45.84718" lon="6.2197">
        <ele>663.20001220703</ele>
        <time>2014-05-14T16:20:14.000Z</time>
      </trkpt>
      <trkpt lat="45.84702" lon="6.21983">
        <ele>667.59997558594</ele>
        <time>2014-05-14T16:20:19.000Z</time>
      </trkpt>
      <trkpt lat="45.84671" lon="6.22012">
        <ele>680</ele>
        <time>2014-05-14T16:20:30.000Z</time>
      </trkpt>
      <trkpt lat="45.84658" lon="6.22025">
        <ele>681.20001220703</ele>
        <time>2014-05-14T16:20:35.000Z</time>
      </trkpt>
      <trkpt lat="45.84654" lon="6.22032">
        <ele>682.20001220703</ele>
        <time>2014-05-14T16:20:39.000Z</time>
      </trkpt>
      <trkpt lat="45.84602" lon="6.22096">
        <ele>694.20001220703</ele>
        <time>2014-05-14T16:20:55.000Z</time>
      </trkpt>
      <trkpt lat="45.84585" lon="6.22102">
        <ele>691.20001220703</ele>
        <time>2014-05-14T16:20:59.000Z</time>
      </trkpt>
      <trkpt lat="45.84556" lon="6.22116">
        <ele>684.59997558594</ele>
        <time>2014-05-14T16:21:09.000Z</time>
      </trkpt>
      <trkpt lat="45.84533" lon="6.22116">
        <ele>682.59997558594</ele>
        <time>2014-05-14T16:21:16.000Z</time>
      </trkpt>
      <trkpt lat="45.8451" lon="6.22114">
        <ele>682.79998779297</ele>
        <time>2014-05-14T16:21:22.000Z</time>
      </trkpt>
      <trkpt lat="45.84483" lon="6.2211">
        <ele>683.20001220703</ele>
        <time>2014-05-14T16:21:29.000Z</time>
      </trkpt>
      <trkpt lat="45.84462" lon="6.22104">
        <ele>681.40002441406</ele>
        <time>2014-05-14T16:21:35.000Z</time>
      </trkpt>
      <trkpt lat="45.84439" lon="6.221">
        <ele>680.20001220703</ele>
        <time>2014-05-14T16:21:41.000Z</time>
      </trkpt>
      <trkpt lat="45.84405" lon="6.22103">
        <ele>685</ele>
        <time>2014-05-14T16:21:50.000Z</time>
      </trkpt>
      <trkpt lat="45.84393" lon="6.22104">
        <ele>686.59997558594</ele>
        <time>2014-05-14T16:21:55.000Z</time>
      </trkpt>
      <trkpt lat="45.84374" lon="6.22107">
        <ele>689.40002441406</ele>
        <time>2014-05-14T16:22:00.000Z</time>
      </trkpt>
      <trkpt lat="45.8435" lon="6.22114">
        <ele>694</ele>
        <time>2014-05-14T16:22:06.000Z</time>
      </trkpt>
      <trkpt lat="45.8432" lon="6.22125">
        <ele>698.40002441406</ele>
        <time>2014-05-14T16:22:14.000Z</time>
      </trkpt>
      <trkpt lat="45.84298" lon="6.22133">
        <ele>700.59997558594</ele>
        <time>2014-05-14T16:22:21.000Z</time>
      </trkpt>
      <trkpt lat="45.84272" lon="6.22147">
        <ele>702</ele>
        <time>2014-05-14T16:22:29.000Z</time>
      </trkpt>
      <trkpt lat="45.8425" lon="6.22166">
        <ele>706.20001220703</ele>
        <time>2014-05-14T16:22:37.000Z</time>
      </trkpt>
      <trkpt lat="45.84212" lon="6.22199">
        <ele>705.20001220703</ele>
        <time>2014-05-14T16:22:49.000Z</time>
      </trkpt>
      <trkpt lat="45.84199" lon="6.22219">
        <ele>705.79998779297</ele>
        <time>2014-05-14T16:22:54.000Z</time>
      </trkpt>
      <trkpt lat="45.8419" lon="6.22255">
        <ele>707.20001220703</ele>
        <time>2014-05-14T16:23:01.000Z</time>
      </trkpt>
      <trkpt lat="45.84186" lon="6.22292">
        <ele>712.79998779297</ele>
        <time>2014-05-14T16:23:07.000Z</time>
      </trkpt>
      <trkpt lat="45.84183" lon="6.2232">
        <ele>717.40002441406</ele>
        <time>2014-05-14T16:23:11.000Z</time>
      </trkpt>
      <trkpt lat="45.84168" lon="6.22351">
        <ele>711.40002441406</ele>
        <time>2014-05-14T16:23:16.000Z</time>
      </trkpt>
      <trkpt lat="45.84165" lon="6.22356">
        <ele>711</ele>
        <time>2014-05-14T16:23:17.000Z</time>
      </trkpt>
      <trkpt lat="45.84156" lon="6.22383">
        <ele>710</ele>
        <time>2014-05-14T16:23:21.000Z</time>
      </trkpt>
      <trkpt lat="45.84162" lon="6.22413">
        <ele>710.59997558594</ele>
        <time>2014-05-14T16:23:25.000Z</time>
      </trkpt>
      <trkpt lat="45.84176" lon="6.22448">
        <ele>712.40002441406</ele>
        <time>2014-05-14T16:23:30.000Z</time>
      </trkpt>
      <trkpt lat="45.84182" lon="6.22486">
        <ele>713</ele>
        <time>2014-05-14T16:23:35.000Z</time>
      </trkpt>
      <trkpt lat="45.84183" lon="6.22501">
        <ele>713</ele>
        <time>2014-05-14T16:23:37.000Z</time>
      </trkpt>
      <trkpt lat="45.84192" lon="6.22527">
        <ele>714</ele>
        <time>2014-05-14T16:23:41.000Z</time>
      </trkpt>
      <trkpt lat="45.84198" lon="6.2254">
        <ele>715</ele>
        <time>2014-05-14T16:23:43.000Z</time>
      </trkpt>
      <trkpt lat="45.84205" lon="6.22568">
        <ele>717</ele>
        <time>2014-05-14T16:23:47.000Z</time>
      </trkpt>
      <trkpt lat="45.84202" lon="6.22595">
        <ele>717.40002441406</ele>
        <time>2014-05-14T16:23:51.000Z</time>
      </trkpt>
      <trkpt lat="45.8419" lon="6.22603">
        <ele>716</ele>
        <time>2014-05-14T16:23:54.000Z</time>
      </trkpt>
      <trkpt lat="45.84177" lon="6.22599">
        <ele>714.40002441406</ele>
        <time>2014-05-14T16:23:57.000Z</time>
      </trkpt>
      <trkpt lat="45.84171" lon="6.22588">
        <ele>713.40002441406</ele>
        <time>2014-05-14T16:23:59.000Z</time>
      </trkpt>
      <trkpt lat="45.84143" lon="6.22547">
        <ele>708.79998779297</ele>
        <time>2014-05-14T16:24:08.000Z</time>
      </trkpt>
      <trkpt lat="45.84109" lon="6.22505">
        <ele>707.40002441406</ele>
        <time>2014-05-14T16:24:18.000Z</time>
      </trkpt>
      <trkpt lat="45.8409" lon="6.2249">
        <ele>707.40002441406</ele>
        <time>2014-05-14T16:24:23.000Z</time>
      </trkpt>
      <trkpt lat="45.84057" lon="6.22481">
        <ele>708</ele>
        <time>2014-05-14T16:24:31.000Z</time>
      </trkpt>
      <trkpt lat="45.8403" lon="6.2248">
        <ele>711</ele>
        <time>2014-05-14T16:24:38.000Z</time>
      </trkpt>
      <trkpt lat="45.83993" lon="6.22482">
        <ele>715</ele>
        <time>2014-05-14T16:24:47.000Z</time>
      </trkpt>
      <trkpt lat="45.83959" lon="6.22482">
        <ele>717.40002441406</ele>
        <time>2014-05-14T16:24:56.000Z</time>
      </trkpt>
      <trkpt lat="45.83932" lon="6.2248">
        <ele>718</ele>
        <time>2014-05-14T16:25:04.000Z</time>
      </trkpt>
      <trkpt lat="45.83908" lon="6.22482">
        <ele>718.59997558594</ele>
        <time>2014-05-14T16:25:11.000Z</time>
      </trkpt>
      <trkpt lat="45.83882" lon="6.22495">
        <ele>721.20001220703</ele>
        <time>2014-05-14T16:25:19.000Z</time>
      </trkpt>
      <trkpt lat="45.83857" lon="6.22523">
        <ele>726</ele>
        <time>2014-05-14T16:25:28.000Z</time>
      </trkpt>
      <trkpt lat="45.83841" lon="6.22556">
        <ele>728.40002441406</ele>
        <time>2014-05-14T16:25:36.000Z</time>
      </trkpt>
      <trkpt lat="45.83833" lon="6.22585">
        <ele>730.40002441406</ele>
        <time>2014-05-14T16:25:42.000Z</time>
      </trkpt>
      <trkpt lat="45.83829" lon="6.22629">
        <ele>731</ele>
        <time>2014-05-14T16:25:50.000Z</time>
      </trkpt>
      <trkpt lat="45.83826" lon="6.2267">
        <ele>732.20001220703</ele>
        <time>2014-05-14T16:25:57.000Z</time>
      </trkpt>
      <trkpt lat="45.83822" lon="6.22713">
        <ele>732</ele>
        <time>2014-05-14T16:26:04.000Z</time>
      </trkpt>
      <trkpt lat="45.83818" lon="6.22758">
        <ele>733.20001220703</ele>
        <time>2014-05-14T16:26:10.000Z</time>
      </trkpt>
      <trkpt lat="45.83813" lon="6.22826">
        <ele>735.79998779297</ele>
        <time>2014-05-14T16:26:19.000Z</time>
      </trkpt>
      <trkpt lat="45.83809" lon="6.22874">
        <ele>736.79998779297</ele>
        <time>2014-05-14T16:26:26.000Z</time>
      </trkpt>
      <trkpt lat="45.83806" lon="6.22921">
        <ele>738.59997558594</ele>
        <time>2014-05-14T16:26:34.000Z</time>
      </trkpt>
      <trkpt lat="45.83801" lon="6.22971">
        <ele>741.40002441406</ele>
        <time>2014-05-14T16:26:43.000Z</time>
      </trkpt>
      <trkpt lat="45.8379" lon="6.23002">
        <ele>743</ele>
        <time>2014-05-14T16:26:49.000Z</time>
      </trkpt>
      <trkpt lat="45.8377" lon="6.23053">
        <ele>746</ele>
        <time>2014-05-14T16:26:59.000Z</time>
      </trkpt>
      <trkpt lat="45.83747" lon="6.23101">
        <ele>748.79998779297</ele>
        <time>2014-05-14T16:27:07.000Z</time>
      </trkpt>
      <trkpt lat="45.83718" lon="6.23162">
        <ele>748.79998779297</ele>
        <time>2014-05-14T16:27:16.000Z</time>
      </trkpt>
      <trkpt lat="45.83701" lon="6.23197">
        <ele>749.40002441406</ele>
        <time>2014-05-14T16:27:21.000Z</time>
      </trkpt>
      <trkpt lat="45.83675" lon="6.23218">
        <ele>750.40002441406</ele>
        <time>2014-05-14T16:27:26.000Z</time>
      </trkpt>
      <trkpt lat="45.8364" lon="6.23225">
        <ele>749.59997558594</ele>
        <time>2014-05-14T16:27:32.000Z</time>
      </trkpt>
      <trkpt lat="45.83616" lon="6.23228">
        <ele>750</ele>
        <time>2014-05-14T16:27:38.000Z</time>
      </trkpt>
      <trkpt lat="45.83583" lon="6.23236">
        <ele>750.79998779297</ele>
        <time>2014-05-14T16:27:47.000Z</time>
      </trkpt>
      <trkpt lat="45.83563" lon="6.2325">
        <ele>753.20001220703</ele>
        <time>2014-05-14T16:27:53.000Z</time>
      </trkpt>
      <trkpt lat="45.83541" lon="6.23275">
        <ele>757</ele>
        <time>2014-05-14T16:28:01.000Z</time>
      </trkpt>
      <trkpt lat="45.83521" lon="6.23296">
        <ele>758.79998779297</ele>
        <time>2014-05-14T16:28:08.000Z</time>
      </trkpt>
      <trkpt lat="45.83502" lon="6.2332">
        <ele>759.59997558594</ele>
        <time>2014-05-14T16:28:15.000Z</time>
      </trkpt>
      <trkpt lat="45.83482" lon="6.23355">
        <ele>762</ele>
        <time>2014-05-14T16:28:24.000Z</time>
      </trkpt>
      <trkpt lat="45.83462" lon="6.23397">
        <ele>764.40002441406</ele>
        <time>2014-05-14T16:28:34.000Z</time>
      </trkpt>
      <trkpt lat="45.83451" lon="6.23438">
        <ele>765.79998779297</ele>
        <time>2014-05-14T16:28:43.000Z</time>
      </trkpt>
      <trkpt lat="45.8344" lon="6.23485">
        <ele>769.59997558594</ele>
        <time>2014-05-14T16:28:53.000Z</time>
      </trkpt>
      <trkpt lat="45.8343" lon="6.23522">
        <ele>772</ele>
        <time>2014-05-14T16:29:01.000Z</time>
      </trkpt>
      <trkpt lat="45.83419" lon="6.23564">
        <ele>772.79998779297</ele>
        <time>2014-05-14T16:29:10.000Z</time>
      </trkpt>
      <trkpt lat="45.8341" lon="6.23608">
        <ele>774</ele>
        <time>2014-05-14T16:29:20.000Z</time>
      </trkpt>
      <trkpt lat="45.83399" lon="6.23654">
        <ele>775</ele>
        <time>2014-05-14T16:29:30.000Z</time>
      </trkpt>
      <trkpt lat="45.83385" lon="6.2371">
        <ele>777</ele>
        <time>2014-05-14T16:29:42.000Z</time>
      </trkpt>
      <trkpt lat="45.83375" lon="6.23753">
        <ele>778.79998779297</ele>
        <time>2014-05-14T16:29:51.000Z</time>
      </trkpt>
      <trkpt lat="45.83362" lon="6.23802">
        <ele>781.20001220703</ele>
        <time>2014-05-14T16:30:01.000Z</time>
      </trkpt>
      <trkpt lat="45.83351" lon="6.23854">
        <ele>784</ele>
        <time>2014-05-14T16:30:11.000Z</time>
      </trkpt>
      <trkpt lat="45.83343" lon="6.23891">
        <ele>784</ele>
        <time>2014-05-14T16:30:18.000Z</time>
      </trkpt>
      <trkpt lat="45.83337" lon="6.23937">
        <ele>785.59997558594</ele>
        <time>2014-05-14T16:30:25.000Z</time>
      </trkpt>
      <trkpt lat="45.8333" lon="6.23985">
        <ele>787.20001220703</ele>
        <time>2014-05-14T16:30:31.000Z</time>
      </trkpt>
      <trkpt lat="45.83324" lon="6.24024">
        <ele>790</ele>
        <time>2014-05-14T16:30:36.000Z</time>
      </trkpt>
      <trkpt lat="45.83316" lon="6.24055">
        <ele>792</ele>
        <time>2014-05-14T16:30:40.000Z</time>
      </trkpt>
      <trkpt lat="45.83304" lon="6.24087">
        <ele>792.79998779297</ele>
        <time>2014-05-14T16:30:45.000Z</time>
      </trkpt>
      <trkpt lat="45.8329" lon="6.24111">
        <ele>794.40002441406</ele>
        <time>2014-05-14T16:30:49.000Z</time>
      </trkpt>
      <trkpt lat="45.83261" lon="6.24135">
        <ele>796</ele>
        <time>2014-05-14T16:30:54.000Z</time>
      </trkpt>
      <trkpt lat="45.83247" lon="6.24124">
        <ele>795.20001220703</ele>
        <time>2014-05-14T16:30:57.000Z</time>
      </trkpt>
      <trkpt lat="45.83245" lon="6.24102">
        <ele>793.40002441406</ele>
        <time>2014-05-14T16:31:00.000Z</time>
      </trkpt>
      <trkpt lat="45.8325" lon="6.2406">
        <ele>790</ele>
        <time>2014-05-14T16:31:06.000Z</time>
      </trkpt>
      <trkpt lat="45.83249" lon="6.24047">
        <ele>788.79998779297</ele>
        <time>2014-05-14T16:31:08.000Z</time>
      </trkpt>
      <trkpt lat="45.83245" lon="6.24031">
        <ele>787</ele>
        <time>2014-05-14T16:31:11.000Z</time>
      </trkpt>
      <trkpt lat="45.83231" lon="6.23996">
        <ele>783</ele>
        <time>2014-05-14T16:31:19.000Z</time>
      </trkpt>
      <trkpt lat="45.83219" lon="6.23967">
        <ele>780.59997558594</ele>
        <time>2014-05-14T16:31:25.000Z</time>
      </trkpt>
      <trkpt lat="45.83205" lon="6.23942">
        <ele>781.59997558594</ele>
        <time>2014-05-14T16:31:31.000Z</time>
      </trkpt>
      <trkpt lat="45.83191" lon="6.23919">
        <ele>782.79998779297</ele>
        <time>2014-05-14T16:31:37.000Z</time>
      </trkpt>
      <trkpt lat="45.83175" lon="6.23906">
        <ele>785.40002441406</ele>
        <time>2014-05-14T16:31:43.000Z</time>
      </trkpt>
      <trkpt lat="45.83162" lon="6.23903">
        <ele>788.59997558594</ele>
        <time>2014-05-14T16:31:47.000Z</time>
      </trkpt>
      <trkpt lat="45.83143" lon="6.23897">
        <ele>793</ele>
        <time>2014-05-14T16:31:54.000Z</time>
      </trkpt>
      <trkpt lat="45.83122" lon="6.23892">
        <ele>796.79998779297</ele>
        <time>2014-05-14T16:32:02.000Z</time>
      </trkpt>
      <trkpt lat="45.83093" lon="6.23887">
        <ele>801.79998779297</ele>
        <time>2014-05-14T16:32:13.000Z</time>
      </trkpt>
      <trkpt lat="45.83073" lon="6.23886">
        <ele>805.20001220703</ele>
        <time>2014-05-14T16:32:20.000Z</time>
      </trkpt>
      <trkpt lat="45.83047" lon="6.23878">
        <ele>808.79998779297</ele>
        <time>2014-05-14T16:32:29.000Z</time>
      </trkpt>
      <trkpt lat="45.83025" lon="6.23866">
        <ele>811.40002441406</ele>
        <time>2014-05-14T16:32:38.000Z</time>
      </trkpt>
      <trkpt lat="45.83002" lon="6.23851">
        <ele>814.20001220703</ele>
        <time>2014-05-14T16:32:47.000Z</time>
      </trkpt>
      <trkpt lat="45.82985" lon="6.23836">
        <ele>815.79998779297</ele>
        <time>2014-05-14T16:32:54.000Z</time>
      </trkpt>
      <trkpt lat="45.8297" lon="6.23822">
        <ele>816.59997558594</ele>
        <time>2014-05-14T16:33:00.000Z</time>
      </trkpt>
      <trkpt lat="45.82948" lon="6.23803">
        <ele>817</ele>
        <time>2014-05-14T16:33:09.000Z</time>
      </trkpt>
      <trkpt lat="45.8293" lon="6.23796">
        <ele>818.20001220703</ele>
        <time>2014-05-14T16:33:15.000Z</time>
      </trkpt>
      <trkpt lat="45.8291" lon="6.23796">
        <ele>821.20001220703</ele>
        <time>2014-05-14T16:33:22.000Z</time>
      </trkpt>
      <trkpt lat="45.82884" lon="6.238">
        <ele>825</ele>
        <time>2014-05-14T16:33:31.000Z</time>
      </trkpt>
      <trkpt lat="45.8286" lon="6.23805">
        <ele>828</ele>
        <time>2014-05-14T16:33:39.000Z</time>
      </trkpt>
      <trkpt lat="45.82844" lon="6.2381">
        <ele>830.79998779297</ele>
        <time>2014-05-14T16:33:45.000Z</time>
      </trkpt>
      <trkpt lat="45.82821" lon="6.23821">
        <ele>835</ele>
        <time>2014-05-14T16:33:53.000Z</time>
      </trkpt>
      <trkpt lat="45.82794" lon="6.23833">
        <ele>840.20001220703</ele>
        <time>2014-05-14T16:34:02.000Z</time>
      </trkpt>
      <trkpt lat="45.82767" lon="6.23847">
        <ele>844.40002441406</ele>
        <time>2014-05-14T16:34:11.000Z</time>
      </trkpt>
      <trkpt lat="45.82742" lon="6.23858">
        <ele>847.79998779297</ele>
        <time>2014-05-14T16:34:19.000Z</time>
      </trkpt>
      <trkpt lat="45.82722" lon="6.23864">
        <ele>849.79998779297</ele>
        <time>2014-05-14T16:34:25.000Z</time>
      </trkpt>
      <trkpt lat="45.827" lon="6.23862">
        <ele>850.20001220703</ele>
        <time>2014-05-14T16:34:31.000Z</time>
      </trkpt>
      <trkpt lat="45.82678" lon="6.2385">
        <ele>848.20001220703</ele>
        <time>2014-05-14T16:34:37.000Z</time>
      </trkpt>
      <trkpt lat="45.82671" lon="6.23843">
        <ele>846.79998779297</ele>
        <time>2014-05-14T16:34:39.000Z</time>
      </trkpt>
      <trkpt lat="45.82652" lon="6.23813">
        <ele>840.59997558594</ele>
        <time>2014-05-14T16:34:46.000Z</time>
      </trkpt>
      <trkpt lat="45.82625" lon="6.23782">
        <ele>840.59997558594</ele>
        <time>2014-05-14T16:34:54.000Z</time>
      </trkpt>
      <trkpt lat="45.82592" lon="6.23754">
        <ele>842.40002441406</ele>
        <time>2014-05-14T16:35:03.000Z</time>
      </trkpt>
      <trkpt lat="45.82586" lon="6.23748">
        <ele>842.79998779297</ele>
        <time>2014-05-14T16:35:05.000Z</time>
      </trkpt>
      <trkpt lat="45.82561" lon="6.23731">
        <ele>844.59997558594</ele>
        <time>2014-05-14T16:35:12.000Z</time>
      </trkpt>
      <trkpt lat="45.82542" lon="6.23723">
        <ele>846</ele>
        <time>2014-05-14T16:35:18.000Z</time>
      </trkpt>
      <trkpt lat="45.82526" lon="6.23721">
        <ele>848.20001220703</ele>
        <time>2014-05-14T16:35:23.000Z</time>
      </trkpt>
      <trkpt lat="45.82508" lon="6.23714">
        <ele>849.79998779297</ele>
        <time>2014-05-14T16:35:30.000Z</time>
      </trkpt>
      <trkpt lat="45.82495" lon="6.23714">
        <ele>852</ele>
        <time>2014-05-14T16:35:35.000Z</time>
      </trkpt>
      <trkpt lat="45.82481" lon="6.23713">
        <ele>854</ele>
        <time>2014-05-14T16:35:40.000Z</time>
      </trkpt>
      <trkpt lat="45.82466" lon="6.23715">
        <ele>857.20001220703</ele>
        <time>2014-05-14T16:35:46.000Z</time>
      </trkpt>
      <trkpt lat="45.82453" lon="6.23714">
        <ele>860.20001220703</ele>
        <time>2014-05-14T16:35:51.000Z</time>
      </trkpt>
      <trkpt lat="45.82437" lon="6.23719">
        <ele>863.59997558594</ele>
        <time>2014-05-14T16:35:58.000Z</time>
      </trkpt>
      <trkpt lat="45.82426" lon="6.23719">
        <ele>865.40002441406</ele>
        <time>2014-05-14T16:36:03.000Z</time>
      </trkpt>
      <trkpt lat="45.82414" lon="6.23718">
        <ele>867.59997558594</ele>
        <time>2014-05-14T16:36:09.000Z</time>
      </trkpt>
      <trkpt lat="45.82402" lon="6.2372">
        <ele>869.79998779297</ele>
        <time>2014-05-14T16:36:14.000Z</time>
      </trkpt>
      <trkpt lat="45.82391" lon="6.23718">
        <ele>871.79998779297</ele>
        <time>2014-05-14T16:36:20.000Z</time>
      </trkpt>
      <trkpt lat="45.82377" lon="6.2371">
        <ele>874</ele>
        <time>2014-05-14T16:36:27.000Z</time>
      </trkpt>
      <trkpt lat="45.82364" lon="6.23711">
        <ele>876.40002441406</ele>
        <time>2014-05-14T16:36:32.000Z</time>
      </trkpt>
      <trkpt lat="45.82357" lon="6.23713">
        <ele>877.20001220703</ele>
        <time>2014-05-14T16:36:35.000Z</time>
      </trkpt>
      <trkpt lat="45.8234" lon="6.2371">
        <ele>879.40002441406</ele>
        <time>2014-05-14T16:36:42.000Z</time>
      </trkpt>
      <trkpt lat="45.82326" lon="6.23705">
        <ele>881.20001220703</ele>
        <time>2014-05-14T16:36:49.000Z</time>
      </trkpt>
      <trkpt lat="45.82322" lon="6.23695">
        <ele>881.79998779297</ele>
        <time>2014-05-14T16:36:54.000Z</time>
      </trkpt>
      <trkpt lat="45.82322" lon="6.23702">
        <ele>881.59997558594</ele>
        <time>2014-05-14T16:37:21.000Z</time>
      </trkpt>
      <trkpt lat="45.82321" lon="6.23704">
        <ele>881.79998779297</ele>
        <time>2014-05-14T16:37:25.000Z</time>
      </trkpt>
      <trkpt lat="45.82316" lon="6.23714">
        <ele>882.20001220703</ele>
        <time>2014-05-14T16:37:30.000Z</time>
      </trkpt>
      <trkpt lat="45.82305" lon="6.23716">
        <ele>883.40002441406</ele>
        <time>2014-05-14T16:37:38.000Z</time>
      </trkpt>
      <trkpt lat="45.82292" lon="6.23715">
        <ele>883.79998779297</ele>
        <time>2014-05-14T16:37:43.000Z</time>
      </trkpt>
      <trkpt lat="45.82276" lon="6.23723">
        <ele>884.40002441406</ele>
        <time>2014-05-14T16:37:50.000Z</time>
      </trkpt>
      <trkpt lat="45.82263" lon="6.23734">
        <ele>885.79998779297</ele>
        <time>2014-05-14T16:37:56.000Z</time>
      </trkpt>
      <trkpt lat="45.82247" lon="6.2375">
        <ele>888.79998779297</ele>
        <time>2014-05-14T16:38:03.000Z</time>
      </trkpt>
      <trkpt lat="45.82229" lon="6.23767">
        <ele>892.79998779297</ele>
        <time>2014-05-14T16:38:11.000Z</time>
      </trkpt>
      <trkpt lat="45.82209" lon="6.23788">
        <ele>896.40002441406</ele>
        <time>2014-05-14T16:38:20.000Z</time>
      </trkpt>
      <trkpt lat="45.82192" lon="6.23806">
        <ele>898.59997558594</ele>
        <time>2014-05-14T16:38:28.000Z</time>
      </trkpt>
      <trkpt lat="45.82179" lon="6.23819">
        <ele>899.79998779297</ele>
        <time>2014-05-14T16:38:35.000Z</time>
      </trkpt>
      <trkpt lat="45.82168" lon="6.23832">
        <ele>901</ele>
        <time>2014-05-14T16:38:41.000Z</time>
      </trkpt>
      <trkpt lat="45.82161" lon="6.23842">
        <ele>902.59997558594</ele>
        <time>2014-05-14T16:38:46.000Z</time>
      </trkpt>
      <trkpt lat="45.8215" lon="6.23858">
        <ele>905.59997558594</ele>
        <time>2014-05-14T16:38:52.000Z</time>
      </trkpt>
      <trkpt lat="45.82138" lon="6.23879">
        <ele>909.79998779297</ele>
        <time>2014-05-14T16:38:59.000Z</time>
      </trkpt>
      <trkpt lat="45.82125" lon="6.23903">
        <ele>913.20001220703</ele>
        <time>2014-05-14T16:39:07.000Z</time>
      </trkpt>
      <trkpt lat="45.82116" lon="6.2392">
        <ele>915.79998779297</ele>
        <time>2014-05-14T16:39:13.000Z</time>
      </trkpt>
      <trkpt lat="45.82105" lon="6.2393">
        <ele>916.79998779297</ele>
        <time>2014-05-14T16:39:18.000Z</time>
      </trkpt>
      <trkpt lat="45.82087" lon="6.23944">
        <ele>917.79998779297</ele>
        <time>2014-05-14T16:39:24.000Z</time>
      </trkpt>
      <trkpt lat="45.82078" lon="6.23965">
        <ele>920.59997558594</ele>
        <time>2014-05-14T16:39:29.000Z</time>
      </trkpt>
      <trkpt lat="45.82081" lon="6.23984">
        <ele>925.20001220703</ele>
        <time>2014-05-14T16:39:33.000Z</time>
      </trkpt>
      <trkpt lat="45.82097" lon="6.2399">
        <ele>929</ele>
        <time>2014-05-14T16:39:38.000Z</time>
      </trkpt>
      <trkpt lat="45.82114" lon="6.23991">
        <ele>931</ele>
        <time>2014-05-14T16:39:44.000Z</time>
      </trkpt>
      <trkpt lat="45.82126" lon="6.23994">
        <ele>933</ele>
        <time>2014-05-14T16:39:48.000Z</time>
      </trkpt>
      <trkpt lat="45.82145" lon="6.23993">
        <ele>933.20001220703</ele>
        <time>2014-05-14T16:39:54.000Z</time>
      </trkpt>
      <trkpt lat="45.82164" lon="6.23997">
        <ele>933.20001220703</ele>
        <time>2014-05-14T16:40:00.000Z</time>
      </trkpt>
      <trkpt lat="45.82181" lon="6.24003">
        <ele>934.20001220703</ele>
        <time>2014-05-14T16:40:06.000Z</time>
      </trkpt>
      <trkpt lat="45.82191" lon="6.24005">
        <ele>934.20001220703</ele>
        <time>2014-05-14T16:40:10.000Z</time>
      </trkpt>
      <trkpt lat="45.82201" lon="6.24013">
        <ele>936.20001220703</ele>
        <time>2014-05-14T16:40:16.000Z</time>
      </trkpt>
      <trkpt lat="45.82211" lon="6.24022">
        <ele>938.40002441406</ele>
        <time>2014-05-14T16:40:23.000Z</time>
      </trkpt>
      <trkpt lat="45.82224" lon="6.24029">
        <ele>939.79998779297</ele>
        <time>2014-05-14T16:40:29.000Z</time>
      </trkpt>
      <trkpt lat="45.82244" lon="6.24045">
        <ele>941.59997558594</ele>
        <time>2014-05-14T16:40:38.000Z</time>
      </trkpt>
      <trkpt lat="45.82253" lon="6.24056">
        <ele>943.59997558594</ele>
        <time>2014-05-14T16:40:43.000Z</time>
      </trkpt>
      <trkpt lat="45.82264" lon="6.24067">
        <ele>945.40002441406</ele>
        <time>2014-05-14T16:40:49.000Z</time>
      </trkpt>
      <trkpt lat="45.82277" lon="6.24082">
        <ele>947.59997558594</ele>
        <time>2014-05-14T16:40:56.000Z</time>
      </trkpt>
      <trkpt lat="45.82288" lon="6.24095">
        <ele>950</ele>
        <time>2014-05-14T16:41:02.000Z</time>
      </trkpt>
      <trkpt lat="45.82297" lon="6.24109">
        <ele>952.59997558594</ele>
        <time>2014-05-14T16:41:08.000Z</time>
      </trkpt>
      <trkpt lat="45.82308" lon="6.24121">
        <ele>954.40002441406</ele>
        <time>2014-05-14T16:41:14.000Z</time>
      </trkpt>
      <trkpt lat="45.82317" lon="6.24131">
        <ele>954.79998779297</ele>
        <time>2014-05-14T16:41:19.000Z</time>
      </trkpt>
      <trkpt lat="45.82328" lon="6.24139">
        <ele>954.20001220703</ele>
        <time>2014-05-14T16:41:24.000Z</time>
      </trkpt>
      <trkpt lat="45.82345" lon="6.24143">
        <ele>950.79998779297</ele>
        <time>2014-05-14T16:41:29.000Z</time>
      </trkpt>
      <trkpt lat="45.82361" lon="6.24156">
        <ele>950.79998779297</ele>
        <time>2014-05-14T16:41:35.000Z</time>
      </trkpt>
      <trkpt lat="45.82367" lon="6.2417">
        <ele>954.40002441406</ele>
        <time>2014-05-14T16:41:40.000Z</time>
      </trkpt>
      <trkpt lat="45.82364" lon="6.24176">
        <ele>957.20001220703</ele>
        <time>2014-05-14T16:41:45.000Z</time>
      </trkpt>
      <trkpt lat="45.82349" lon="6.24172">
        <ele>959.59997558594</ele>
        <time>2014-05-14T16:41:51.000Z</time>
      </trkpt>
      <trkpt lat="45.82336" lon="6.24163">
        <ele>960</ele>
        <time>2014-05-14T16:41:57.000Z</time>
      </trkpt>
      <trkpt lat="45.82323" lon="6.24153">
        <ele>959.79998779297</ele>
        <time>2014-05-14T16:42:03.000Z</time>
      </trkpt>
      <trkpt lat="45.82317" lon="6.24151">
        <ele>960.59997558594</ele>
        <time>2014-05-14T16:42:06.000Z</time>
      </trkpt>
      <trkpt lat="45.82309" lon="6.24146">
        <ele>961.40002441406</ele>
        <time>2014-05-14T16:42:10.000Z</time>
      </trkpt>
      <trkpt lat="45.82294" lon="6.24144">
        <ele>964</ele>
        <time>2014-05-14T16:42:15.000Z</time>
      </trkpt>
      <trkpt lat="45.82269" lon="6.24137">
        <ele>967.79998779297</ele>
        <time>2014-05-14T16:42:23.000Z</time>
      </trkpt>
      <trkpt lat="45.82253" lon="6.24132">
        <ele>970</ele>
        <time>2014-05-14T16:42:29.000Z</time>
      </trkpt>
      <trkpt lat="45.82237" lon="6.24133">
        <ele>974.20001220703</ele>
        <time>2014-05-14T16:42:35.000Z</time>
      </trkpt>
      <trkpt lat="45.82224" lon="6.24134">
        <ele>978</ele>
        <time>2014-05-14T16:42:41.000Z</time>
      </trkpt>
      <trkpt lat="45.82211" lon="6.24138">
        <ele>981</ele>
        <time>2014-05-14T16:42:46.000Z</time>
      </trkpt>
      <trkpt lat="45.82199" lon="6.24142">
        <ele>984.40002441406</ele>
        <time>2014-05-14T16:42:51.000Z</time>
      </trkpt>
      <trkpt lat="45.82185" lon="6.24144">
        <ele>987.20001220703</ele>
        <time>2014-05-14T16:42:56.000Z</time>
      </trkpt>
      <trkpt lat="45.82169" lon="6.2415">
        <ele>992.79998779297</ele>
        <time>2014-05-14T16:43:03.000Z</time>
      </trkpt>
      <trkpt lat="45.82153" lon="6.24157">
        <ele>999.40002441406</ele>
        <time>2014-05-14T16:43:08.000Z</time>
      </trkpt>
      <trkpt lat="45.82131" lon="6.24167">
        <ele>1008.4000244141</ele>
        <time>2014-05-14T16:43:15.000Z</time>
      </trkpt>
      <trkpt lat="45.82114" lon="6.24176">
        <ele>1013.200012207</ele>
        <time>2014-05-14T16:43:21.000Z</time>
      </trkpt>
      <trkpt lat="45.82096" lon="6.24177">
        <ele>1012.4000244141</ele>
        <time>2014-05-14T16:43:28.000Z</time>
      </trkpt>
      <trkpt lat="45.82085" lon="6.24181">
        <ele>1014.4000244141</ele>
        <time>2014-05-14T16:43:33.000Z</time>
      </trkpt>
      <trkpt lat="45.82064" lon="6.24186">
        <ele>1015</ele>
        <time>2014-05-14T16:43:42.000Z</time>
      </trkpt>
      <trkpt lat="45.82049" lon="6.24191">
        <ele>1016.799987793</ele>
        <time>2014-05-14T16:43:49.000Z</time>
      </trkpt>
      <trkpt lat="45.82037" lon="6.24198">
        <ele>1020.799987793</ele>
        <time>2014-05-14T16:43:55.000Z</time>
      </trkpt>
      <trkpt lat="45.82026" lon="6.24203">
        <ele>1023</ele>
        <time>2014-05-14T16:44:01.000Z</time>
      </trkpt>
      <trkpt lat="45.82016" lon="6.24207">
        <ele>1023.5999755859</ele>
        <time>2014-05-14T16:44:06.000Z</time>
      </trkpt>
      <trkpt lat="45.82009" lon="6.24208">
        <ele>1023.4000244141</ele>
        <time>2014-05-14T16:44:10.000Z</time>
      </trkpt>
      <trkpt lat="45.81997" lon="6.24215">
        <ele>1025.8000488281</ele>
        <time>2014-05-14T16:44:17.000Z</time>
      </trkpt>
      <trkpt lat="45.81985" lon="6.2422">
        <ele>1026.5999755859</ele>
        <time>2014-05-14T16:44:23.000Z</time>
      </trkpt>
      <trkpt lat="45.81976" lon="6.24225">
        <ele>1028.1999511719</ele>
        <time>2014-05-14T16:44:28.000Z</time>
      </trkpt>
      <trkpt lat="45.81957" lon="6.24233">
        <ele>1029.5999755859</ele>
        <time>2014-05-14T16:44:36.000Z</time>
      </trkpt>
      <trkpt lat="45.81939" lon="6.24235">
        <ele>1028.5999755859</ele>
        <time>2014-05-14T16:44:43.000Z</time>
      </trkpt>
      <trkpt lat="45.81923" lon="6.24236">
        <ele>1026.4000244141</ele>
        <time>2014-05-14T16:44:49.000Z</time>
      </trkpt>
      <trkpt lat="45.81907" lon="6.24244">
        <ele>1028.5999755859</ele>
        <time>2014-05-14T16:44:56.000Z</time>
      </trkpt>
      <trkpt lat="45.81892" lon="6.24256">
        <ele>1031.5999755859</ele>
        <time>2014-05-14T16:45:02.000Z</time>
      </trkpt>
      <trkpt lat="45.81877" lon="6.24274">
        <ele>1038.5999755859</ele>
        <time>2014-05-14T16:45:10.000Z</time>
      </trkpt>
      <trkpt lat="45.81872" lon="6.24293">
        <ele>1048.5999755859</ele>
        <time>2014-05-14T16:45:16.000Z</time>
      </trkpt>
      <trkpt lat="45.81867" lon="6.24309">
        <ele>1055.5999755859</ele>
        <time>2014-05-14T16:45:21.000Z</time>
      </trkpt>
      <trkpt lat="45.81856" lon="6.24322">
        <ele>1060.5999755859</ele>
        <time>2014-05-14T16:45:27.000Z</time>
      </trkpt>
      <trkpt lat="45.81841" lon="6.2432">
        <ele>1055.5999755859</ele>
        <time>2014-05-14T16:45:33.000Z</time>
      </trkpt>
      <trkpt lat="45.8182" lon="6.24325">
        <ele>1053.4000244141</ele>
        <time>2014-05-14T16:45:41.000Z</time>
      </trkpt>
      <trkpt lat="45.818" lon="6.24335">
        <ele>1053.1999511719</ele>
        <time>2014-05-14T16:45:50.000Z</time>
      </trkpt>
      <trkpt lat="45.81783" lon="6.24349">
        <ele>1057.4000244141</ele>
        <time>2014-05-14T16:45:58.000Z</time>
      </trkpt>
      <trkpt lat="45.81768" lon="6.24358">
        <ele>1059.4000244141</ele>
        <time>2014-05-14T16:46:05.000Z</time>
      </trkpt>
      <trkpt lat="45.81755" lon="6.2437">
        <ele>1062.1999511719</ele>
        <time>2014-05-14T16:46:11.000Z</time>
      </trkpt>
      <trkpt lat="45.81739" lon="6.2439">
        <ele>1067.8000488281</ele>
        <time>2014-05-14T16:46:19.000Z</time>
      </trkpt>
      <trkpt lat="45.81719" lon="6.24404">
        <ele>1071.4000244141</ele>
        <time>2014-05-14T16:46:27.000Z</time>
      </trkpt>
      <trkpt lat="45.81706" lon="6.24415">
        <ele>1078.5999755859</ele>
        <time>2014-05-14T16:46:33.000Z</time>
      </trkpt>
      <trkpt lat="45.81693" lon="6.24434">
        <ele>1091.8000488281</ele>
        <time>2014-05-14T16:46:40.000Z</time>
      </trkpt>
      <trkpt lat="45.81676" lon="6.24431">
        <ele>1089.8000488281</ele>
        <time>2014-05-14T16:46:46.000Z</time>
      </trkpt>
      <trkpt lat="45.81669" lon="6.24419">
        <ele>1082.1999511719</ele>
        <time>2014-05-14T16:46:50.000Z</time>
      </trkpt>
      <trkpt lat="45.81657" lon="6.24399">
        <ele>1069.8000488281</ele>
        <time>2014-05-14T16:46:57.000Z</time>
      </trkpt>
      <trkpt lat="45.81636" lon="6.24389">
        <ele>1065.1999511719</ele>
        <time>2014-05-14T16:47:05.000Z</time>
      </trkpt>
      <trkpt lat="45.81625" lon="6.24381">
        <ele>1066.8000488281</ele>
        <time>2014-05-14T16:47:11.000Z</time>
      </trkpt>
      <trkpt lat="45.81615" lon="6.24373">
        <ele>1067.1999511719</ele>
        <time>2014-05-14T16:47:16.000Z</time>
      </trkpt>
      <trkpt lat="45.81604" lon="6.24368">
        <ele>1068.8000488281</ele>
        <time>2014-05-14T16:47:21.000Z</time>
      </trkpt>
      <trkpt lat="45.81589" lon="6.24361">
        <ele>1071.4000244141</ele>
        <time>2014-05-14T16:47:28.000Z</time>
      </trkpt>
      <trkpt lat="45.81581" lon="6.24355">
        <ele>1071.8000488281</ele>
        <time>2014-05-14T16:47:33.000Z</time>
      </trkpt>
      <trkpt lat="45.81572" lon="6.2435">
        <ele>1072.4000244141</ele>
        <time>2014-05-14T16:47:37.000Z</time>
      </trkpt>
      <trkpt lat="45.8156" lon="6.24338">
        <ele>1072.1999511719</ele>
        <time>2014-05-14T16:47:42.000Z</time>
      </trkpt>
      <trkpt lat="45.81549" lon="6.24331">
        <ele>1073</ele>
        <time>2014-05-14T16:47:47.000Z</time>
      </trkpt>
      <trkpt lat="45.81531" lon="6.24323">
        <ele>1075</ele>
        <time>2014-05-14T16:47:54.000Z</time>
      </trkpt>
      <trkpt lat="45.81515" lon="6.24314">
        <ele>1076.5999755859</ele>
        <time>2014-05-14T16:48:01.000Z</time>
      </trkpt>
      <trkpt lat="45.81504" lon="6.24307">
        <ele>1077</ele>
        <time>2014-05-14T16:48:06.000Z</time>
      </trkpt>
      <trkpt lat="45.81493" lon="6.24298">
        <ele>1076.4000244141</ele>
        <time>2014-05-14T16:48:13.000Z</time>
      </trkpt>
      <trkpt lat="45.81476" lon="6.24292">
        <ele>1079</ele>
        <time>2014-05-14T16:48:21.000Z</time>
      </trkpt>
      <trkpt lat="45.81455" lon="6.2428">
        <ele>1081.1999511719</ele>
        <time>2014-05-14T16:48:29.000Z</time>
      </trkpt>
      <trkpt lat="45.81438" lon="6.24271">
        <ele>1083</ele>
        <time>2014-05-14T16:48:36.000Z</time>
      </trkpt>
      <trkpt lat="45.81416" lon="6.2426">
        <ele>1086</ele>
        <time>2014-05-14T16:48:46.000Z</time>
      </trkpt>
      <trkpt lat="45.81398" lon="6.24252">
        <ele>1088.5999755859</ele>
        <time>2014-05-14T16:48:53.000Z</time>
      </trkpt>
      <trkpt lat="45.81378" lon="6.24241">
        <ele>1089.1999511719</ele>
        <time>2014-05-14T16:49:01.000Z</time>
      </trkpt>
      <trkpt lat="45.81362" lon="6.24236">
        <ele>1090.4000244141</ele>
        <time>2014-05-14T16:49:08.000Z</time>
      </trkpt>
      <trkpt lat="45.81344" lon="6.24232">
        <ele>1092.4000244141</ele>
        <time>2014-05-14T16:49:15.000Z</time>
      </trkpt>
      <trkpt lat="45.81324" lon="6.24233">
        <ele>1096.8000488281</ele>
        <time>2014-05-14T16:49:23.000Z</time>
      </trkpt>
      <trkpt lat="45.81305" lon="6.24234">
        <ele>1101.5999755859</ele>
        <time>2014-05-14T16:49:30.000Z</time>
      </trkpt>
      <trkpt lat="45.8129" lon="6.24238">
        <ele>1103.8000488281</ele>
        <time>2014-05-14T16:49:37.000Z</time>
      </trkpt>
      <trkpt lat="45.81281" lon="6.2424">
        <ele>1105.4000244141</ele>
        <time>2014-05-14T16:49:42.000Z</time>
      </trkpt>
      <trkpt lat="45.81272" lon="6.24241">
        <ele>1106.1999511719</ele>
        <time>2014-05-14T16:49:47.000Z</time>
      </trkpt>
      <trkpt lat="45.8127" lon="6.24242">
        <ele>1106.5999755859</ele>
        <time>2014-05-14T16:49:48.000Z</time>
      </trkpt>
      <trkpt lat="45.81256" lon="6.24243">
        <ele>1107.5999755859</ele>
        <time>2014-05-14T16:49:54.000Z</time>
      </trkpt>
      <trkpt lat="45.81249" lon="6.24244">
        <ele>1108</ele>
        <time>2014-05-14T16:49:57.000Z</time>
      </trkpt>
      <trkpt lat="45.81226" lon="6.2425">
        <ele>1115</ele>
        <time>2014-05-14T16:50:05.000Z</time>
      </trkpt>
      <trkpt lat="45.81209" lon="6.24252">
        <ele>1115.8000488281</ele>
        <time>2014-05-14T16:50:13.000Z</time>
      </trkpt>
      <trkpt lat="45.81192" lon="6.24259">
        <ele>1119</ele>
        <time>2014-05-14T16:50:21.000Z</time>
      </trkpt>
      <trkpt lat="45.8118" lon="6.24269">
        <ele>1124</ele>
        <time>2014-05-14T16:50:27.000Z</time>
      </trkpt>
      <trkpt lat="45.8117" lon="6.24278">
        <ele>1127.4000244141</ele>
        <time>2014-05-14T16:50:33.000Z</time>
      </trkpt>
      <trkpt lat="45.81168" lon="6.24279">
        <ele>1128</ele>
        <time>2014-05-14T16:50:34.000Z</time>
      </trkpt>
      <trkpt lat="45.81155" lon="6.24296">
        <ele>1134.8000488281</ele>
        <time>2014-05-14T16:50:41.000Z</time>
      </trkpt>
      <trkpt lat="45.81143" lon="6.24309">
        <ele>1140.4000244141</ele>
        <time>2014-05-14T16:50:47.000Z</time>
      </trkpt>
      <trkpt lat="45.81133" lon="6.24317">
        <ele>1142</ele>
        <time>2014-05-14T16:50:53.000Z</time>
      </trkpt>
      <trkpt lat="45.8112" lon="6.24323">
        <ele>1142.1999511719</ele>
        <time>2014-05-14T16:51:00.000Z</time>
      </trkpt>
      <trkpt lat="45.81107" lon="6.2433">
        <ele>1142.5999755859</ele>
        <time>2014-05-14T16:51:06.000Z</time>
      </trkpt>
      <trkpt lat="45.811" lon="6.24334">
        <ele>1142.5999755859</ele>
        <time>2014-05-14T16:51:10.000Z</time>
      </trkpt>
      <trkpt lat="45.81088" lon="6.2434">
        <ele>1143.1999511719</ele>
        <time>2014-05-14T16:51:16.000Z</time>
      </trkpt>
      <trkpt lat="45.81073" lon="6.24347">
        <ele>1144.1999511719</ele>
        <time>2014-05-14T16:51:23.000Z</time>
      </trkpt>
      <trkpt lat="45.81056" lon="6.24358">
        <ele>1147.4000244141</ele>
        <time>2014-05-14T16:51:30.000Z</time>
      </trkpt>
      <trkpt lat="45.8104" lon="6.24366">
        <ele>1150</ele>
        <time>2014-05-14T16:51:36.000Z</time>
      </trkpt>
      <trkpt lat="45.81012" lon="6.24376">
        <ele>1151.1999511719</ele>
        <time>2014-05-14T16:51:45.000Z</time>
      </trkpt>
      <trkpt lat="45.80989" lon="6.24384">
        <ele>1150.5999755859</ele>
        <time>2014-05-14T16:51:52.000Z</time>
      </trkpt>
      <trkpt lat="45.8097" lon="6.24391">
        <ele>1150.5999755859</ele>
        <time>2014-05-14T16:51:58.000Z</time>
      </trkpt>
      <trkpt lat="45.80956" lon="6.24397">
        <ele>1150.4000244141</ele>
        <time>2014-05-14T16:52:03.000Z</time>
      </trkpt>
      <trkpt lat="45.80938" lon="6.24407">
        <ele>1149.5999755859</ele>
        <time>2014-05-14T16:52:10.000Z</time>
      </trkpt>
      <trkpt lat="45.80923" lon="6.24414">
        <ele>1148.8000488281</ele>
        <time>2014-05-14T16:52:16.000Z</time>
      </trkpt>
      <trkpt lat="45.80907" lon="6.24428">
        <ele>1148.8000488281</ele>
        <time>2014-05-14T16:52:23.000Z</time>
      </trkpt>
      <trkpt lat="45.80898" lon="6.2444">
        <ele>1150</ele>
        <time>2014-05-14T16:52:28.000Z</time>
      </trkpt>
      <trkpt lat="45.80888" lon="6.2445">
        <ele>1150.1999511719</ele>
        <time>2014-05-14T16:52:34.000Z</time>
      </trkpt>
      <trkpt lat="45.80879" lon="6.24455">
        <ele>1152.1999511719</ele>
        <time>2014-05-14T16:52:39.000Z</time>
      </trkpt>
      <trkpt lat="45.80864" lon="6.24461">
        <ele>1153.5999755859</ele>
        <time>2014-05-14T16:52:47.000Z</time>
      </trkpt>
      <trkpt lat="45.80858" lon="6.2446">
        <ele>1153</ele>
        <time>2014-05-14T16:52:51.000Z</time>
      </trkpt>
      <trkpt lat="45.8085" lon="6.24447">
        <ele>1151.1999511719</ele>
        <time>2014-05-14T16:52:58.000Z</time>
      </trkpt>
      <trkpt lat="45.80848" lon="6.24443">
        <ele>1150.5999755859</ele>
        <time>2014-05-14T16:53:01.000Z</time>
      </trkpt>
      <trkpt lat="45.80845" lon="6.2444">
        <ele>1150.1999511719</ele>
        <time>2014-05-14T16:53:06.000Z</time>
      </trkpt>
      <trkpt lat="45.80844" lon="6.24441">
        <ele>1150.1999511719</ele>
        <time>2014-05-14T16:53:28.000Z</time>
      </trkpt>
      <trkpt lat="45.80844" lon="6.24443">
        <ele>1150.4000244141</ele>
        <time>2014-05-14T16:54:16.000Z</time>
      </trkpt>
      <trkpt lat="45.80845" lon="6.24442">
        <ele>1150.1999511719</ele>
        <time>2014-05-14T16:54:23.000Z</time>
      </trkpt>
      <trkpt lat="45.80844" lon="6.24442">
        <ele>1150.1999511719</ele>
        <time>2014-05-14T16:54:38.000Z</time>
      </trkpt>
      <trkpt lat="45.80843" lon="6.24443">
        <ele>1150.1999511719</ele>
        <time>2014-05-14T16:54:58.000Z</time>
      </trkpt>
      <trkpt lat="45.80844" lon="6.24442">
        <ele>1150.1999511719</ele>
        <time>2014-05-14T16:55:22.000Z</time>
      </trkpt>
      <trkpt lat="45.80847" lon="6.24443">
        <ele>1150.5999755859</ele>
        <time>2014-05-14T16:55:54.000Z</time>
      </trkpt>
      <trkpt lat="45.80849" lon="6.2445">
        <ele>1151.4000244141</ele>
        <time>2014-05-14T16:56:00.000Z</time>
      </trkpt>
      <trkpt lat="45.80851" lon="6.24449">
        <ele>1151.4000244141</ele>
        <time>2014-05-14T16:56:01.000Z</time>
      </trkpt>
      <trkpt lat="45.8085" lon="6.24445">
        <ele>1151</ele>
        <time>2014-05-14T16:56:04.000Z</time>
      </trkpt>
      <trkpt lat="45.80848" lon="6.2445">
        <ele>1151.1999511719</ele>
        <time>2014-05-14T16:56:10.000Z</time>
      </trkpt>
      <trkpt lat="45.8085" lon="6.24446">
        <ele>1151</ele>
        <time>2014-05-14T16:56:14.000Z</time>
      </trkpt>
      <trkpt lat="45.80848" lon="6.24452">
        <ele>1151.4000244141</ele>
        <time>2014-05-14T16:58:15.000Z</time>
      </trkpt>
      <trkpt lat="45.80848" lon="6.24453">
        <ele>1151.5999755859</ele>
        <time>2014-05-14T16:58:16.000Z</time>
      </trkpt>
      <trkpt lat="45.80852" lon="6.24458">
        <ele>1152.4000244141</ele>
        <time>2014-05-14T16:58:23.000Z</time>
      </trkpt>
      <trkpt lat="45.80852" lon="6.24459">
        <ele>1152.4000244141</ele>
        <time>2014-05-14T16:58:27.000Z</time>
      </trkpt>
      <trkpt lat="45.8085" lon="6.24475">
        <ele>1153.8000488281</ele>
        <time>2014-05-14T16:58:31.000Z</time>
      </trkpt>
      <trkpt lat="45.80841" lon="6.24482">
        <ele>1153.5999755859</ele>
        <time>2014-05-14T16:58:34.000Z</time>
      </trkpt>
      <trkpt lat="45.80838" lon="6.24488">
        <ele>1153.4000244141</ele>
        <time>2014-05-14T16:58:37.000Z</time>
      </trkpt>
      <trkpt lat="45.80828" lon="6.24498">
        <ele>1152.8000488281</ele>
        <time>2014-05-14T16:58:42.000Z</time>
      </trkpt>
      <trkpt lat="45.80818" lon="6.24522">
        <ele>1148.8000488281</ele>
        <time>2014-05-14T16:58:46.000Z</time>
      </trkpt>
      <trkpt lat="45.80811" lon="6.24564">
        <ele>1143</ele>
        <time>2014-05-14T16:58:50.000Z</time>
      </trkpt>
      <trkpt lat="45.80802" lon="6.24616">
        <ele>1138.4000244141</ele>
        <time>2014-05-14T16:58:54.000Z</time>
      </trkpt>
      <trkpt lat="45.80784" lon="6.24704">
        <ele>1134.1999511719</ele>
        <time>2014-05-14T16:59:00.000Z</time>
      </trkpt>
      <trkpt lat="45.8076" lon="6.2481">
        <ele>1124.4000244141</ele>
        <time>2014-05-14T16:59:07.000Z</time>
      </trkpt>
      <trkpt lat="45.80756" lon="6.24836">
        <ele>1121.5999755859</ele>
        <time>2014-05-14T16:59:09.000Z</time>
      </trkpt>
      <trkpt lat="45.80758" lon="6.24883">
        <ele>1116.8000488281</ele>
        <time>2014-05-14T16:59:13.000Z</time>
      </trkpt>
      <trkpt lat="45.80775" lon="6.24916">
        <ele>1118.4000244141</ele>
        <time>2014-05-14T16:59:16.000Z</time>
      </trkpt>
      <trkpt lat="45.80798" lon="6.24935">
        <ele>1122.4000244141</ele>
        <time>2014-05-14T16:59:19.000Z</time>
      </trkpt>
      <trkpt lat="45.80814" lon="6.24951">
        <ele>1128.1999511719</ele>
        <time>2014-05-14T16:59:22.000Z</time>
      </trkpt>
      <trkpt lat="45.80809" lon="6.2497">
        <ele>1126.4000244141</ele>
        <time>2014-05-14T16:59:24.000Z</time>
      </trkpt>
      <trkpt lat="45.80787" lon="6.25031">
        <ele>1123.5999755859</ele>
        <time>2014-05-14T16:59:29.000Z</time>
      </trkpt>
      <trkpt lat="45.80784" lon="6.25044">
        <ele>1123.1999511719</ele>
        <time>2014-05-14T16:59:30.000Z</time>
      </trkpt>
      <trkpt lat="45.80781" lon="6.25091">
        <ele>1126.8000488281</ele>
        <time>2014-05-14T16:59:34.000Z</time>
      </trkpt>
      <trkpt lat="45.80773" lon="6.25116">
        <ele>1128.1999511719</ele>
        <time>2014-05-14T16:59:36.000Z</time>
      </trkpt>
      <trkpt lat="45.80744" lon="6.25182">
        <ele>1118</ele>
        <time>2014-05-14T16:59:41.000Z</time>
      </trkpt>
      <trkpt lat="45.80717" lon="6.25239">
        <ele>1108.5999755859</ele>
        <time>2014-05-14T16:59:45.000Z</time>
      </trkpt>
      <trkpt lat="45.80694" lon="6.25282">
        <ele>1105.4000244141</ele>
        <time>2014-05-14T16:59:48.000Z</time>
      </trkpt>
      <trkpt lat="45.80669" lon="6.25372">
        <ele>1097.8000488281</ele>
        <time>2014-05-14T16:59:53.000Z</time>
      </trkpt>
      <trkpt lat="45.80651" lon="6.25489">
        <ele>1086</ele>
        <time>2014-05-14T16:59:59.000Z</time>
      </trkpt>
      <trkpt lat="45.80648" lon="6.25568">
        <ele>1082.5999755859</ele>
        <time>2014-05-14T17:00:03.000Z</time>
      </trkpt>
      <trkpt lat="45.80638" lon="6.25666">
        <ele>1065.8000488281</ele>
        <time>2014-05-14T17:00:08.000Z</time>
      </trkpt>
      <trkpt lat="45.80652" lon="6.25734">
        <ele>1049.4000244141</ele>
        <time>2014-05-14T17:00:12.000Z</time>
      </trkpt>
      <trkpt lat="45.80678" lon="6.25771">
        <ele>1042</ele>
        <time>2014-05-14T17:00:15.000Z</time>
      </trkpt>
      <trkpt lat="45.80744" lon="6.25839">
        <ele>1037.5999755859</ele>
        <time>2014-05-14T17:00:22.000Z</time>
      </trkpt>
      <trkpt lat="45.8079" lon="6.25903">
        <ele>1030</ele>
        <time>2014-05-14T17:00:28.000Z</time>
      </trkpt>
      <trkpt lat="45.80841" lon="6.25952">
        <ele>1024.5999755859</ele>
        <time>2014-05-14T17:00:34.000Z</time>
      </trkpt>
      <trkpt lat="45.80887" lon="6.25989">
        <ele>1023.200012207</ele>
        <time>2014-05-14T17:00:39.000Z</time>
      </trkpt>
      <trkpt lat="45.80938" lon="6.26006">
        <ele>1027</ele>
        <time>2014-05-14T17:00:44.000Z</time>
      </trkpt>
      <trkpt lat="45.80972" lon="6.26036">
        <ele>1026.5999755859</ele>
        <time>2014-05-14T17:00:48.000Z</time>
      </trkpt>
      <trkpt lat="45.80987" lon="6.26072">
        <ele>1025</ele>
        <time>2014-05-14T17:00:51.000Z</time>
      </trkpt>
      <trkpt lat="45.80984" lon="6.26098">
        <ele>1026.5999755859</ele>
        <time>2014-05-14T17:00:53.000Z</time>
      </trkpt>
      <trkpt lat="45.8098" lon="6.26109">
        <ele>1027</ele>
        <time>2014-05-14T17:00:54.000Z</time>
      </trkpt>
      <trkpt lat="45.80955" lon="6.26153">
        <ele>1029.4000244141</ele>
        <time>2014-05-14T17:00:59.000Z</time>
      </trkpt>
      <trkpt lat="45.80926" lon="6.26174">
        <ele>1031.5999755859</ele>
        <time>2014-05-14T17:01:04.000Z</time>
      </trkpt>
      <trkpt lat="45.80914" lon="6.26175">
        <ele>1031.1999511719</ele>
        <time>2014-05-14T17:01:06.000Z</time>
      </trkpt>
      <trkpt lat="45.80879" lon="6.26177">
        <ele>1030.4000244141</ele>
        <time>2014-05-14T17:01:13.000Z</time>
      </trkpt>
      <trkpt lat="45.80848" lon="6.2618">
        <ele>1030.8000488281</ele>
        <time>2014-05-14T17:01:20.000Z</time>
      </trkpt>
      <trkpt lat="45.80814" lon="6.26188">
        <ele>1031</ele>
        <time>2014-05-14T17:01:26.000Z</time>
      </trkpt>
      <trkpt lat="45.80765" lon="6.262">
        <ele>1031.5999755859</ele>
        <time>2014-05-14T17:01:33.000Z</time>
      </trkpt>
      <trkpt lat="45.80742" lon="6.26206">
        <ele>1031.1999511719</ele>
        <time>2014-05-14T17:01:36.000Z</time>
      </trkpt>
      <trkpt lat="45.80715" lon="6.26227">
        <ele>1032.1999511719</ele>
        <time>2014-05-14T17:01:40.000Z</time>
      </trkpt>
      <trkpt lat="45.80703" lon="6.26258">
        <ele>1037.5999755859</ele>
        <time>2014-05-14T17:01:43.000Z</time>
      </trkpt>
      <trkpt lat="45.80683" lon="6.26335">
        <ele>1046.1999511719</ele>
        <time>2014-05-14T17:01:50.000Z</time>
      </trkpt>
      <trkpt lat="45.80666" lon="6.26388">
        <ele>1047.8000488281</ele>
        <time>2014-05-14T17:01:56.000Z</time>
      </trkpt>
      <trkpt lat="45.80662" lon="6.26403">
        <ele>1047.5999755859</ele>
        <time>2014-05-14T17:01:58.000Z</time>
      </trkpt>
      <trkpt lat="45.80659" lon="6.26441">
        <ele>1051.1999511719</ele>
        <time>2014-05-14T17:02:03.000Z</time>
      </trkpt>
      <trkpt lat="45.80649" lon="6.26466">
        <ele>1052.1999511719</ele>
        <time>2014-05-14T17:02:07.000Z</time>
      </trkpt>
      <trkpt lat="45.80638" lon="6.26469">
        <ele>1049.1999511719</ele>
        <time>2014-05-14T17:02:09.000Z</time>
      </trkpt>
      <trkpt lat="45.80626" lon="6.26453">
        <ele>1046.8000488281</ele>
        <time>2014-05-14T17:02:12.000Z</time>
      </trkpt>
      <trkpt lat="45.80609" lon="6.2642">
        <ele>1041.8000488281</ele>
        <time>2014-05-14T17:02:17.000Z</time>
      </trkpt>
      <trkpt lat="45.80584" lon="6.26388">
        <ele>1036.5999755859</ele>
        <time>2014-05-14T17:02:23.000Z</time>
      </trkpt>
      <trkpt lat="45.8056" lon="6.26351">
        <ele>1029.5999755859</ele>
        <time>2014-05-14T17:02:29.000Z</time>
      </trkpt>
      <trkpt lat="45.80551" lon="6.2634">
        <ele>1028.1999511719</ele>
        <time>2014-05-14T17:02:31.000Z</time>
      </trkpt>
      <trkpt lat="45.80531" lon="6.26329">
        <ele>1029.4000244141</ele>
        <time>2014-05-14T17:02:35.000Z</time>
      </trkpt>
      <trkpt lat="45.80515" lon="6.26329">
        <ele>1032</ele>
        <time>2014-05-14T17:02:38.000Z</time>
      </trkpt>
      <trkpt lat="45.80478" lon="6.26344">
        <ele>1039.1999511719</ele>
        <time>2014-05-14T17:02:45.000Z</time>
      </trkpt>
      <trkpt lat="45.80449" lon="6.26359">
        <ele>1040.4000244141</ele>
        <time>2014-05-14T17:02:50.000Z</time>
      </trkpt>
      <trkpt lat="45.80418" lon="6.26363">
        <ele>1040</ele>
        <time>2014-05-14T17:02:55.000Z</time>
      </trkpt>
      <trkpt lat="45.80406" lon="6.26359">
        <ele>1039</ele>
        <time>2014-05-14T17:02:57.000Z</time>
      </trkpt>
      <trkpt lat="45.80358" lon="6.26335">
        <ele>1036</ele>
        <time>2014-05-14T17:03:05.000Z</time>
      </trkpt>
      <trkpt lat="45.80326" lon="6.26338">
        <ele>1037.4000244141</ele>
        <time>2014-05-14T17:03:10.000Z</time>
      </trkpt>
      <trkpt lat="45.80266" lon="6.26376">
        <ele>1042</ele>
        <time>2014-05-14T17:03:20.000Z</time>
      </trkpt>
      <trkpt lat="45.80236" lon="6.26393">
        <ele>1040.4000244141</ele>
        <time>2014-05-14T17:03:25.000Z</time>
      </trkpt>
      <trkpt lat="45.80207" lon="6.26391">
        <ele>1038.1999511719</ele>
        <time>2014-05-14T17:03:29.000Z</time>
      </trkpt>
      <trkpt lat="45.80194" lon="6.2637">
        <ele>1035.4000244141</ele>
        <time>2014-05-14T17:03:32.000Z</time>
      </trkpt>
      <trkpt lat="45.80192" lon="6.2635">
        <ele>1032.4000244141</ele>
        <time>2014-05-14T17:03:34.000Z</time>
      </trkpt>
      <trkpt lat="45.80181" lon="6.26306">
        <ele>1025.8000488281</ele>
        <time>2014-05-14T17:03:39.000Z</time>
      </trkpt>
      <trkpt lat="45.80163" lon="6.26295">
        <ele>1024.1999511719</ele>
        <time>2014-05-14T17:03:41.000Z</time>
      </trkpt>
      <trkpt lat="45.801" lon="6.26271">
        <ele>1016.4000244141</ele>
        <time>2014-05-14T17:03:47.000Z</time>
      </trkpt>
      <trkpt lat="45.80081" lon="6.26265">
        <ele>1013.799987793</ele>
        <time>2014-05-14T17:03:49.000Z</time>
      </trkpt>
      <trkpt lat="45.80055" lon="6.2627">
        <ele>1012.799987793</ele>
        <time>2014-05-14T17:03:53.000Z</time>
      </trkpt>
      <trkpt lat="45.80015" lon="6.26313">
        <ele>1011</ele>
        <time>2014-05-14T17:03:58.000Z</time>
      </trkpt>
      <trkpt lat="45.79987" lon="6.26341">
        <ele>1009.4000244141</ele>
        <time>2014-05-14T17:04:01.000Z</time>
      </trkpt>
      <trkpt lat="45.79945" lon="6.26364">
        <ele>1004.200012207</ele>
        <time>2014-05-14T17:04:05.000Z</time>
      </trkpt>
      <trkpt lat="45.7993" lon="6.26369">
        <ele>1001.5999755859</ele>
        <time>2014-05-14T17:04:07.000Z</time>
      </trkpt>
      <trkpt lat="45.79922" lon="6.26369">
        <ele>999.79998779297</ele>
        <time>2014-05-14T17:04:09.000Z</time>
      </trkpt>
      <trkpt lat="45.79906" lon="6.26368">
        <ele>996</ele>
        <time>2014-05-14T17:04:14.000Z</time>
      </trkpt>
      <trkpt lat="45.79902" lon="6.26369">
        <ele>995.20001220703</ele>
        <time>2014-05-14T17:04:15.000Z</time>
      </trkpt>
      <trkpt lat="45.79869" lon="6.26373">
        <ele>990</ele>
        <time>2014-05-14T17:04:20.000Z</time>
      </trkpt>
      <trkpt lat="45.79854" lon="6.26375">
        <ele>987.40002441406</ele>
        <time>2014-05-14T17:04:22.000Z</time>
      </trkpt>
      <trkpt lat="45.79829" lon="6.26392">
        <ele>985</ele>
        <time>2014-05-14T17:04:26.000Z</time>
      </trkpt>
      <trkpt lat="45.79823" lon="6.264">
        <ele>985.59997558594</ele>
        <time>2014-05-14T17:04:27.000Z</time>
      </trkpt>
      <trkpt lat="45.79812" lon="6.26418">
        <ele>987.40002441406</ele>
        <time>2014-05-14T17:04:29.000Z</time>
      </trkpt>
      <trkpt lat="45.79785" lon="6.26442">
        <ele>986.79998779297</ele>
        <time>2014-05-14T17:04:33.000Z</time>
      </trkpt>
      <trkpt lat="45.79772" lon="6.26461">
        <ele>988.20001220703</ele>
        <time>2014-05-14T17:04:36.000Z</time>
      </trkpt>
      <trkpt lat="45.79764" lon="6.26482">
        <ele>990.40002441406</ele>
        <time>2014-05-14T17:04:39.000Z</time>
      </trkpt>
      <trkpt lat="45.7975" lon="6.26487">
        <ele>988</ele>
        <time>2014-05-14T17:04:42.000Z</time>
      </trkpt>
      <trkpt lat="45.79741" lon="6.26472">
        <ele>983.20001220703</ele>
        <time>2014-05-14T17:04:45.000Z</time>
      </trkpt>
      <trkpt lat="45.79747" lon="6.26447">
        <ele>979</ele>
        <time>2014-05-14T17:04:48.000Z</time>
      </trkpt>
      <trkpt lat="45.79762" lon="6.26424">
        <ele>977.59997558594</ele>
        <time>2014-05-14T17:04:51.000Z</time>
      </trkpt>
      <trkpt lat="45.79789" lon="6.26395">
        <ele>977.20001220703</ele>
        <time>2014-05-14T17:04:55.000Z</time>
      </trkpt>
      <trkpt lat="45.7981" lon="6.26351">
        <ele>973.79998779297</ele>
        <time>2014-05-14T17:04:59.000Z</time>
      </trkpt>
      <trkpt lat="45.79811" lon="6.26337">
        <ele>971.79998779297</ele>
        <time>2014-05-14T17:05:00.000Z</time>
      </trkpt>
      <trkpt lat="45.79816" lon="6.26297">
        <ele>965.40002441406</ele>
        <time>2014-05-14T17:05:03.000Z</time>
      </trkpt>
      <trkpt lat="45.79808" lon="6.26246">
        <ele>956</ele>
        <time>2014-05-14T17:05:07.000Z</time>
      </trkpt>
      <trkpt lat="45.79788" lon="6.26178">
        <ele>945.20001220703</ele>
        <time>2014-05-14T17:05:12.000Z</time>
      </trkpt>
      <trkpt lat="45.79777" lon="6.2614">
        <ele>939.79998779297</ele>
        <time>2014-05-14T17:05:15.000Z</time>
      </trkpt>
      <trkpt lat="45.7978" lon="6.261">
        <ele>935.79998779297</ele>
        <time>2014-05-14T17:05:19.000Z</time>
      </trkpt>
      <trkpt lat="45.79777" lon="6.26067">
        <ele>931.20001220703</ele>
        <time>2014-05-14T17:05:24.000Z</time>
      </trkpt>
      <trkpt lat="45.79761" lon="6.26054">
        <ele>928.40002441406</ele>
        <time>2014-05-14T17:05:26.000Z</time>
      </trkpt>
      <trkpt lat="45.79748" lon="6.2604">
        <ele>925.40002441406</ele>
        <time>2014-05-14T17:05:28.000Z</time>
      </trkpt>
      <trkpt lat="45.79731" lon="6.2604">
        <ele>924</ele>
        <time>2014-05-14T17:05:31.000Z</time>
      </trkpt>
      <trkpt lat="45.79728" lon="6.26065">
        <ele>926.79998779297</ele>
        <time>2014-05-14T17:05:33.000Z</time>
      </trkpt>
      <trkpt lat="45.79714" lon="6.26092">
        <ele>926.79998779297</ele>
        <time>2014-05-14T17:05:36.000Z</time>
      </trkpt>
      <trkpt lat="45.79696" lon="6.26088">
        <ele>922.79998779297</ele>
        <time>2014-05-14T17:05:38.000Z</time>
      </trkpt>
      <trkpt lat="45.7967" lon="6.26073">
        <ele>916.40002441406</ele>
        <time>2014-05-14T17:05:41.000Z</time>
      </trkpt>
      <trkpt lat="45.79617" lon="6.26057">
        <ele>905.79998779297</ele>
        <time>2014-05-14T17:05:46.000Z</time>
      </trkpt>
      <trkpt lat="45.79586" lon="6.26065">
        <ele>901.79998779297</ele>
        <time>2014-05-14T17:05:50.000Z</time>
      </trkpt>
      <trkpt lat="45.79572" lon="6.26054">
        <ele>899.20001220703</ele>
        <time>2014-05-14T17:05:53.000Z</time>
      </trkpt>
      <trkpt lat="45.79573" lon="6.26033">
        <ele>898.79998779297</ele>
        <time>2014-05-14T17:05:55.000Z</time>
      </trkpt>
      <trkpt lat="45.79581" lon="6.25999">
        <ele>899</ele>
        <time>2014-05-14T17:05:58.000Z</time>
      </trkpt>
      <trkpt lat="45.79569" lon="6.25977">
        <ele>896.59997558594</ele>
        <time>2014-05-14T17:06:01.000Z</time>
      </trkpt>
      <trkpt lat="45.79545" lon="6.25986">
        <ele>893.59997558594</ele>
        <time>2014-05-14T17:06:04.000Z</time>
      </trkpt>
      <trkpt lat="45.79522" lon="6.26016">
        <ele>890.79998779297</ele>
        <time>2014-05-14T17:06:07.000Z</time>
      </trkpt>
      <trkpt lat="45.79493" lon="6.26034">
        <ele>891.79998779297</ele>
        <time>2014-05-14T17:06:10.000Z</time>
      </trkpt>
      <trkpt lat="45.7946" lon="6.26029">
        <ele>889.40002441406</ele>
        <time>2014-05-14T17:06:13.000Z</time>
      </trkpt>
      <trkpt lat="45.7945" lon="6.26022">
        <ele>886.79998779297</ele>
        <time>2014-05-14T17:06:14.000Z</time>
      </trkpt>
      <trkpt lat="45.79432" lon="6.26007">
        <ele>881.79998779297</ele>
        <time>2014-05-14T17:06:16.000Z</time>
      </trkpt>
      <trkpt lat="45.79401" lon="6.25999">
        <ele>876.59997558594</ele>
        <time>2014-05-14T17:06:19.000Z</time>
      </trkpt>
      <trkpt lat="45.79359" lon="6.26016">
        <ele>877</ele>
        <time>2014-05-14T17:06:23.000Z</time>
      </trkpt>
      <trkpt lat="45.79348" lon="6.26024">
        <ele>877.79998779297</ele>
        <time>2014-05-14T17:06:24.000Z</time>
      </trkpt>
      <trkpt lat="45.7932" lon="6.26047">
        <ele>883.79998779297</ele>
        <time>2014-05-14T17:06:27.000Z</time>
      </trkpt>
      <trkpt lat="45.79292" lon="6.26038">
        <ele>879.40002441406</ele>
        <time>2014-05-14T17:06:30.000Z</time>
      </trkpt>
      <trkpt lat="45.79262" lon="6.26023">
        <ele>872.59997558594</ele>
        <time>2014-05-14T17:06:33.000Z</time>
      </trkpt>
      <trkpt lat="45.79232" lon="6.2603">
        <ele>872.20001220703</ele>
        <time>2014-05-14T17:06:36.000Z</time>
      </trkpt>
      <trkpt lat="45.79201" lon="6.26037">
        <ele>872.20001220703</ele>
        <time>2014-05-14T17:06:41.000Z</time>
      </trkpt>
      <trkpt lat="45.792" lon="6.2603">
        <ele>870.20001220703</ele>
        <time>2014-05-14T17:06:42.000Z</time>
      </trkpt>
      <trkpt lat="45.79179" lon="6.25996">
        <ele>859</ele>
        <time>2014-05-14T17:06:45.000Z</time>
      </trkpt>
      <trkpt lat="45.79136" lon="6.25975">
        <ele>851.59997558594</ele>
        <time>2014-05-14T17:06:49.000Z</time>
      </trkpt>
      <trkpt lat="45.79079" lon="6.25954">
        <ele>848.20001220703</ele>
        <time>2014-05-14T17:06:54.000Z</time>
      </trkpt>
      <trkpt lat="45.7907" lon="6.25932">
        <ele>843</ele>
        <time>2014-05-14T17:06:56.000Z</time>
      </trkpt>
      <trkpt lat="45.79057" lon="6.25889">
        <ele>837.20001220703</ele>
        <time>2014-05-14T17:06:59.000Z</time>
      </trkpt>
      <trkpt lat="45.7904" lon="6.25869">
        <ele>838.40002441406</ele>
        <time>2014-05-14T17:07:01.000Z</time>
      </trkpt>
      <trkpt lat="45.7901" lon="6.25857">
        <ele>835.20001220703</ele>
        <time>2014-05-14T17:07:04.000Z</time>
      </trkpt>
      <trkpt lat="45.78991" lon="6.25853">
        <ele>834.79998779297</ele>
        <time>2014-05-14T17:07:06.000Z</time>
      </trkpt>
      <trkpt lat="45.78949" lon="6.25826">
        <ele>832.59997558594</ele>
        <time>2014-05-14T17:07:11.000Z</time>
      </trkpt>
      <trkpt lat="45.78925" lon="6.25818">
        <ele>830.20001220703</ele>
        <time>2014-05-14T17:07:13.000Z</time>
      </trkpt>
      <trkpt lat="45.7887" lon="6.25821">
        <ele>826.59997558594</ele>
        <time>2014-05-14T17:07:19.000Z</time>
      </trkpt>
      <trkpt lat="45.78838" lon="6.25832">
        <ele>827.40002441406</ele>
        <time>2014-05-14T17:07:23.000Z</time>
      </trkpt>
      <trkpt lat="45.78779" lon="6.2586">
        <ele>827.59997558594</ele>
        <time>2014-05-14T17:07:30.000Z</time>
      </trkpt>
      <trkpt lat="45.78748" lon="6.25885">
        <ele>820.20001220703</ele>
        <time>2014-05-14T17:07:34.000Z</time>
      </trkpt>
      <trkpt lat="45.78725" lon="6.25918">
        <ele>813.79998779297</ele>
        <time>2014-05-14T17:07:37.000Z</time>
      </trkpt>
      <trkpt lat="45.78721" lon="6.2593">
        <ele>810.59997558594</ele>
        <time>2014-05-14T17:07:38.000Z</time>
      </trkpt>
      <trkpt lat="45.78713" lon="6.25954">
        <ele>808</ele>
        <time>2014-05-14T17:07:40.000Z</time>
      </trkpt>
      <trkpt lat="45.7869" lon="6.25989">
        <ele>804.40002441406</ele>
        <time>2014-05-14T17:07:44.000Z</time>
      </trkpt>
      <trkpt lat="45.78674" lon="6.25987">
        <ele>803.59997558594</ele>
        <time>2014-05-14T17:07:46.000Z</time>
      </trkpt>
      <trkpt lat="45.78654" lon="6.25965">
        <ele>807.20001220703</ele>
        <time>2014-05-14T17:07:49.000Z</time>
      </trkpt>
      <trkpt lat="45.78645" lon="6.2596">
        <ele>809.40002441406</ele>
        <time>2014-05-14T17:07:50.000Z</time>
      </trkpt>
      <trkpt lat="45.78629" lon="6.2595">
        <ele>811.40002441406</ele>
        <time>2014-05-14T17:07:52.000Z</time>
      </trkpt>
      <trkpt lat="45.78593" lon="6.25934">
        <ele>810.79998779297</ele>
        <time>2014-05-14T17:07:56.000Z</time>
      </trkpt>
      <trkpt lat="45.78583" lon="6.25929">
        <ele>811.20001220703</ele>
        <time>2014-05-14T17:07:57.000Z</time>
      </trkpt>
      <trkpt lat="45.7855" lon="6.25917">
        <ele>809.59997558594</ele>
        <time>2014-05-14T17:08:00.000Z</time>
      </trkpt>
      <trkpt lat="45.78508" lon="6.25919">
        <ele>797</ele>
        <time>2014-05-14T17:08:04.000Z</time>
      </trkpt>
      <trkpt lat="45.78482" lon="6.25921">
        <ele>792.40002441406</ele>
        <time>2014-05-14T17:08:06.000Z</time>
      </trkpt>
      <trkpt lat="45.78449" lon="6.25916">
        <ele>789.79998779297</ele>
        <time>2014-05-14T17:08:09.000Z</time>
      </trkpt>
      <trkpt lat="45.78413" lon="6.25915">
        <ele>785.79998779297</ele>
        <time>2014-05-14T17:08:12.000Z</time>
      </trkpt>
      <trkpt lat="45.78337" lon="6.25916">
        <ele>772.20001220703</ele>
        <time>2014-05-14T17:08:18.000Z</time>
      </trkpt>
      <trkpt lat="45.78292" lon="6.25898">
        <ele>765.20001220703</ele>
        <time>2014-05-14T17:08:22.000Z</time>
      </trkpt>
      <trkpt lat="45.78282" lon="6.25896">
        <ele>764.79998779297</ele>
        <time>2014-05-14T17:08:23.000Z</time>
      </trkpt>
      <trkpt lat="45.78235" lon="6.25915">
        <ele>766.59997558594</ele>
        <time>2014-05-14T17:08:28.000Z</time>
      </trkpt>
      <trkpt lat="45.78229" lon="6.25922">
        <ele>766.40002441406</ele>
        <time>2014-05-14T17:08:29.000Z</time>
      </trkpt>
      <trkpt lat="45.78193" lon="6.25951">
        <ele>775.40002441406</ele>
        <time>2014-05-14T17:08:33.000Z</time>
      </trkpt>
      <trkpt lat="45.78134" lon="6.25957">
        <ele>760.59997558594</ele>
        <time>2014-05-14T17:08:37.000Z</time>
      </trkpt>
      <trkpt lat="45.78098" lon="6.25958">
        <ele>765</ele>
        <time>2014-05-14T17:08:40.000Z</time>
      </trkpt>
      <trkpt lat="45.78014" lon="6.25989">
        <ele>749.59997558594</ele>
        <time>2014-05-14T17:08:47.000Z</time>
      </trkpt>
      <trkpt lat="45.7798" lon="6.26008">
        <ele>746</ele>
        <time>2014-05-14T17:08:50.000Z</time>
      </trkpt>
      <trkpt lat="45.77963" lon="6.26024">
        <ele>742</ele>
        <time>2014-05-14T17:08:53.000Z</time>
      </trkpt>
      <trkpt lat="45.77933" lon="6.26026">
        <ele>742.59997558594</ele>
        <time>2014-05-14T17:08:56.000Z</time>
      </trkpt>
      <trkpt lat="45.77921" lon="6.26024">
        <ele>741.59997558594</ele>
        <time>2014-05-14T17:08:57.000Z</time>
      </trkpt>
      <trkpt lat="45.77899" lon="6.26019">
        <ele>739.20001220703</ele>
        <time>2014-05-14T17:08:59.000Z</time>
      </trkpt>
      <trkpt lat="45.77852" lon="6.26014">
        <ele>734.79998779297</ele>
        <time>2014-05-14T17:09:03.000Z</time>
      </trkpt>
      <trkpt lat="45.77823" lon="6.26022">
        <ele>728.20001220703</ele>
        <time>2014-05-14T17:09:06.000Z</time>
      </trkpt>
      <trkpt lat="45.77799" lon="6.26025">
        <ele>724.20001220703</ele>
        <time>2014-05-14T17:09:08.000Z</time>
      </trkpt>
      <trkpt lat="45.77726" lon="6.26036">
        <ele>712.59997558594</ele>
        <time>2014-05-14T17:09:14.000Z</time>
      </trkpt>
      <trkpt lat="45.77714" lon="6.2604">
        <ele>709.20001220703</ele>
        <time>2014-05-14T17:09:15.000Z</time>
      </trkpt>
      <trkpt lat="45.7766" lon="6.26046">
        <ele>696.59997558594</ele>
        <time>2014-05-14T17:09:19.000Z</time>
      </trkpt>
      <trkpt lat="45.77649" lon="6.26045">
        <ele>695</ele>
        <time>2014-05-14T17:09:20.000Z</time>
      </trkpt>
      <trkpt lat="45.77628" lon="6.26013">
        <ele>702.59997558594</ele>
        <time>2014-05-14T17:09:23.000Z</time>
      </trkpt>
      <trkpt lat="45.77621" lon="6.26002">
        <ele>704.59997558594</ele>
        <time>2014-05-14T17:09:24.000Z</time>
      </trkpt>
      <trkpt lat="45.77578" lon="6.25989">
        <ele>694.59997558594</ele>
        <time>2014-05-14T17:09:28.000Z</time>
      </trkpt>
      <trkpt lat="45.77545" lon="6.2598">
        <ele>685.79998779297</ele>
        <time>2014-05-14T17:09:31.000Z</time>
      </trkpt>
      <trkpt lat="45.77536" lon="6.25968">
        <ele>688.20001220703</ele>
        <time>2014-05-14T17:09:32.000Z</time>
      </trkpt>
      <trkpt lat="45.77505" lon="6.25938">
        <ele>690.20001220703</ele>
        <time>2014-05-14T17:09:35.000Z</time>
      </trkpt>
      <trkpt lat="45.77456" lon="6.25923">
        <ele>677.59997558594</ele>
        <time>2014-05-14T17:09:39.000Z</time>
      </trkpt>
      <trkpt lat="45.77424" lon="6.25915">
        <ele>668.79998779297</ele>
        <time>2014-05-14T17:09:42.000Z</time>
      </trkpt>
      <trkpt lat="45.77416" lon="6.25906">
        <ele>670.20001220703</ele>
        <time>2014-05-14T17:09:43.000Z</time>
      </trkpt>
      <trkpt lat="45.77399" lon="6.25882">
        <ele>678.20001220703</ele>
        <time>2014-05-14T17:09:45.000Z</time>
      </trkpt>
      <trkpt lat="45.77351" lon="6.25871">
        <ele>668.20001220703</ele>
        <time>2014-05-14T17:09:49.000Z</time>
      </trkpt>
      <trkpt lat="45.77339" lon="6.25869">
        <ele>665.20001220703</ele>
        <time>2014-05-14T17:09:50.000Z</time>
      </trkpt>
      <trkpt lat="45.77316" lon="6.2586">
        <ele>663.59997558594</ele>
        <time>2014-05-14T17:09:52.000Z</time>
      </trkpt>
      <trkpt lat="45.77271" lon="6.25858">
        <ele>648.79998779297</ele>
        <time>2014-05-14T17:09:56.000Z</time>
      </trkpt>
      <trkpt lat="45.77258" lon="6.25856">
        <ele>646.40002441406</ele>
        <time>2014-05-14T17:09:57.000Z</time>
      </trkpt>
      <trkpt lat="45.77208" lon="6.25848">
        <ele>640.20001220703</ele>
        <time>2014-05-14T17:10:01.000Z</time>
      </trkpt>
      <trkpt lat="45.77168" lon="6.25825">
        <ele>639.59997558594</ele>
        <time>2014-05-14T17:10:05.000Z</time>
      </trkpt>
      <trkpt lat="45.77159" lon="6.25805">
        <ele>642</ele>
        <time>2014-05-14T17:10:07.000Z</time>
      </trkpt>
      <trkpt lat="45.77163" lon="6.2578">
        <ele>638.59997558594</ele>
        <time>2014-05-14T17:10:09.000Z</time>
      </trkpt>
      <trkpt lat="45.77172" lon="6.25753">
        <ele>639.20001220703</ele>
        <time>2014-05-14T17:10:11.000Z</time>
      </trkpt>
      <trkpt lat="45.77207" lon="6.25664">
        <ele>642</ele>
        <time>2014-05-14T17:10:17.000Z</time>
      </trkpt>
      <trkpt lat="45.77244" lon="6.25564">
        <ele>631</ele>
        <time>2014-05-14T17:10:23.000Z</time>
      </trkpt>
      <trkpt lat="45.77261" lon="6.25493">
        <ele>621.40002441406</ele>
        <time>2014-05-14T17:10:27.000Z</time>
      </trkpt>
      <trkpt lat="45.77282" lon="6.25408">
        <ele>608.40002441406</ele>
        <time>2014-05-14T17:10:32.000Z</time>
      </trkpt>
      <trkpt lat="45.77285" lon="6.25393">
        <ele>606</ele>
        <time>2014-05-14T17:10:33.000Z</time>
      </trkpt>
      <trkpt lat="45.77279" lon="6.25352">
        <ele>600.40002441406</ele>
        <time>2014-05-14T17:10:36.000Z</time>
      </trkpt>
      <trkpt lat="45.77259" lon="6.25314">
        <ele>591</ele>
        <time>2014-05-14T17:10:39.000Z</time>
      </trkpt>
      <trkpt lat="45.77255" lon="6.25265">
        <ele>589.79998779297</ele>
        <time>2014-05-14T17:10:42.000Z</time>
      </trkpt>
      <trkpt lat="45.77258" lon="6.25234">
        <ele>593</ele>
        <time>2014-05-14T17:10:44.000Z</time>
      </trkpt>
      <trkpt lat="45.77246" lon="6.25205">
        <ele>591.40002441406</ele>
        <time>2014-05-14T17:10:48.000Z</time>
      </trkpt>
      <trkpt lat="45.77239" lon="6.25221">
        <ele>587.20001220703</ele>
        <time>2014-05-14T17:10:50.000Z</time>
      </trkpt>
      <trkpt lat="45.77233" lon="6.25249">
        <ele>583.40002441406</ele>
        <time>2014-05-14T17:10:52.000Z</time>
      </trkpt>
      <trkpt lat="45.77217" lon="6.25288">
        <ele>579</ele>
        <time>2014-05-14T17:10:55.000Z</time>
      </trkpt>
      <trkpt lat="45.77183" lon="6.25356">
        <ele>572.79998779297</ele>
        <time>2014-05-14T17:11:00.000Z</time>
      </trkpt>
      <trkpt lat="45.77152" lon="6.25436">
        <ele>568</ele>
        <time>2014-05-14T17:11:05.000Z</time>
      </trkpt>
      <trkpt lat="45.77126" lon="6.25504">
        <ele>565.20001220703</ele>
        <time>2014-05-14T17:11:09.000Z</time>
      </trkpt>
      <trkpt lat="45.77088" lon="6.25549">
        <ele>558</ele>
        <time>2014-05-14T17:11:13.000Z</time>
      </trkpt>
      <trkpt lat="45.77079" lon="6.25557">
        <ele>555</ele>
        <time>2014-05-14T17:11:14.000Z</time>
      </trkpt>
      <trkpt lat="45.77057" lon="6.25606">
        <ele>552.20001220703</ele>
        <time>2014-05-14T17:11:18.000Z</time>
      </trkpt>
      <trkpt lat="45.77035" lon="6.25683">
        <ele>555</ele>
        <time>2014-05-14T17:11:23.000Z</time>
      </trkpt>
      <trkpt lat="45.77" lon="6.25779">
        <ele>553</ele>
        <time>2014-05-14T17:11:29.000Z</time>
      </trkpt>
      <trkpt lat="45.76963" lon="6.25875">
        <ele>536.59997558594</ele>
        <time>2014-05-14T17:11:35.000Z</time>
      </trkpt>
      <trkpt lat="45.7695" lon="6.25901">
        <ele>531.40002441406</ele>
        <time>2014-05-14T17:11:37.000Z</time>
      </trkpt>
      <trkpt lat="45.76936" lon="6.2595">
        <ele>518.40002441406</ele>
        <time>2014-05-14T17:11:41.000Z</time>
      </trkpt>
      <trkpt lat="45.76932" lon="6.25971">
        <ele>518.20001220703</ele>
        <time>2014-05-14T17:11:43.000Z</time>
      </trkpt>
      <trkpt lat="45.76917" lon="6.25992">
        <ele>518.20001220703</ele>
        <time>2014-05-14T17:11:47.000Z</time>
      </trkpt>
      <trkpt lat="45.76896" lon="6.26002">
        <ele>515.20001220703</ele>
        <time>2014-05-14T17:11:51.000Z</time>
      </trkpt>
      <trkpt lat="45.76861" lon="6.26023">
        <ele>512.59997558594</ele>
        <time>2014-05-14T17:11:58.000Z</time>
      </trkpt>
      <trkpt lat="45.76846" lon="6.26023">
        <ele>511</ele>
        <time>2014-05-14T17:12:01.000Z</time>
      </trkpt>
      <trkpt lat="45.76836" lon="6.26019">
        <ele>509.39999389648</ele>
        <time>2014-05-14T17:12:03.000Z</time>
      </trkpt>
      <trkpt lat="45.76812" lon="6.26026">
        <ele>506.20001220703</ele>
        <time>2014-05-14T17:12:08.000Z</time>
      </trkpt>
      <trkpt lat="45.76813" lon="6.26033">
        <ele>506.79998779297</ele>
        <time>2014-05-14T17:12:11.000Z</time>
      </trkpt>
      <trkpt lat="45.76815" lon="6.26032">
        <ele>507</ele>
        <time>2014-05-14T17:12:12.000Z</time>
      </trkpt>
      <trkpt lat="45.76819" lon="6.26026">
        <ele>507.20001220703</ele>
        <time>2014-05-14T17:12:19.000Z</time>
      </trkpt>
      <trkpt lat="45.76825" lon="6.26027">
        <ele>508.20001220703</ele>
        <time>2014-05-14T17:13:06.000Z</time>
      </trkpt>
      <trkpt lat="45.76827" lon="6.26028">
        <ele>508.60000610352</ele>
        <time>2014-05-14T17:13:07.000Z</time>
      </trkpt>
      <trkpt lat="45.76854" lon="6.26038">
        <ele>513</ele>
        <time>2014-05-14T17:13:20.000Z</time>
      </trkpt>
      <trkpt lat="45.76846" lon="6.26036">
        <ele>511.60000610352</ele>
        <time>2014-05-14T17:13:26.000Z</time>
      </trkpt>
      <trkpt lat="45.76866" lon="6.26042">
        <ele>514.79998779297</ele>
        <time>2014-05-14T17:14:21.000Z</time>
      </trkpt>
      <trkpt lat="45.76835" lon="6.26028">
        <ele>509.79998779297</ele>
        <time>2014-05-14T17:15:19.000Z</time>
      </trkpt>
      <trkpt lat="45.76813" lon="6.2603">
        <ele>506.79998779297</ele>
        <time>2014-05-14T17:15:53.000Z</time>
      </trkpt>
      <trkpt lat="45.76812" lon="6.26031">
        <ele>506.60000610352</ele>
        <time>2014-05-14T17:15:54.000Z</time>
      </trkpt>
      <trkpt lat="45.76801" lon="6.26041">
        <ele>505.79998779297</ele>
        <time>2014-05-14T17:15:59.000Z</time>
      </trkpt>
      <trkpt lat="45.76791" lon="6.26041">
        <ele>505.39999389648</ele>
        <time>2014-05-14T17:16:01.000Z</time>
      </trkpt>
      <trkpt lat="45.76769" lon="6.26022">
        <ele>503.79998779297</ele>
        <time>2014-05-14T17:16:09.000Z</time>
      </trkpt>
      <trkpt lat="45.76766" lon="6.26018">
        <ele>503.39999389648</ele>
        <time>2014-05-14T17:16:11.000Z</time>
      </trkpt>
      <trkpt lat="45.76762" lon="6.26007">
        <ele>502.79998779297</ele>
        <time>2014-05-14T17:16:28.000Z</time>
      </trkpt>
      <trkpt lat="45.76756" lon="6.26003">
        <ele>502.39999389648</ele>
        <time>2014-05-14T17:16:56.000Z</time>
      </trkpt>
      <trkpt lat="45.76749" lon="6.25983">
        <ele>501.20001220703</ele>
        <time>2014-05-14T17:17:03.000Z</time>
      </trkpt>
      <trkpt lat="45.76751" lon="6.25955">
        <ele>500.39999389648</ele>
        <time>2014-05-14T17:17:09.000Z</time>
      </trkpt>
      <trkpt lat="45.76746" lon="6.2593">
        <ele>499.60000610352</ele>
        <time>2014-05-14T17:17:14.000Z</time>
      </trkpt>
      <trkpt lat="45.76732" lon="6.25907">
        <ele>498.60000610352</ele>
        <time>2014-05-14T17:17:19.000Z</time>
      </trkpt>
      <trkpt lat="45.76704" lon="6.25884">
        <ele>497.39999389648</ele>
        <time>2014-05-14T17:17:25.000Z</time>
      </trkpt>
      <trkpt lat="45.76666" lon="6.25854">
        <ele>496.39999389648</ele>
        <time>2014-05-14T17:17:32.000Z</time>
      </trkpt>
      <trkpt lat="45.76661" lon="6.25848">
        <ele>496.20001220703</ele>
        <time>2014-05-14T17:17:33.000Z</time>
      </trkpt>
      <trkpt lat="45.76631" lon="6.25796">
        <ele>494.39999389648</ele>
        <time>2014-05-14T17:17:40.000Z</time>
      </trkpt>
      <trkpt lat="45.766" lon="6.25743">
        <ele>492.39999389648</ele>
        <time>2014-05-14T17:17:47.000Z</time>
      </trkpt>
      <trkpt lat="45.76568" lon="6.2572">
        <ele>491.20001220703</ele>
        <time>2014-05-14T17:17:52.000Z</time>
      </trkpt>
      <trkpt lat="45.76512" lon="6.2569">
        <ele>489</ele>
        <time>2014-05-14T17:18:00.000Z</time>
      </trkpt>
      <trkpt lat="45.76466" lon="6.25648">
        <ele>486.79998779297</ele>
        <time>2014-05-14T17:18:07.000Z</time>
      </trkpt>
      <trkpt lat="45.76406" lon="6.25597">
        <ele>484.79998779297</ele>
        <time>2014-05-14T17:18:16.000Z</time>
      </trkpt>
      <trkpt lat="45.76393" lon="6.2559">
        <ele>484.39999389648</ele>
        <time>2014-05-14T17:18:18.000Z</time>
      </trkpt>
      <trkpt lat="45.76358" lon="6.25576">
        <ele>483.79998779297</ele>
        <time>2014-05-14T17:18:23.000Z</time>
      </trkpt>
      <trkpt lat="45.76311" lon="6.25566">
        <ele>483.20001220703</ele>
        <time>2014-05-14T17:18:30.000Z</time>
      </trkpt>
      <trkpt lat="45.76306" lon="6.25565">
        <ele>483</ele>
        <time>2014-05-14T17:18:31.000Z</time>
      </trkpt>
      <trkpt lat="45.76287" lon="6.25551">
        <ele>482.60000610352</ele>
        <time>2014-05-14T17:18:36.000Z</time>
      </trkpt>
      <trkpt lat="45.76279" lon="6.25542">
        <ele>482.39999389648</ele>
        <time>2014-05-14T17:18:40.000Z</time>
      </trkpt>
      <trkpt lat="45.76266" lon="6.25541">
        <ele>482</ele>
        <time>2014-05-14T17:18:44.000Z</time>
      </trkpt>
      <trkpt lat="45.76252" lon="6.25533">
        <ele>481.79998779297</ele>
        <time>2014-05-14T17:18:48.000Z</time>
      </trkpt>
      <trkpt lat="45.76257" lon="6.25524">
        <ele>481.79998779297</ele>
        <time>2014-05-14T17:18:51.000Z</time>
      </trkpt>
      <trkpt lat="45.76268" lon="6.25514">
        <ele>482.20001220703</ele>
        <time>2014-05-14T17:18:54.000Z</time>
      </trkpt>
      <trkpt lat="45.76276" lon="6.25498">
        <ele>482.79998779297</ele>
        <time>2014-05-14T17:18:57.000Z</time>
      </trkpt>
      <trkpt lat="45.76287" lon="6.25459">
        <ele>482.79998779297</ele>
        <time>2014-05-14T17:19:02.000Z</time>
      </trkpt>
      <trkpt lat="45.76307" lon="6.25386">
        <ele>479</ele>
        <time>2014-05-14T17:19:10.000Z</time>
      </trkpt>
      <trkpt lat="45.76326" lon="6.25332">
        <ele>478.79998779297</ele>
        <time>2014-05-14T17:19:16.000Z</time>
      </trkpt>
      <trkpt lat="45.76355" lon="6.2526">
        <ele>479.79998779297</ele>
        <time>2014-05-14T17:19:24.000Z</time>
      </trkpt>
      <trkpt lat="45.76409" lon="6.25157">
        <ele>479.20001220703</ele>
        <time>2014-05-14T17:19:36.000Z</time>
      </trkpt>
      <trkpt lat="45.7647" lon="6.25046">
        <ele>480.60000610352</ele>
        <time>2014-05-14T17:19:49.000Z</time>
      </trkpt>
      <trkpt lat="45.76521" lon="6.24951">
        <ele>479.20001220703</ele>
        <time>2014-05-14T17:20:00.000Z</time>
      </trkpt>
      <trkpt lat="45.76559" lon="6.24882">
        <ele>478.60000610352</ele>
        <time>2014-05-14T17:20:08.000Z</time>
      </trkpt>
      <trkpt lat="45.76615" lon="6.24776">
        <ele>479</ele>
        <time>2014-05-14T17:20:20.000Z</time>
      </trkpt>
      <trkpt lat="45.76666" lon="6.24691">
        <ele>477</ele>
        <time>2014-05-14T17:20:30.000Z</time>
      </trkpt>
      <trkpt lat="45.76724" lon="6.24611">
        <ele>476.20001220703</ele>
        <time>2014-05-14T17:20:40.000Z</time>
      </trkpt>
      <trkpt lat="45.76781" lon="6.24537">
        <ele>478</ele>
        <time>2014-05-14T17:20:50.000Z</time>
      </trkpt>
      <trkpt lat="45.7684" lon="6.24463">
        <ele>475.60000610352</ele>
        <time>2014-05-14T17:21:00.000Z</time>
      </trkpt>
      <trkpt lat="45.76913" lon="6.24362">
        <ele>473.60000610352</ele>
        <time>2014-05-14T17:21:13.000Z</time>
      </trkpt>
      <trkpt lat="45.76926" lon="6.24337">
        <ele>472.39999389648</ele>
        <time>2014-05-14T17:21:16.000Z</time>
      </trkpt>
      <trkpt lat="45.76959" lon="6.2429">
        <ele>471</ele>
        <time>2014-05-14T17:21:22.000Z</time>
      </trkpt>
      <trkpt lat="45.77023" lon="6.24209">
        <ele>472.20001220703</ele>
        <time>2014-05-14T17:21:33.000Z</time>
      </trkpt>
      <trkpt lat="45.77076" lon="6.24138">
        <ele>469</ele>
        <time>2014-05-14T17:21:42.000Z</time>
      </trkpt>
      <trkpt lat="45.77127" lon="6.24073">
        <ele>467.60000610352</ele>
        <time>2014-05-14T17:21:51.000Z</time>
      </trkpt>
      <trkpt lat="45.77171" lon="6.24012">
        <ele>466.39999389648</ele>
        <time>2014-05-14T17:21:59.000Z</time>
      </trkpt>
      <trkpt lat="45.77204" lon="6.23968">
        <ele>465.79998779297</ele>
        <time>2014-05-14T17:22:05.000Z</time>
      </trkpt>
      <trkpt lat="45.77236" lon="6.23928">
        <ele>465</ele>
        <time>2014-05-14T17:22:11.000Z</time>
      </trkpt>
      <trkpt lat="45.77241" lon="6.23921">
        <ele>464.79998779297</ele>
        <time>2014-05-14T17:22:12.000Z</time>
      </trkpt>
      <trkpt lat="45.77256" lon="6.23898">
        <ele>464.79998779297</ele>
        <time>2014-05-14T17:22:15.000Z</time>
      </trkpt>
      <trkpt lat="45.7729" lon="6.23858">
        <ele>465.60000610352</ele>
        <time>2014-05-14T17:22:21.000Z</time>
      </trkpt>
      <trkpt lat="45.77347" lon="6.23793">
        <ele>464.39999389648</ele>
        <time>2014-05-14T17:22:31.000Z</time>
      </trkpt>
      <trkpt lat="45.77351" lon="6.23787">
        <ele>464.39999389648</ele>
        <time>2014-05-14T17:22:32.000Z</time>
      </trkpt>
      <trkpt lat="45.77409" lon="6.23721">
        <ele>464.39999389648</ele>
        <time>2014-05-14T17:22:42.000Z</time>
      </trkpt>
      <trkpt lat="45.77474" lon="6.23636">
        <ele>466.39999389648</ele>
        <time>2014-05-14T17:22:54.000Z</time>
      </trkpt>
      <trkpt lat="45.77528" lon="6.23565">
        <ele>467.60000610352</ele>
        <time>2014-05-14T17:23:04.000Z</time>
      </trkpt>
      <trkpt lat="45.77582" lon="6.23495">
        <ele>468.20001220703</ele>
        <time>2014-05-14T17:23:14.000Z</time>
      </trkpt>
      <trkpt lat="45.77624" lon="6.23426">
        <ele>469</ele>
        <time>2014-05-14T17:23:23.000Z</time>
      </trkpt>
      <trkpt lat="45.7766" lon="6.23381">
        <ele>468.79998779297</ele>
        <time>2014-05-14T17:23:30.000Z</time>
      </trkpt>
      <trkpt lat="45.77693" lon="6.23342">
        <ele>468.60000610352</ele>
        <time>2014-05-14T17:23:36.000Z</time>
      </trkpt>
      <trkpt lat="45.77749" lon="6.23269">
        <ele>468.39999389648</ele>
        <time>2014-05-14T17:23:47.000Z</time>
      </trkpt>
      <trkpt lat="45.77753" lon="6.23263">
        <ele>468.39999389648</ele>
        <time>2014-05-14T17:23:48.000Z</time>
      </trkpt>
      <trkpt lat="45.77762" lon="6.23249">
        <ele>468.20001220703</ele>
        <time>2014-05-14T17:23:52.000Z</time>
      </trkpt>
      <trkpt lat="45.77769" lon="6.23239">
        <ele>468.20001220703</ele>
        <time>2014-05-14T17:23:55.000Z</time>
      </trkpt>
      <trkpt lat="45.77768" lon="6.23219">
        <ele>468.20001220703</ele>
        <time>2014-05-14T17:23:59.000Z</time>
      </trkpt>
      <trkpt lat="45.77772" lon="6.23203">
        <ele>468.60000610352</ele>
        <time>2014-05-14T17:24:02.000Z</time>
      </trkpt>
      <trkpt lat="45.77789" lon="6.23176">
        <ele>468.79998779297</ele>
        <time>2014-05-14T17:24:07.000Z</time>
      </trkpt>
      <trkpt lat="45.77819" lon="6.23125">
        <ele>469.20001220703</ele>
        <time>2014-05-14T17:24:15.000Z</time>
      </trkpt>
      <trkpt lat="45.77829" lon="6.23102">
        <ele>469.60000610352</ele>
        <time>2014-05-14T17:24:18.000Z</time>
      </trkpt>
      <trkpt lat="45.77834" lon="6.23086">
        <ele>469.79998779297</ele>
        <time>2014-05-14T17:24:20.000Z</time>
      </trkpt>
      <trkpt lat="45.77854" lon="6.23051">
        <ele>470</ele>
        <time>2014-05-14T17:24:25.000Z</time>
      </trkpt>
      <trkpt lat="45.77903" lon="6.22983">
        <ele>469.39999389648</ele>
        <time>2014-05-14T17:24:35.000Z</time>
      </trkpt>
      <trkpt lat="45.77965" lon="6.22905">
        <ele>467.20001220703</ele>
        <time>2014-05-14T17:24:47.000Z</time>
      </trkpt>
      <trkpt lat="45.78013" lon="6.22844">
        <ele>466.39999389648</ele>
        <time>2014-05-14T17:24:56.000Z</time>
      </trkpt>
      <trkpt lat="45.78019" lon="6.22838">
        <ele>466.39999389648</ele>
        <time>2014-05-14T17:24:57.000Z</time>
      </trkpt>
      <trkpt lat="45.78053" lon="6.22822">
        <ele>466</ele>
        <time>2014-05-14T17:25:02.000Z</time>
      </trkpt>
      <trkpt lat="45.78066" lon="6.22824">
        <ele>465.79998779297</ele>
        <time>2014-05-14T17:25:04.000Z</time>
      </trkpt>
      <trkpt lat="45.78089" lon="6.22819">
        <ele>465.60000610352</ele>
        <time>2014-05-14T17:25:09.000Z</time>
      </trkpt>
      <trkpt lat="45.78102" lon="6.22802">
        <ele>465.39999389648</ele>
        <time>2014-05-14T17:25:13.000Z</time>
      </trkpt>
      <trkpt lat="45.78139" lon="6.22759">
        <ele>464.39999389648</ele>
        <time>2014-05-14T17:25:21.000Z</time>
      </trkpt>
      <trkpt lat="45.78189" lon="6.22695">
        <ele>464.39999389648</ele>
        <time>2014-05-14T17:25:31.000Z</time>
      </trkpt>
      <trkpt lat="45.78238" lon="6.22633">
        <ele>465.60000610352</ele>
        <time>2014-05-14T17:25:40.000Z</time>
      </trkpt>
      <trkpt lat="45.78298" lon="6.22553">
        <ele>466.20001220703</ele>
        <time>2014-05-14T17:25:51.000Z</time>
      </trkpt>
      <trkpt lat="45.78346" lon="6.22487">
        <ele>466</ele>
        <time>2014-05-14T17:26:00.000Z</time>
      </trkpt>
      <trkpt lat="45.7836" lon="6.22466">
        <ele>465.60000610352</ele>
        <time>2014-05-14T17:26:03.000Z</time>
      </trkpt>
      <trkpt lat="45.78368" lon="6.22457">
        <ele>465.39999389648</ele>
        <time>2014-05-14T17:26:05.000Z</time>
      </trkpt>
      <trkpt lat="45.78376" lon="6.22446">
        <ele>464.79998779297</ele>
        <time>2014-05-14T17:26:07.000Z</time>
      </trkpt>
      <trkpt lat="45.78383" lon="6.22437">
        <ele>464.20001220703</ele>
        <time>2014-05-14T17:26:09.000Z</time>
      </trkpt>
      <trkpt lat="45.78403" lon="6.22406">
        <ele>463</ele>
        <time>2014-05-14T17:26:14.000Z</time>
      </trkpt>
      <trkpt lat="45.78424" lon="6.2237">
        <ele>462.20001220703</ele>
        <time>2014-05-14T17:26:19.000Z</time>
      </trkpt>
      <trkpt lat="45.78465" lon="6.22299">
        <ele>461</ele>
        <time>2014-05-14T17:26:28.000Z</time>
      </trkpt>
      <trkpt lat="45.78504" lon="6.2222">
        <ele>461</ele>
        <time>2014-05-14T17:26:37.000Z</time>
      </trkpt>
      <trkpt lat="45.78547" lon="6.22127">
        <ele>460.60000610352</ele>
        <time>2014-05-14T17:26:47.000Z</time>
      </trkpt>
      <trkpt lat="45.78581" lon="6.22053">
        <ele>459</ele>
        <time>2014-05-14T17:26:55.000Z</time>
      </trkpt>
      <trkpt lat="45.78621" lon="6.21967">
        <ele>458</ele>
        <time>2014-05-14T17:27:04.000Z</time>
      </trkpt>
      <trkpt lat="45.78668" lon="6.21872">
        <ele>457.79998779297</ele>
        <time>2014-05-14T17:27:14.000Z</time>
      </trkpt>
      <trkpt lat="45.78719" lon="6.21786">
        <ele>455.79998779297</ele>
        <time>2014-05-14T17:27:24.000Z</time>
      </trkpt>
      <trkpt lat="45.78772" lon="6.21711">
        <ele>454.39999389648</ele>
        <time>2014-05-14T17:27:33.000Z</time>
      </trkpt>
      <trkpt lat="45.78823" lon="6.21649">
        <ele>454.20001220703</ele>
        <time>2014-05-14T17:27:41.000Z</time>
      </trkpt>
      <trkpt lat="45.78893" lon="6.21578">
        <ele>455.79998779297</ele>
        <time>2014-05-14T17:27:51.000Z</time>
      </trkpt>
      <trkpt lat="45.7894" lon="6.21527">
        <ele>453.79998779297</ele>
        <time>2014-05-14T17:27:58.000Z</time>
      </trkpt>
      <trkpt lat="45.78977" lon="6.21495">
        <ele>453.79998779297</ele>
        <time>2014-05-14T17:28:03.000Z</time>
      </trkpt>
      <trkpt lat="45.79013" lon="6.21459">
        <ele>453.79998779297</ele>
        <time>2014-05-14T17:28:08.000Z</time>
      </trkpt>
      <trkpt lat="45.79057" lon="6.21419">
        <ele>453</ele>
        <time>2014-05-14T17:28:14.000Z</time>
      </trkpt>
      <trkpt lat="45.79092" lon="6.21385">
        <ele>453.20001220703</ele>
        <time>2014-05-14T17:28:19.000Z</time>
      </trkpt>
      <trkpt lat="45.79131" lon="6.21348">
        <ele>454.20001220703</ele>
        <time>2014-05-14T17:28:25.000Z</time>
      </trkpt>
      <trkpt lat="45.79136" lon="6.21342">
        <ele>454.20001220703</ele>
        <time>2014-05-14T17:28:26.000Z</time>
      </trkpt>
      <trkpt lat="45.7916" lon="6.21322">
        <ele>454</ele>
        <time>2014-05-14T17:28:31.000Z</time>
      </trkpt>
      <trkpt lat="45.79169" lon="6.21314">
        <ele>453.60000610352</ele>
        <time>2014-05-14T17:28:33.000Z</time>
      </trkpt>
      <trkpt lat="45.79198" lon="6.21288">
        <ele>452.79998779297</ele>
        <time>2014-05-14T17:28:39.000Z</time>
      </trkpt>
      <trkpt lat="45.79231" lon="6.21267">
        <ele>451.60000610352</ele>
        <time>2014-05-14T17:28:45.000Z</time>
      </trkpt>
      <trkpt lat="45.79245" lon="6.21255">
        <ele>452</ele>
        <time>2014-05-14T17:28:48.000Z</time>
      </trkpt>
      <trkpt lat="45.79286" lon="6.2123">
        <ele>452</ele>
        <time>2014-05-14T17:28:55.000Z</time>
      </trkpt>
      <trkpt lat="45.79315" lon="6.21216">
        <ele>452.20001220703</ele>
        <time>2014-05-14T17:29:00.000Z</time>
      </trkpt>
      <trkpt lat="45.79354" lon="6.21199">
        <ele>453.20001220703</ele>
        <time>2014-05-14T17:29:07.000Z</time>
      </trkpt>
      <trkpt lat="45.79396" lon="6.21185">
        <ele>454.79998779297</ele>
        <time>2014-05-14T17:29:14.000Z</time>
      </trkpt>
      <trkpt lat="45.79402" lon="6.21184">
        <ele>454.79998779297</ele>
        <time>2014-05-14T17:29:15.000Z</time>
      </trkpt>
      <trkpt lat="45.79434" lon="6.21175">
        <ele>455.79998779297</ele>
        <time>2014-05-14T17:29:20.000Z</time>
      </trkpt>
      <trkpt lat="45.79486" lon="6.21167">
        <ele>456.39999389648</ele>
        <time>2014-05-14T17:29:28.000Z</time>
      </trkpt>
      <trkpt lat="45.79513" lon="6.21165">
        <ele>456.60000610352</ele>
        <time>2014-05-14T17:29:32.000Z</time>
      </trkpt>
      <trkpt lat="45.79531" lon="6.21165">
        <ele>456.79998779297</ele>
        <time>2014-05-14T17:29:36.000Z</time>
      </trkpt>
      <trkpt lat="45.79562" lon="6.21165">
        <ele>457</ele>
        <time>2014-05-14T17:29:42.000Z</time>
      </trkpt>
      <trkpt lat="45.79602" lon="6.21165">
        <ele>457.20001220703</ele>
        <time>2014-05-14T17:29:49.000Z</time>
      </trkpt>
      <trkpt lat="45.79637" lon="6.21164">
        <ele>457.60000610352</ele>
        <time>2014-05-14T17:29:55.000Z</time>
      </trkpt>
      <trkpt lat="45.79665" lon="6.21165">
        <ele>456.79998779297</ele>
        <time>2014-05-14T17:30:00.000Z</time>
      </trkpt>
      <trkpt lat="45.79709" lon="6.21166">
        <ele>454.60000610352</ele>
        <time>2014-05-14T17:30:07.000Z</time>
      </trkpt>
      <trkpt lat="45.79767" lon="6.21164">
        <ele>454.20001220703</ele>
        <time>2014-05-14T17:30:16.000Z</time>
      </trkpt>
      <trkpt lat="45.79833" lon="6.21162">
        <ele>455.20001220703</ele>
        <time>2014-05-14T17:30:26.000Z</time>
      </trkpt>
      <trkpt lat="45.79899" lon="6.21159">
        <ele>457.79998779297</ele>
        <time>2014-05-14T17:30:36.000Z</time>
      </trkpt>
      <trkpt lat="45.79961" lon="6.21158">
        <ele>460.79998779297</ele>
        <time>2014-05-14T17:30:45.000Z</time>
      </trkpt>
      <trkpt lat="45.79998" lon="6.21158">
        <ele>461</ele>
        <time>2014-05-14T17:30:51.000Z</time>
      </trkpt>
      <trkpt lat="45.80038" lon="6.21156">
        <ele>460.60000610352</ele>
        <time>2014-05-14T17:30:57.000Z</time>
      </trkpt>
      <trkpt lat="45.8009" lon="6.21153">
        <ele>461.39999389648</ele>
        <time>2014-05-14T17:31:05.000Z</time>
      </trkpt>
      <trkpt lat="45.80137" lon="6.21151">
        <ele>463.39999389648</ele>
        <time>2014-05-14T17:31:12.000Z</time>
      </trkpt>
      <trkpt lat="45.80195" lon="6.21149">
        <ele>465</ele>
        <time>2014-05-14T17:31:20.000Z</time>
      </trkpt>
      <trkpt lat="45.80232" lon="6.21148">
        <ele>465.79998779297</ele>
        <time>2014-05-14T17:31:25.000Z</time>
      </trkpt>
      <trkpt lat="45.80249" lon="6.21145">
        <ele>466</ele>
        <time>2014-05-14T17:31:28.000Z</time>
      </trkpt>
      <trkpt lat="45.803" lon="6.21143">
        <ele>466</ele>
        <time>2014-05-14T17:31:36.000Z</time>
      </trkpt>
      <trkpt lat="45.80338" lon="6.21139">
        <ele>466.60000610352</ele>
        <time>2014-05-14T17:31:42.000Z</time>
      </trkpt>
      <trkpt lat="45.80368" lon="6.21133">
        <ele>467.39999389648</ele>
        <time>2014-05-14T17:31:47.000Z</time>
      </trkpt>
      <trkpt lat="45.80413" lon="6.21123">
        <ele>468</ele>
        <time>2014-05-14T17:31:54.000Z</time>
      </trkpt>
      <trkpt lat="45.80435" lon="6.21116">
        <ele>468.20001220703</ele>
        <time>2014-05-14T17:31:57.000Z</time>
      </trkpt>
      <trkpt lat="45.80476" lon="6.21102">
        <ele>469.60000610352</ele>
        <time>2014-05-14T17:32:03.000Z</time>
      </trkpt>
      <trkpt lat="45.80511" lon="6.21092">
        <ele>469.39999389648</ele>
        <time>2014-05-14T17:32:08.000Z</time>
      </trkpt>
      <trkpt lat="45.80559" lon="6.21074">
        <ele>470.60000610352</ele>
        <time>2014-05-14T17:32:15.000Z</time>
      </trkpt>
      <trkpt lat="45.80593" lon="6.21061">
        <ele>471.60000610352</ele>
        <time>2014-05-14T17:32:20.000Z</time>
      </trkpt>
      <trkpt lat="45.80627" lon="6.21048">
        <ele>471.39999389648</ele>
        <time>2014-05-14T17:32:25.000Z</time>
      </trkpt>
      <trkpt lat="45.80665" lon="6.21035">
        <ele>470.60000610352</ele>
        <time>2014-05-14T17:32:30.000Z</time>
      </trkpt>
      <trkpt lat="45.80701" lon="6.21022">
        <ele>470.20001220703</ele>
        <time>2014-05-14T17:32:35.000Z</time>
      </trkpt>
      <trkpt lat="45.8075" lon="6.21007">
        <ele>467.20001220703</ele>
        <time>2014-05-14T17:32:41.000Z</time>
      </trkpt>
      <trkpt lat="45.80781" lon="6.20998">
        <ele>466.39999389648</ele>
        <time>2014-05-14T17:32:45.000Z</time>
      </trkpt>
      <trkpt lat="45.80842" lon="6.20975">
        <ele>467.79998779297</ele>
        <time>2014-05-14T17:32:53.000Z</time>
      </trkpt>
      <trkpt lat="45.80904" lon="6.20954">
        <ele>468.79998779297</ele>
        <time>2014-05-14T17:33:01.000Z</time>
      </trkpt>
      <trkpt lat="45.80919" lon="6.20949">
        <ele>469</ele>
        <time>2014-05-14T17:33:03.000Z</time>
      </trkpt>
      <trkpt lat="45.80941" lon="6.20949">
        <ele>469</ele>
        <time>2014-05-14T17:33:06.000Z</time>
      </trkpt>
      <trkpt lat="45.80958" lon="6.20939">
        <ele>468.39999389648</ele>
        <time>2014-05-14T17:33:10.000Z</time>
      </trkpt>
      <trkpt lat="45.80973" lon="6.20929">
        <ele>468</ele>
        <time>2014-05-14T17:33:14.000Z</time>
      </trkpt>
      <trkpt lat="45.80982" lon="6.20924">
        <ele>467.60000610352</ele>
        <time>2014-05-14T17:33:16.000Z</time>
      </trkpt>
      <trkpt lat="45.81017" lon="6.20911">
        <ele>466.60000610352</ele>
        <time>2014-05-14T17:33:22.000Z</time>
      </trkpt>
      <trkpt lat="45.81061" lon="6.20897">
        <ele>465.60000610352</ele>
        <time>2014-05-14T17:33:28.000Z</time>
      </trkpt>
      <trkpt lat="45.8113" lon="6.20873">
        <ele>464.60000610352</ele>
        <time>2014-05-14T17:33:37.000Z</time>
      </trkpt>
      <trkpt lat="45.81195" lon="6.2085">
        <ele>462.79998779297</ele>
        <time>2014-05-14T17:33:45.000Z</time>
      </trkpt>
      <trkpt lat="45.81269" lon="6.20828">
        <ele>461.60000610352</ele>
        <time>2014-05-14T17:33:54.000Z</time>
      </trkpt>
      <trkpt lat="45.81318" lon="6.20816">
        <ele>460.60000610352</ele>
        <time>2014-05-14T17:34:00.000Z</time>
      </trkpt>
      <trkpt lat="45.81383" lon="6.208">
        <ele>462.20001220703</ele>
        <time>2014-05-14T17:34:08.000Z</time>
      </trkpt>
      <trkpt lat="45.81434" lon="6.2079">
        <ele>460</ele>
        <time>2014-05-14T17:34:14.000Z</time>
      </trkpt>
      <trkpt lat="45.81509" lon="6.20772">
        <ele>460.20001220703</ele>
        <time>2014-05-14T17:34:23.000Z</time>
      </trkpt>
      <trkpt lat="45.81586" lon="6.20754">
        <ele>459.39999389648</ele>
        <time>2014-05-14T17:34:32.000Z</time>
      </trkpt>
      <trkpt lat="45.81689" lon="6.20729">
        <ele>458.39999389648</ele>
        <time>2014-05-14T17:34:44.000Z</time>
      </trkpt>
      <trkpt lat="45.81757" lon="6.20713">
        <ele>457.60000610352</ele>
        <time>2014-05-14T17:34:52.000Z</time>
      </trkpt>
      <trkpt lat="45.81837" lon="6.20692">
        <ele>457.20001220703</ele>
        <time>2014-05-14T17:35:01.000Z</time>
      </trkpt>
      <trkpt lat="45.81894" lon="6.20669">
        <ele>457.79998779297</ele>
        <time>2014-05-14T17:35:08.000Z</time>
      </trkpt>
      <trkpt lat="45.81933" lon="6.20651">
        <ele>457</ele>
        <time>2014-05-14T17:35:13.000Z</time>
      </trkpt>
      <trkpt lat="45.81987" lon="6.2063">
        <ele>459.79998779297</ele>
        <time>2014-05-14T17:35:20.000Z</time>
      </trkpt>
      <trkpt lat="45.82032" lon="6.20621">
        <ele>463.60000610352</ele>
        <time>2014-05-14T17:35:26.000Z</time>
      </trkpt>
      <trkpt lat="45.8208" lon="6.20624">
        <ele>469.20001220703</ele>
        <time>2014-05-14T17:35:32.000Z</time>
      </trkpt>
      <trkpt lat="45.82133" lon="6.20644">
        <ele>468.79998779297</ele>
        <time>2014-05-14T17:35:39.000Z</time>
      </trkpt>
      <trkpt lat="45.82182" lon="6.20675">
        <ele>470.60000610352</ele>
        <time>2014-05-14T17:35:45.000Z</time>
      </trkpt>
      <trkpt lat="45.82228" lon="6.20721">
        <ele>468.39999389648</ele>
        <time>2014-05-14T17:35:52.000Z</time>
      </trkpt>
      <trkpt lat="45.82285" lon="6.20785">
        <ele>462.60000610352</ele>
        <time>2014-05-14T17:36:01.000Z</time>
      </trkpt>
      <trkpt lat="45.82298" lon="6.20797">
        <ele>462</ele>
        <time>2014-05-14T17:36:03.000Z</time>
      </trkpt>
      <trkpt lat="45.82337" lon="6.20822">
        <ele>459</ele>
        <time>2014-05-14T17:36:08.000Z</time>
      </trkpt>
      <trkpt lat="45.82386" lon="6.20839">
        <ele>457</ele>
        <time>2014-05-14T17:36:14.000Z</time>
      </trkpt>
      <trkpt lat="45.82442" lon="6.20842">
        <ele>457</ele>
        <time>2014-05-14T17:36:21.000Z</time>
      </trkpt>
      <trkpt lat="45.82495" lon="6.2083">
        <ele>459.79998779297</ele>
        <time>2014-05-14T17:36:28.000Z</time>
      </trkpt>
      <trkpt lat="45.8255" lon="6.20803">
        <ele>457.79998779297</ele>
        <time>2014-05-14T17:36:35.000Z</time>
      </trkpt>
      <trkpt lat="45.82599" lon="6.2076">
        <ele>455.79998779297</ele>
        <time>2014-05-14T17:36:42.000Z</time>
      </trkpt>
      <trkpt lat="45.82622" lon="6.20727">
        <ele>455</ele>
        <time>2014-05-14T17:36:46.000Z</time>
      </trkpt>
      <trkpt lat="45.82641" lon="6.20681">
        <ele>462.39999389648</ele>
        <time>2014-05-14T17:36:51.000Z</time>
      </trkpt>
      <trkpt lat="45.82674" lon="6.20624">
        <ele>477.20001220703</ele>
        <time>2014-05-14T17:36:58.000Z</time>
      </trkpt>
      <trkpt lat="45.82692" lon="6.2038">
        <ele>457.60000610352</ele>
        <time>2014-05-14T17:37:26.000Z</time>
      </trkpt>
      <trkpt lat="45.82685" lon="6.20332">
        <ele>452.39999389648</ele>
        <time>2014-05-14T17:37:31.000Z</time>
      </trkpt>
      <trkpt lat="45.82673" lon="6.20243">
        <ele>450.60000610352</ele>
        <time>2014-05-14T17:37:40.000Z</time>
      </trkpt>
      <trkpt lat="45.8266" lon="6.20162">
        <ele>453</ele>
        <time>2014-05-14T17:37:48.000Z</time>
      </trkpt>
      <trkpt lat="45.82651" lon="6.20093">
        <ele>454.79998779297</ele>
        <time>2014-05-14T17:37:55.000Z</time>
      </trkpt>
      <trkpt lat="45.8264" lon="6.20013">
        <ele>456</ele>
        <time>2014-05-14T17:38:03.000Z</time>
      </trkpt>
      <trkpt lat="45.82628" lon="6.19915">
        <ele>454</ele>
        <time>2014-05-14T17:38:13.000Z</time>
      </trkpt>
      <trkpt lat="45.82618" lon="6.19846">
        <ele>452.20001220703</ele>
        <time>2014-05-14T17:38:20.000Z</time>
      </trkpt>
      <trkpt lat="45.82604" lon="6.19761">
        <ele>452</ele>
        <time>2014-05-14T17:38:29.000Z</time>
      </trkpt>
      <trkpt lat="45.82589" lon="6.19669">
        <ele>453</ele>
        <time>2014-05-14T17:38:39.000Z</time>
      </trkpt>
      <trkpt lat="45.82587" lon="6.19654">
        <ele>453.20001220703</ele>
        <time>2014-05-14T17:38:41.000Z</time>
      </trkpt>
      <trkpt lat="45.82581" lon="6.19626">
        <ele>453.39999389648</ele>
        <time>2014-05-14T17:38:46.000Z</time>
      </trkpt>
      <trkpt lat="45.82575" lon="6.19608">
        <ele>453.79998779297</ele>
        <time>2014-05-14T17:38:49.000Z</time>
      </trkpt>
      <trkpt lat="45.82571" lon="6.19589">
        <ele>454</ele>
        <time>2014-05-14T17:38:52.000Z</time>
      </trkpt>
      <trkpt lat="45.82566" lon="6.19536">
        <ele>454.79998779297</ele>
        <time>2014-05-14T17:38:59.000Z</time>
      </trkpt>
      <trkpt lat="45.82566" lon="6.19494">
        <ele>455.39999389648</ele>
        <time>2014-05-14T17:39:04.000Z</time>
      </trkpt>
      <trkpt lat="45.82571" lon="6.19416">
        <ele>455</ele>
        <time>2014-05-14T17:39:13.000Z</time>
      </trkpt>
      <trkpt lat="45.82584" lon="6.19333">
        <ele>455</ele>
        <time>2014-05-14T17:39:23.000Z</time>
      </trkpt>
      <trkpt lat="45.826" lon="6.19274">
        <ele>454.79998779297</ele>
        <time>2014-05-14T17:39:30.000Z</time>
      </trkpt>
      <trkpt lat="45.82621" lon="6.19203">
        <ele>454.79998779297</ele>
        <time>2014-05-14T17:39:38.000Z</time>
      </trkpt>
      <trkpt lat="45.82648" lon="6.1912">
        <ele>455.39999389648</ele>
        <time>2014-05-14T17:39:47.000Z</time>
      </trkpt>
      <trkpt lat="45.82677" lon="6.19027">
        <ele>454.60000610352</ele>
        <time>2014-05-14T17:39:58.000Z</time>
      </trkpt>
      <trkpt lat="45.82693" lon="6.1896">
        <ele>455.79998779297</ele>
        <time>2014-05-14T17:40:06.000Z</time>
      </trkpt>
      <trkpt lat="45.82707" lon="6.18893">
        <ele>456.39999389648</ele>
        <time>2014-05-14T17:40:14.000Z</time>
      </trkpt>
      <trkpt lat="45.82725" lon="6.18816">
        <ele>457.79998779297</ele>
        <time>2014-05-14T17:40:23.000Z</time>
      </trkpt>
      <trkpt lat="45.82734" lon="6.1877">
        <ele>458.79998779297</ele>
        <time>2014-05-14T17:40:28.000Z</time>
      </trkpt>
      <trkpt lat="45.82751" lon="6.1869">
        <ele>458.20001220703</ele>
        <time>2014-05-14T17:40:36.000Z</time>
      </trkpt>
      <trkpt lat="45.82766" lon="6.18622">
        <ele>457.20001220703</ele>
        <time>2014-05-14T17:40:43.000Z</time>
      </trkpt>
      <trkpt lat="45.82788" lon="6.18529">
        <ele>456.39999389648</ele>
        <time>2014-05-14T17:40:53.000Z</time>
      </trkpt>
      <trkpt lat="45.82809" lon="6.18433">
        <ele>456</ele>
        <time>2014-05-14T17:41:03.000Z</time>
      </trkpt>
      <trkpt lat="45.82822" lon="6.18374">
        <ele>456.79998779297</ele>
        <time>2014-05-14T17:41:09.000Z</time>
      </trkpt>
      <trkpt lat="45.82832" lon="6.18323">
        <ele>457</ele>
        <time>2014-05-14T17:41:14.000Z</time>
      </trkpt>
      <trkpt lat="45.82844" lon="6.18272">
        <ele>457.60000610352</ele>
        <time>2014-05-14T17:41:19.000Z</time>
      </trkpt>
      <trkpt lat="45.82854" lon="6.18231">
        <ele>457.60000610352</ele>
        <time>2014-05-14T17:41:23.000Z</time>
      </trkpt>
      <trkpt lat="45.8287" lon="6.18149">
        <ele>458</ele>
        <time>2014-05-14T17:41:31.000Z</time>
      </trkpt>
      <trkpt lat="45.82884" lon="6.18088">
        <ele>456.79998779297</ele>
        <time>2014-05-14T17:41:37.000Z</time>
      </trkpt>
      <trkpt lat="45.82893" lon="6.18049">
        <ele>456</ele>
        <time>2014-05-14T17:41:41.000Z</time>
      </trkpt>
      <trkpt lat="45.82905" lon="6.17988">
        <ele>455.79998779297</ele>
        <time>2014-05-14T17:41:47.000Z</time>
      </trkpt>
      <trkpt lat="45.82933" lon="6.17865">
        <ele>457.60000610352</ele>
        <time>2014-05-14T17:41:59.000Z</time>
      </trkpt>
      <trkpt lat="45.82954" lon="6.17787">
        <ele>458.79998779297</ele>
        <time>2014-05-14T17:42:07.000Z</time>
      </trkpt>
      <trkpt lat="45.82976" lon="6.17734">
        <ele>459.79998779297</ele>
        <time>2014-05-14T17:42:13.000Z</time>
      </trkpt>
      <trkpt lat="45.83015" lon="6.17655">
        <ele>459</ele>
        <time>2014-05-14T17:42:23.000Z</time>
      </trkpt>
      <trkpt lat="45.8305" lon="6.17581">
        <ele>458.79998779297</ele>
        <time>2014-05-14T17:42:33.000Z</time>
      </trkpt>
      <trkpt lat="45.83079" lon="6.17519">
        <ele>460</ele>
        <time>2014-05-14T17:42:41.000Z</time>
      </trkpt>
      <trkpt lat="45.83112" lon="6.17449">
        <ele>461.60000610352</ele>
        <time>2014-05-14T17:42:50.000Z</time>
      </trkpt>
      <trkpt lat="45.83145" lon="6.17377">
        <ele>461.20001220703</ele>
        <time>2014-05-14T17:42:59.000Z</time>
      </trkpt>
      <trkpt lat="45.83181" lon="6.1731">
        <ele>461.60000610352</ele>
        <time>2014-05-14T17:43:08.000Z</time>
      </trkpt>
      <trkpt lat="45.83189" lon="6.17295">
        <ele>461.60000610352</ele>
        <time>2014-05-14T17:43:10.000Z</time>
      </trkpt>
      <trkpt lat="45.83209" lon="6.1728">
        <ele>461.60000610352</ele>
        <time>2014-05-14T17:43:14.000Z</time>
      </trkpt>
      <trkpt lat="45.83225" lon="6.17268">
        <ele>461.39999389648</ele>
        <time>2014-05-14T17:43:17.000Z</time>
      </trkpt>
      <trkpt lat="45.83233" lon="6.17253">
        <ele>461.60000610352</ele>
        <time>2014-05-14T17:43:19.000Z</time>
      </trkpt>
      <trkpt lat="45.83238" lon="6.17235">
        <ele>461.79998779297</ele>
        <time>2014-05-14T17:43:21.000Z</time>
      </trkpt>
      <trkpt lat="45.83239" lon="6.17211">
        <ele>461.79998779297</ele>
        <time>2014-05-14T17:43:24.000Z</time>
      </trkpt>
      <trkpt lat="45.8324" lon="6.17194">
        <ele>461.79998779297</ele>
        <time>2014-05-14T17:43:27.000Z</time>
      </trkpt>
      <trkpt lat="45.83243" lon="6.17176">
        <ele>461.79998779297</ele>
        <time>2014-05-14T17:43:31.000Z</time>
      </trkpt>
      <trkpt lat="45.83253" lon="6.17146">
        <ele>461.60000610352</ele>
        <time>2014-05-14T17:43:37.000Z</time>
      </trkpt>
      <trkpt lat="45.8327" lon="6.1711">
        <ele>461.39999389648</ele>
        <time>2014-05-14T17:43:44.000Z</time>
      </trkpt>
      <trkpt lat="45.83276" lon="6.17096">
        <ele>461.60000610352</ele>
        <time>2014-05-14T17:43:47.000Z</time>
      </trkpt>
      <trkpt lat="45.83289" lon="6.17068">
        <ele>462</ele>
        <time>2014-05-14T17:43:54.000Z</time>
      </trkpt>
      <trkpt lat="45.83305" lon="6.17033">
        <ele>462</ele>
        <time>2014-05-14T17:44:02.000Z</time>
      </trkpt>
      <trkpt lat="45.83311" lon="6.17018">
        <ele>461.79998779297</ele>
        <time>2014-05-14T17:44:06.000Z</time>
      </trkpt>
      <trkpt lat="45.83322" lon="6.16995">
        <ele>461.39999389648</ele>
        <time>2014-05-14T17:44:11.000Z</time>
      </trkpt>
      <trkpt lat="45.83345" lon="6.1695">
        <ele>461</ele>
        <time>2014-05-14T17:44:20.000Z</time>
      </trkpt>
      <trkpt lat="45.83355" lon="6.16929">
        <ele>460.79998779297</ele>
        <time>2014-05-14T17:44:24.000Z</time>
      </trkpt>
      <trkpt lat="45.83365" lon="6.16909">
        <ele>460.60000610352</ele>
        <time>2014-05-14T17:44:28.000Z</time>
      </trkpt>
      <trkpt lat="45.83377" lon="6.16884">
        <ele>460.20001220703</ele>
        <time>2014-05-14T17:44:33.000Z</time>
      </trkpt>
      <trkpt lat="45.83394" lon="6.16848">
        <ele>460.39999389648</ele>
        <time>2014-05-14T17:44:40.000Z</time>
      </trkpt>
      <trkpt lat="45.83409" lon="6.16817">
        <ele>460.60000610352</ele>
        <time>2014-05-14T17:44:46.000Z</time>
      </trkpt>
      <trkpt lat="45.83431" lon="6.1677">
        <ele>461</ele>
        <time>2014-05-14T17:44:54.000Z</time>
      </trkpt>
      <trkpt lat="45.83446" lon="6.16741">
        <ele>461.60000610352</ele>
        <time>2014-05-14T17:44:59.000Z</time>
      </trkpt>
      <trkpt lat="45.83459" lon="6.16711">
        <ele>462.60000610352</ele>
        <time>2014-05-14T17:45:05.000Z</time>
      </trkpt>
      <trkpt lat="45.8347" lon="6.16685">
        <ele>463</ele>
        <time>2014-05-14T17:45:11.000Z</time>
      </trkpt>
      <trkpt lat="45.83479" lon="6.16667">
        <ele>463.39999389648</ele>
        <time>2014-05-14T17:45:15.000Z</time>
      </trkpt>
      <trkpt lat="45.83491" lon="6.16641">
        <ele>463.39999389648</ele>
        <time>2014-05-14T17:45:20.000Z</time>
      </trkpt>
      <trkpt lat="45.83499" lon="6.16623">
        <ele>463</ele>
        <time>2014-05-14T17:45:24.000Z</time>
      </trkpt>
      <trkpt lat="45.83508" lon="6.16606">
        <ele>462.79998779297</ele>
        <time>2014-05-14T17:45:29.000Z</time>
      </trkpt>
      <trkpt lat="45.83513" lon="6.16592">
        <ele>462.39999389648</ele>
        <time>2014-05-14T17:45:33.000Z</time>
      </trkpt>
      <trkpt lat="45.83519" lon="6.16582">
        <ele>462</ele>
        <time>2014-05-14T17:45:37.000Z</time>
      </trkpt>
      <trkpt lat="45.83521" lon="6.16578">
        <ele>461.79998779297</ele>
        <time>2014-05-14T17:45:38.000Z</time>
      </trkpt>
      <trkpt lat="45.83535" lon="6.1655">
        <ele>461.20001220703</ele>
        <time>2014-05-14T17:45:44.000Z</time>
      </trkpt>
      <trkpt lat="45.83548" lon="6.16523">
        <ele>460.39999389648</ele>
        <time>2014-05-14T17:45:50.000Z</time>
      </trkpt>
      <trkpt lat="45.83561" lon="6.16497">
        <ele>459.79998779297</ele>
        <time>2014-05-14T17:45:56.000Z</time>
      </trkpt>
      <trkpt lat="45.83577" lon="6.16466">
        <ele>459.39999389648</ele>
        <time>2014-05-14T17:46:02.000Z</time>
      </trkpt>
      <trkpt lat="45.83604" lon="6.16415">
        <ele>459.60000610352</ele>
        <time>2014-05-14T17:46:11.000Z</time>
      </trkpt>
      <trkpt lat="45.83636" lon="6.16367">
        <ele>460.39999389648</ele>
        <time>2014-05-14T17:46:19.000Z</time>
      </trkpt>
      <trkpt lat="45.83675" lon="6.1632">
        <ele>460.60000610352</ele>
        <time>2014-05-14T17:46:27.000Z</time>
      </trkpt>
      <trkpt lat="45.83724" lon="6.16274">
        <ele>459.60000610352</ele>
        <time>2014-05-14T17:46:36.000Z</time>
      </trkpt>
      <trkpt lat="45.83759" lon="6.1625">
        <ele>459.20001220703</ele>
        <time>2014-05-14T17:46:42.000Z</time>
      </trkpt>
      <trkpt lat="45.83796" lon="6.16226">
        <ele>459</ele>
        <time>2014-05-14T17:46:48.000Z</time>
      </trkpt>
      <trkpt lat="45.83847" lon="6.16195">
        <ele>457.60000610352</ele>
        <time>2014-05-14T17:46:56.000Z</time>
      </trkpt>
      <trkpt lat="45.83905" lon="6.16158">
        <ele>455.79998779297</ele>
        <time>2014-05-14T17:47:05.000Z</time>
      </trkpt>
      <trkpt lat="45.83976" lon="6.16113">
        <ele>455.39999389648</ele>
        <time>2014-05-14T17:47:16.000Z</time>
      </trkpt>
      <trkpt lat="45.84041" lon="6.16071">
        <ele>454.39999389648</ele>
        <time>2014-05-14T17:47:26.000Z</time>
      </trkpt>
      <trkpt lat="45.84099" lon="6.16025">
        <ele>455.60000610352</ele>
        <time>2014-05-14T17:47:35.000Z</time>
      </trkpt>
      <trkpt lat="45.84148" lon="6.15974">
        <ele>456.79998779297</ele>
        <time>2014-05-14T17:47:43.000Z</time>
      </trkpt>
      <trkpt lat="45.84185" lon="6.15922">
        <ele>456.20001220703</ele>
        <time>2014-05-14T17:47:50.000Z</time>
      </trkpt>
      <trkpt lat="45.84192" lon="6.15911">
        <ele>456</ele>
        <time>2014-05-14T17:47:51.000Z</time>
      </trkpt>
      <trkpt lat="45.84231" lon="6.15845">
        <ele>454</ele>
        <time>2014-05-14T17:47:59.000Z</time>
      </trkpt>
      <trkpt lat="45.84264" lon="6.15771">
        <ele>453</ele>
        <time>2014-05-14T17:48:07.000Z</time>
      </trkpt>
      <trkpt lat="45.84297" lon="6.15696">
        <ele>454.60000610352</ele>
        <time>2014-05-14T17:48:15.000Z</time>
      </trkpt>
      <trkpt lat="45.84316" lon="6.15646">
        <ele>455.79998779297</ele>
        <time>2014-05-14T17:48:21.000Z</time>
      </trkpt>
      <trkpt lat="45.84334" lon="6.15609">
        <ele>455.60000610352</ele>
        <time>2014-05-14T17:48:25.000Z</time>
      </trkpt>
      <trkpt lat="45.84361" lon="6.15543">
        <ele>454</ele>
        <time>2014-05-14T17:48:32.000Z</time>
      </trkpt>
      <trkpt lat="45.84395" lon="6.15481">
        <ele>453.79998779297</ele>
        <time>2014-05-14T17:48:39.000Z</time>
      </trkpt>
      <trkpt lat="45.84437" lon="6.15414">
        <ele>453.20001220703</ele>
        <time>2014-05-14T17:48:47.000Z</time>
      </trkpt>
      <trkpt lat="45.84479" lon="6.1536">
        <ele>453.60000610352</ele>
        <time>2014-05-14T17:48:54.000Z</time>
      </trkpt>
      <trkpt lat="45.8453" lon="6.15305">
        <ele>453</ele>
        <time>2014-05-14T17:49:02.000Z</time>
      </trkpt>
      <trkpt lat="45.84589" lon="6.15252">
        <ele>453.39999389648</ele>
        <time>2014-05-14T17:49:11.000Z</time>
      </trkpt>
      <trkpt lat="45.84644" lon="6.15216">
        <ele>454</ele>
        <time>2014-05-14T17:49:19.000Z</time>
      </trkpt>
      <trkpt lat="45.84705" lon="6.15176">
        <ele>453.60000610352</ele>
        <time>2014-05-14T17:49:28.000Z</time>
      </trkpt>
      <trkpt lat="45.84763" lon="6.15138">
        <ele>451.79998779297</ele>
        <time>2014-05-14T17:49:37.000Z</time>
      </trkpt>
      <trkpt lat="45.84827" lon="6.15097">
        <ele>451.60000610352</ele>
        <time>2014-05-14T17:49:47.000Z</time>
      </trkpt>
      <trkpt lat="45.84896" lon="6.15052">
        <ele>451</ele>
        <time>2014-05-14T17:49:58.000Z</time>
      </trkpt>
      <trkpt lat="45.84959" lon="6.15012">
        <ele>451.20001220703</ele>
        <time>2014-05-14T17:50:08.000Z</time>
      </trkpt>
      <trkpt lat="45.84998" lon="6.14987">
        <ele>451.79998779297</ele>
        <time>2014-05-14T17:50:14.000Z</time>
      </trkpt>
      <trkpt lat="45.85056" lon="6.14949">
        <ele>452.39999389648</ele>
        <time>2014-05-14T17:50:23.000Z</time>
      </trkpt>
      <trkpt lat="45.85106" lon="6.14914">
        <ele>452.20001220703</ele>
        <time>2014-05-14T17:50:31.000Z</time>
      </trkpt>
      <trkpt lat="45.85155" lon="6.14874">
        <ele>452.20001220703</ele>
        <time>2014-05-14T17:50:39.000Z</time>
      </trkpt>
      <trkpt lat="45.85199" lon="6.14833">
        <ele>452</ele>
        <time>2014-05-14T17:50:46.000Z</time>
      </trkpt>
      <trkpt lat="45.85242" lon="6.14792">
        <ele>451.39999389648</ele>
        <time>2014-05-14T17:50:53.000Z</time>
      </trkpt>
      <trkpt lat="45.85273" lon="6.14762">
        <ele>450</ele>
        <time>2014-05-14T17:50:58.000Z</time>
      </trkpt>
      <trkpt lat="45.85322" lon="6.14717">
        <ele>448.20001220703</ele>
        <time>2014-05-14T17:51:06.000Z</time>
      </trkpt>
      <trkpt lat="45.85367" lon="6.14678">
        <ele>448.39999389648</ele>
        <time>2014-05-14T17:51:14.000Z</time>
      </trkpt>
      <trkpt lat="45.85401" lon="6.14658">
        <ele>447.79998779297</ele>
        <time>2014-05-14T17:51:20.000Z</time>
      </trkpt>
      <trkpt lat="45.85434" lon="6.14647">
        <ele>447.39999389648</ele>
        <time>2014-05-14T17:51:26.000Z</time>
      </trkpt>
      <trkpt lat="45.85475" lon="6.1464">
        <ele>447.39999389648</ele>
        <time>2014-05-14T17:51:32.000Z</time>
      </trkpt>
      <trkpt lat="45.85506" lon="6.14637">
        <ele>448.39999389648</ele>
        <time>2014-05-14T17:51:37.000Z</time>
      </trkpt>
      <trkpt lat="45.85553" lon="6.14632">
        <ele>449.79998779297</ele>
        <time>2014-05-14T17:51:45.000Z</time>
      </trkpt>
      <trkpt lat="45.85601" lon="6.14621">
        <ele>452.60000610352</ele>
        <time>2014-05-14T17:51:53.000Z</time>
      </trkpt>
      <trkpt lat="45.85637" lon="6.14604">
        <ele>453.39999389648</ele>
        <time>2014-05-14T17:51:59.000Z</time>
      </trkpt>
      <trkpt lat="45.85666" lon="6.14582">
        <ele>452</ele>
        <time>2014-05-14T17:52:04.000Z</time>
      </trkpt>
      <trkpt lat="45.85706" lon="6.14542">
        <ele>452</ele>
        <time>2014-05-14T17:52:11.000Z</time>
      </trkpt>
      <trkpt lat="45.85737" lon="6.14498">
        <ele>450.60000610352</ele>
        <time>2014-05-14T17:52:17.000Z</time>
      </trkpt>
      <trkpt lat="45.85776" lon="6.14435">
        <ele>450.20001220703</ele>
        <time>2014-05-14T17:52:25.000Z</time>
      </trkpt>
      <trkpt lat="45.85814" lon="6.14376">
        <ele>449.60000610352</ele>
        <time>2014-05-14T17:52:33.000Z</time>
      </trkpt>
      <trkpt lat="45.85859" lon="6.14328">
        <ele>450.79998779297</ele>
        <time>2014-05-14T17:52:41.000Z</time>
      </trkpt>
      <trkpt lat="45.85883" lon="6.14309">
        <ele>451</ele>
        <time>2014-05-14T17:52:45.000Z</time>
      </trkpt>
      <trkpt lat="45.85918" lon="6.14293">
        <ele>450.39999389648</ele>
        <time>2014-05-14T17:52:51.000Z</time>
      </trkpt>
      <trkpt lat="45.85932" lon="6.14293">
        <ele>450</ele>
        <time>2014-05-14T17:52:55.000Z</time>
      </trkpt>
      <trkpt lat="45.85938" lon="6.14291">
        <ele>449.79998779297</ele>
        <time>2014-05-14T17:52:57.000Z</time>
      </trkpt>
      <trkpt lat="45.85959" lon="6.14267">
        <ele>449.60000610352</ele>
        <time>2014-05-14T17:53:03.000Z</time>
      </trkpt>
      <trkpt lat="45.85967" lon="6.14254">
        <ele>449.79998779297</ele>
        <time>2014-05-14T17:53:05.000Z</time>
      </trkpt>
      <trkpt lat="45.85993" lon="6.14233">
        <ele>449.79998779297</ele>
        <time>2014-05-14T17:53:10.000Z</time>
      </trkpt>
      <trkpt lat="45.85999" lon="6.14231">
        <ele>449.79998779297</ele>
        <time>2014-05-14T17:53:11.000Z</time>
      </trkpt>
      <trkpt lat="45.86043" lon="6.14232">
        <ele>449.79998779297</ele>
        <time>2014-05-14T17:53:18.000Z</time>
      </trkpt>
      <trkpt lat="45.8608" lon="6.14247">
        <ele>450.39999389648</ele>
        <time>2014-05-14T17:53:24.000Z</time>
      </trkpt>
      <trkpt lat="45.86138" lon="6.14274">
        <ele>451.79998779297</ele>
        <time>2014-05-14T17:53:33.000Z</time>
      </trkpt>
      <trkpt lat="45.86194" lon="6.14295">
        <ele>453.39999389648</ele>
        <time>2014-05-14T17:53:42.000Z</time>
      </trkpt>
      <trkpt lat="45.862" lon="6.14298">
        <ele>453.39999389648</ele>
        <time>2014-05-14T17:53:43.000Z</time>
      </trkpt>
      <trkpt lat="45.8622" lon="6.14318">
        <ele>453.79998779297</ele>
        <time>2014-05-14T17:53:47.000Z</time>
      </trkpt>
      <trkpt lat="45.86234" lon="6.14337">
        <ele>453.60000610352</ele>
        <time>2014-05-14T17:53:50.000Z</time>
      </trkpt>
      <trkpt lat="45.86269" lon="6.14359">
        <ele>452.79998779297</ele>
        <time>2014-05-14T17:53:56.000Z</time>
      </trkpt>
      <trkpt lat="45.86321" lon="6.14377">
        <ele>452.39999389648</ele>
        <time>2014-05-14T17:54:04.000Z</time>
      </trkpt>
      <trkpt lat="45.86346" lon="6.14382">
        <ele>452</ele>
        <time>2014-05-14T17:54:08.000Z</time>
      </trkpt>
      <trkpt lat="45.86404" lon="6.14385">
        <ele>451.39999389648</ele>
        <time>2014-05-14T17:54:17.000Z</time>
      </trkpt>
      <trkpt lat="45.86484" lon="6.14385">
        <ele>451.20001220703</ele>
        <time>2014-05-14T17:54:29.000Z</time>
      </trkpt>
      <trkpt lat="45.86543" lon="6.14384">
        <ele>451.20001220703</ele>
        <time>2014-05-14T17:54:38.000Z</time>
      </trkpt>
      <trkpt lat="45.86603" lon="6.1438">
        <ele>452.79998779297</ele>
        <time>2014-05-14T17:54:47.000Z</time>
      </trkpt>
      <trkpt lat="45.86655" lon="6.14361">
        <ele>452.20001220703</ele>
        <time>2014-05-14T17:54:55.000Z</time>
      </trkpt>
      <trkpt lat="45.86697" lon="6.14336">
        <ele>451</ele>
        <time>2014-05-14T17:55:02.000Z</time>
      </trkpt>
      <trkpt lat="45.86749" lon="6.14303">
        <ele>450</ele>
        <time>2014-05-14T17:55:11.000Z</time>
      </trkpt>
      <trkpt lat="45.86803" lon="6.14275">
        <ele>450</ele>
        <time>2014-05-14T17:55:20.000Z</time>
      </trkpt>
      <trkpt lat="45.86848" lon="6.14264">
        <ele>450.20001220703</ele>
        <time>2014-05-14T17:55:27.000Z</time>
      </trkpt>
      <trkpt lat="45.86861" lon="6.14263">
        <ele>450.39999389648</ele>
        <time>2014-05-14T17:55:29.000Z</time>
      </trkpt>
      <trkpt lat="45.86874" lon="6.14261">
        <ele>450.79998779297</ele>
        <time>2014-05-14T17:55:31.000Z</time>
      </trkpt>
      <trkpt lat="45.8691" lon="6.14265">
        <ele>451.79998779297</ele>
        <time>2014-05-14T17:55:37.000Z</time>
      </trkpt>
      <trkpt lat="45.86943" lon="6.14273">
        <ele>453</ele>
        <time>2014-05-14T17:55:42.000Z</time>
      </trkpt>
      <trkpt lat="45.86955" lon="6.14278">
        <ele>453.39999389648</ele>
        <time>2014-05-14T17:55:44.000Z</time>
      </trkpt>
      <trkpt lat="45.86991" lon="6.14299">
        <ele>455.20001220703</ele>
        <time>2014-05-14T17:55:50.000Z</time>
      </trkpt>
      <trkpt lat="45.8705" lon="6.14337">
        <ele>457.20001220703</ele>
        <time>2014-05-14T17:56:00.000Z</time>
      </trkpt>
      <trkpt lat="45.87094" lon="6.1436">
        <ele>456.60000610352</ele>
        <time>2014-05-14T17:56:07.000Z</time>
      </trkpt>
      <trkpt lat="45.87138" lon="6.14374">
        <ele>456</ele>
        <time>2014-05-14T17:56:14.000Z</time>
      </trkpt>
      <trkpt lat="45.87175" lon="6.14382">
        <ele>454.39999389648</ele>
        <time>2014-05-14T17:56:20.000Z</time>
      </trkpt>
      <trkpt lat="45.87233" lon="6.14382">
        <ele>452.39999389648</ele>
        <time>2014-05-14T17:56:29.000Z</time>
      </trkpt>
      <trkpt lat="45.87278" lon="6.14373">
        <ele>451.60000610352</ele>
        <time>2014-05-14T17:56:36.000Z</time>
      </trkpt>
      <trkpt lat="45.87321" lon="6.14358">
        <ele>452.60000610352</ele>
        <time>2014-05-14T17:56:43.000Z</time>
      </trkpt>
      <trkpt lat="45.87383" lon="6.14335">
        <ele>454.79998779297</ele>
        <time>2014-05-14T17:56:53.000Z</time>
      </trkpt>
      <trkpt lat="45.8744" lon="6.14315">
        <ele>454.60000610352</ele>
        <time>2014-05-14T17:57:02.000Z</time>
      </trkpt>
      <trkpt lat="45.87482" lon="6.14304">
        <ele>454.79998779297</ele>
        <time>2014-05-14T17:57:09.000Z</time>
      </trkpt>
      <trkpt lat="45.87526" lon="6.14304">
        <ele>452.79998779297</ele>
        <time>2014-05-14T17:57:17.000Z</time>
      </trkpt>
      <trkpt lat="45.87575" lon="6.14308">
        <ele>451.60000610352</ele>
        <time>2014-05-14T17:57:26.000Z</time>
      </trkpt>
      <trkpt lat="45.87628" lon="6.14311">
        <ele>452.79998779297</ele>
        <time>2014-05-14T17:57:35.000Z</time>
      </trkpt>
      <trkpt lat="45.87671" lon="6.14308">
        <ele>451.60000610352</ele>
        <time>2014-05-14T17:57:42.000Z</time>
      </trkpt>
      <trkpt lat="45.87708" lon="6.143">
        <ele>450.60000610352</ele>
        <time>2014-05-14T17:57:48.000Z</time>
      </trkpt>
      <trkpt lat="45.87755" lon="6.14284">
        <ele>452.39999389648</ele>
        <time>2014-05-14T17:57:56.000Z</time>
      </trkpt>
      <trkpt lat="45.87796" lon="6.14271">
        <ele>454.20001220703</ele>
        <time>2014-05-14T17:58:03.000Z</time>
      </trkpt>
      <trkpt lat="45.87843" lon="6.14262">
        <ele>453.39999389648</ele>
        <time>2014-05-14T17:58:11.000Z</time>
      </trkpt>
      <trkpt lat="45.87855" lon="6.14261">
        <ele>453.79998779297</ele>
        <time>2014-05-14T17:58:13.000Z</time>
      </trkpt>
      <trkpt lat="45.87867" lon="6.14262">
        <ele>454</ele>
        <time>2014-05-14T17:58:15.000Z</time>
      </trkpt>
      <trkpt lat="45.87907" lon="6.14263">
        <ele>454.39999389648</ele>
        <time>2014-05-14T17:58:22.000Z</time>
      </trkpt>
      <trkpt lat="45.87961" lon="6.14267">
        <ele>453.39999389648</ele>
        <time>2014-05-14T17:58:31.000Z</time>
      </trkpt>
      <trkpt lat="45.88005" lon="6.14263">
        <ele>454</ele>
        <time>2014-05-14T17:58:38.000Z</time>
      </trkpt>
      <trkpt lat="45.88023" lon="6.1426">
        <ele>454</ele>
        <time>2014-05-14T17:58:41.000Z</time>
      </trkpt>
      <trkpt lat="45.88069" lon="6.14243">
        <ele>455.20001220703</ele>
        <time>2014-05-14T17:58:49.000Z</time>
      </trkpt>
      <trkpt lat="45.881" lon="6.14226">
        <ele>455.60000610352</ele>
        <time>2014-05-14T17:58:55.000Z</time>
      </trkpt>
      <trkpt lat="45.88127" lon="6.14203">
        <ele>456.39999389648</ele>
        <time>2014-05-14T17:59:00.000Z</time>
      </trkpt>
      <trkpt lat="45.88142" lon="6.14199">
        <ele>456.20001220703</ele>
        <time>2014-05-14T17:59:03.000Z</time>
      </trkpt>
      <trkpt lat="45.88156" lon="6.14203">
        <ele>454.39999389648</ele>
        <time>2014-05-14T17:59:07.000Z</time>
      </trkpt>
      <trkpt lat="45.88166" lon="6.14201">
        <ele>453.39999389648</ele>
        <time>2014-05-14T17:59:09.000Z</time>
      </trkpt>
      <trkpt lat="45.88191" lon="6.142">
        <ele>450.79998779297</ele>
        <time>2014-05-14T17:59:14.000Z</time>
      </trkpt>
      <trkpt lat="45.88236" lon="6.14198">
        <ele>450.79998779297</ele>
        <time>2014-05-14T17:59:21.000Z</time>
      </trkpt>
      <trkpt lat="45.88286" lon="6.142">
        <ele>452.20001220703</ele>
        <time>2014-05-14T17:59:28.000Z</time>
      </trkpt>
      <trkpt lat="45.88343" lon="6.14208">
        <ele>451.60000610352</ele>
        <time>2014-05-14T17:59:36.000Z</time>
      </trkpt>
      <trkpt lat="45.884" lon="6.1422">
        <ele>450.20001220703</ele>
        <time>2014-05-14T17:59:44.000Z</time>
      </trkpt>
      <trkpt lat="45.88441" lon="6.14224">
        <ele>448.60000610352</ele>
        <time>2014-05-14T17:59:50.000Z</time>
      </trkpt>
      <trkpt lat="45.88484" lon="6.14232">
        <ele>448.20001220703</ele>
        <time>2014-05-14T17:59:57.000Z</time>
      </trkpt>
      <trkpt lat="45.8854" lon="6.14247">
        <ele>455.39999389648</ele>
        <time>2014-05-14T18:00:06.000Z</time>
      </trkpt>
      <trkpt lat="45.88583" lon="6.14268">
        <ele>454.79998779297</ele>
        <time>2014-05-14T18:00:13.000Z</time>
      </trkpt>
      <trkpt lat="45.88618" lon="6.14287">
        <ele>451.79998779297</ele>
        <time>2014-05-14T18:00:19.000Z</time>
      </trkpt>
      <trkpt lat="45.88658" lon="6.14307">
        <ele>448.39999389648</ele>
        <time>2014-05-14T18:00:26.000Z</time>
      </trkpt>
      <trkpt lat="45.88718" lon="6.14333">
        <ele>447</ele>
        <time>2014-05-14T18:00:36.000Z</time>
      </trkpt>
      <trkpt lat="45.8877" lon="6.14351">
        <ele>449.20001220703</ele>
        <time>2014-05-14T18:00:45.000Z</time>
      </trkpt>
      <trkpt lat="45.88814" lon="6.14362">
        <ele>456.79998779297</ele>
        <time>2014-05-14T18:00:52.000Z</time>
      </trkpt>
      <trkpt lat="45.88858" lon="6.14365">
        <ele>455.60000610352</ele>
        <time>2014-05-14T18:00:59.000Z</time>
      </trkpt>
      <trkpt lat="45.88892" lon="6.14364">
        <ele>456.60000610352</ele>
        <time>2014-05-14T18:01:05.000Z</time>
      </trkpt>
      <trkpt lat="45.88943" lon="6.14361">
        <ele>457.20001220703</ele>
        <time>2014-05-14T18:01:14.000Z</time>
      </trkpt>
      <trkpt lat="45.88978" lon="6.14351">
        <ele>453.20001220703</ele>
        <time>2014-05-14T18:01:20.000Z</time>
      </trkpt>
      <trkpt lat="45.89008" lon="6.14328">
        <ele>454</ele>
        <time>2014-05-14T18:01:26.000Z</time>
      </trkpt>
      <trkpt lat="45.89034" lon="6.1429">
        <ele>453.60000610352</ele>
        <time>2014-05-14T18:01:33.000Z</time>
      </trkpt>
      <trkpt lat="45.89051" lon="6.14249">
        <ele>448.79998779297</ele>
        <time>2014-05-14T18:01:39.000Z</time>
      </trkpt>
      <trkpt lat="45.89059" lon="6.142">
        <ele>449.39999389648</ele>
        <time>2014-05-14T18:01:45.000Z</time>
      </trkpt>
      <trkpt lat="45.89067" lon="6.14114">
        <ele>451.60000610352</ele>
        <time>2014-05-14T18:01:54.000Z</time>
      </trkpt>
      <trkpt lat="45.89082" lon="6.14057">
        <ele>449.20001220703</ele>
        <time>2014-05-14T18:02:00.000Z</time>
      </trkpt>
      <trkpt lat="45.89108" lon="6.13999">
        <ele>449.79998779297</ele>
        <time>2014-05-14T18:02:07.000Z</time>
      </trkpt>
      <trkpt lat="45.8914" lon="6.13938">
        <ele>450.79998779297</ele>
        <time>2014-05-14T18:02:15.000Z</time>
      </trkpt>
      <trkpt lat="45.89169" lon="6.13889">
        <ele>452</ele>
        <time>2014-05-14T18:02:22.000Z</time>
      </trkpt>
      <trkpt lat="45.89173" lon="6.13882">
        <ele>451.20001220703</ele>
        <time>2014-05-14T18:02:23.000Z</time>
      </trkpt>
      <trkpt lat="45.89199" lon="6.13837">
        <ele>448.20001220703</ele>
        <time>2014-05-14T18:02:29.000Z</time>
      </trkpt>
      <trkpt lat="45.89237" lon="6.1377">
        <ele>448.39999389648</ele>
        <time>2014-05-14T18:02:38.000Z</time>
      </trkpt>
      <trkpt lat="45.89258" lon="6.13736">
        <ele>448.79998779297</ele>
        <time>2014-05-14T18:02:43.000Z</time>
      </trkpt>
      <trkpt lat="45.89266" lon="6.13725">
        <ele>448.60000610352</ele>
        <time>2014-05-14T18:02:45.000Z</time>
      </trkpt>
      <trkpt lat="45.89295" lon="6.13677">
        <ele>449.39999389648</ele>
        <time>2014-05-14T18:02:53.000Z</time>
      </trkpt>
      <trkpt lat="45.89299" lon="6.1367">
        <ele>449.39999389648</ele>
        <time>2014-05-14T18:02:54.000Z</time>
      </trkpt>
      <trkpt lat="45.89307" lon="6.13659">
        <ele>449.39999389648</ele>
        <time>2014-05-14T18:02:56.000Z</time>
      </trkpt>
      <trkpt lat="45.89314" lon="6.1364">
        <ele>450</ele>
        <time>2014-05-14T18:02:59.000Z</time>
      </trkpt>
      <trkpt lat="45.89331" lon="6.13609">
        <ele>450.79998779297</ele>
        <time>2014-05-14T18:03:04.000Z</time>
      </trkpt>
      <trkpt lat="45.89363" lon="6.13561">
        <ele>450.60000610352</ele>
        <time>2014-05-14T18:03:11.000Z</time>
      </trkpt>
      <trkpt lat="45.894" lon="6.13509">
        <ele>451.20001220703</ele>
        <time>2014-05-14T18:03:19.000Z</time>
      </trkpt>
      <trkpt lat="45.89443" lon="6.1345">
        <ele>458.60000610352</ele>
        <time>2014-05-14T18:03:28.000Z</time>
      </trkpt>
      <trkpt lat="45.89486" lon="6.13402">
        <ele>450.60000610352</ele>
        <time>2014-05-14T18:03:36.000Z</time>
      </trkpt>
      <trkpt lat="45.89523" lon="6.13359">
        <ele>450.60000610352</ele>
        <time>2014-05-14T18:03:43.000Z</time>
      </trkpt>
      <trkpt lat="45.89545" lon="6.13333">
        <ele>450.20001220703</ele>
        <time>2014-05-14T18:03:47.000Z</time>
      </trkpt>
      <trkpt lat="45.89582" lon="6.13292">
        <ele>451.60000610352</ele>
        <time>2014-05-14T18:03:54.000Z</time>
      </trkpt>
      <trkpt lat="45.89622" lon="6.13244">
        <ele>452</ele>
        <time>2014-05-14T18:04:02.000Z</time>
      </trkpt>
      <trkpt lat="45.89653" lon="6.13209">
        <ele>451</ele>
        <time>2014-05-14T18:04:08.000Z</time>
      </trkpt>
      <trkpt lat="45.89663" lon="6.13199">
        <ele>450.79998779297</ele>
        <time>2014-05-14T18:04:10.000Z</time>
      </trkpt>
      <trkpt lat="45.89684" lon="6.1318">
        <ele>450.39999389648</ele>
        <time>2014-05-14T18:04:14.000Z</time>
      </trkpt>
      <trkpt lat="45.89693" lon="6.13166">
        <ele>450.20001220703</ele>
        <time>2014-05-14T18:04:16.000Z</time>
      </trkpt>
      <trkpt lat="45.89714" lon="6.1314">
        <ele>449.39999389648</ele>
        <time>2014-05-14T18:04:20.000Z</time>
      </trkpt>
      <trkpt lat="45.89763" lon="6.13084">
        <ele>451.20001220703</ele>
        <time>2014-05-14T18:04:29.000Z</time>
      </trkpt>
      <trkpt lat="45.89767" lon="6.13077">
        <ele>451.20001220703</ele>
        <time>2014-05-14T18:04:30.000Z</time>
      </trkpt>
      <trkpt lat="45.89782" lon="6.13033">
        <ele>451.79998779297</ele>
        <time>2014-05-14T18:04:35.000Z</time>
      </trkpt>
      <trkpt lat="45.89795" lon="6.12957">
        <ele>452</ele>
        <time>2014-05-14T18:04:43.000Z</time>
      </trkpt>
      <trkpt lat="45.89799" lon="6.12927">
        <ele>451.79998779297</ele>
        <time>2014-05-14T18:04:47.000Z</time>
      </trkpt>
      <trkpt lat="45.89808" lon="6.12909">
        <ele>451</ele>
        <time>2014-05-14T18:04:51.000Z</time>
      </trkpt>
      <trkpt lat="45.89827" lon="6.12905">
        <ele>451.60000610352</ele>
        <time>2014-05-14T18:04:55.000Z</time>
      </trkpt>
      <trkpt lat="45.89838" lon="6.12905">
        <ele>451.60000610352</ele>
        <time>2014-05-14T18:04:57.000Z</time>
      </trkpt>
      <trkpt lat="45.89853" lon="6.12904">
        <ele>451.39999389648</ele>
        <time>2014-05-14T18:05:00.000Z</time>
      </trkpt>
      <trkpt lat="45.899" lon="6.12877">
        <ele>451.39999389648</ele>
        <time>2014-05-14T18:05:09.000Z</time>
      </trkpt>
      <trkpt lat="45.8995" lon="6.12854">
        <ele>452.39999389648</ele>
        <time>2014-05-14T18:05:18.000Z</time>
      </trkpt>
      <trkpt lat="45.89981" lon="6.12836">
        <ele>453.79998779297</ele>
        <time>2014-05-14T18:05:23.000Z</time>
      </trkpt>
      <trkpt lat="45.90022" lon="6.1281">
        <ele>453.79998779297</ele>
        <time>2014-05-14T18:05:30.000Z</time>
      </trkpt>
      <trkpt lat="45.90051" lon="6.12794">
        <ele>453.60000610352</ele>
        <time>2014-05-14T18:05:35.000Z</time>
      </trkpt>
      <trkpt lat="45.90063" lon="6.12788">
        <ele>453.60000610352</ele>
        <time>2014-05-14T18:05:37.000Z</time>
      </trkpt>
      <trkpt lat="45.9008" lon="6.12777">
        <ele>454.60000610352</ele>
        <time>2014-05-14T18:05:40.000Z</time>
      </trkpt>
      <trkpt lat="45.90103" lon="6.12774">
        <ele>455.60000610352</ele>
        <time>2014-05-14T18:05:44.000Z</time>
      </trkpt>
      <trkpt lat="45.90117" lon="6.12789">
        <ele>456.20001220703</ele>
        <time>2014-05-14T18:05:48.000Z</time>
      </trkpt>
      <trkpt lat="45.90123" lon="6.12797">
        <ele>456.39999389648</ele>
        <time>2014-05-14T18:05:52.000Z</time>
      </trkpt>
      <trkpt lat="45.90125" lon="6.12802">
        <ele>456.39999389648</ele>
        <time>2014-05-14T18:05:54.000Z</time>
      </trkpt>
      <trkpt lat="45.90131" lon="6.12815">
        <ele>456.39999389648</ele>
        <time>2014-05-14T18:05:58.000Z</time>
      </trkpt>
      <trkpt lat="45.90141" lon="6.12808">
        <ele>457</ele>
        <time>2014-05-14T18:06:02.000Z</time>
      </trkpt>
      <trkpt lat="45.90141" lon="6.12799">
        <ele>457</ele>
        <time>2014-05-14T18:06:04.000Z</time>
      </trkpt>
      <trkpt lat="45.90133" lon="6.12763">
        <ele>456.79998779297</ele>
        <time>2014-05-14T18:06:10.000Z</time>
      </trkpt>
      <trkpt lat="45.90136" lon="6.12743">
        <ele>456.79998779297</ele>
        <time>2014-05-14T18:06:14.000Z</time>
      </trkpt>
      <trkpt lat="45.90138" lon="6.12738">
        <ele>457</ele>
        <time>2014-05-14T18:06:15.000Z</time>
      </trkpt>
      <trkpt lat="45.90156" lon="6.12716">
        <ele>457.39999389648</ele>
        <time>2014-05-14T18:06:21.000Z</time>
      </trkpt>
      <trkpt lat="45.90193" lon="6.12699">
        <ele>458.20001220703</ele>
        <time>2014-05-14T18:06:28.000Z</time>
      </trkpt>
      <trkpt lat="45.90219" lon="6.12682">
        <ele>459</ele>
        <time>2014-05-14T18:06:32.000Z</time>
      </trkpt>
      <trkpt lat="45.90232" lon="6.12671">
        <ele>458.79998779297</ele>
        <time>2014-05-14T18:06:35.000Z</time>
      </trkpt>
      <trkpt lat="45.90235" lon="6.12666">
        <ele>458.79998779297</ele>
        <time>2014-05-14T18:06:37.000Z</time>
      </trkpt>
      <trkpt lat="45.90238" lon="6.12663">
        <ele>458.60000610352</ele>
        <time>2014-05-14T18:06:39.000Z</time>
      </trkpt>
      <trkpt lat="45.90249" lon="6.12653">
        <ele>458.20001220703</ele>
        <time>2014-05-14T18:06:44.000Z</time>
      </trkpt>
      <trkpt lat="45.90268" lon="6.12632">
        <ele>457.20001220703</ele>
        <time>2014-05-14T18:06:49.000Z</time>
      </trkpt>
      <trkpt lat="45.90287" lon="6.12617">
        <ele>456.39999389648</ele>
        <time>2014-05-14T18:06:53.000Z</time>
      </trkpt>
      <trkpt lat="45.90304" lon="6.12607">
        <ele>455.60000610352</ele>
        <time>2014-05-14T18:06:56.000Z</time>
      </trkpt>
      <trkpt lat="45.90322" lon="6.12598">
        <ele>454.79998779297</ele>
        <time>2014-05-14T18:07:00.000Z</time>
      </trkpt>
      <trkpt lat="45.90337" lon="6.12593">
        <ele>454.20001220703</ele>
        <time>2014-05-14T18:07:04.000Z</time>
      </trkpt>
      <trkpt lat="45.90361" lon="6.12578">
        <ele>454.20001220703</ele>
        <time>2014-05-14T18:07:10.000Z</time>
      </trkpt>
      <trkpt lat="45.90379" lon="6.12564">
        <ele>454</ele>
        <time>2014-05-14T18:07:14.000Z</time>
      </trkpt>
      <trkpt lat="45.90385" lon="6.12552">
        <ele>454.20001220703</ele>
        <time>2014-05-14T18:07:18.000Z</time>
      </trkpt>
      <trkpt lat="45.9038" lon="6.12537">
        <ele>454</ele>
        <time>2014-05-14T18:07:22.000Z</time>
      </trkpt>
      <trkpt lat="45.90375" lon="6.12503">
        <ele>453.60000610352</ele>
        <time>2014-05-14T18:07:28.000Z</time>
      </trkpt>
      <trkpt lat="45.90373" lon="6.12491">
        <ele>453.39999389648</ele>
        <time>2014-05-14T18:07:30.000Z</time>
      </trkpt>
      <trkpt lat="45.90385" lon="6.1248">
        <ele>452.39999389648</ele>
        <time>2014-05-14T18:07:34.000Z</time>
      </trkpt>
      <trkpt lat="45.9039" lon="6.12477">
        <ele>452</ele>
        <time>2014-05-14T18:07:35.000Z</time>
      </trkpt>
      <trkpt lat="45.90417" lon="6.12453">
        <ele>452.20001220703</ele>
        <time>2014-05-14T18:07:41.000Z</time>
      </trkpt>
      <trkpt lat="45.90454" lon="6.12426">
        <ele>453.39999389648</ele>
        <time>2014-05-14T18:07:48.000Z</time>
      </trkpt>
      <trkpt lat="45.90493" lon="6.12407">
        <ele>455</ele>
        <time>2014-05-14T18:07:55.000Z</time>
      </trkpt>
      <trkpt lat="45.90505" lon="6.12402">
        <ele>455.39999389648</ele>
        <time>2014-05-14T18:07:57.000Z</time>
      </trkpt>
      <trkpt lat="45.90522" lon="6.12403">
        <ele>455.79998779297</ele>
        <time>2014-05-14T18:08:01.000Z</time>
      </trkpt>
      <trkpt lat="45.90535" lon="6.12405">
        <ele>456</ele>
        <time>2014-05-14T18:08:04.000Z</time>
      </trkpt>
      <trkpt lat="45.90559" lon="6.12393">
        <ele>457</ele>
        <time>2014-05-14T18:08:10.000Z</time>
      </trkpt>
      <trkpt lat="45.90586" lon="6.12392">
        <ele>456.60000610352</ele>
        <time>2014-05-14T18:08:14.000Z</time>
      </trkpt>
      <trkpt lat="45.90622" lon="6.12392">
        <ele>456.20001220703</ele>
        <time>2014-05-14T18:08:19.000Z</time>
      </trkpt>
      <trkpt lat="45.90655" lon="6.12395">
        <ele>455.39999389648</ele>
        <time>2014-05-14T18:08:25.000Z</time>
      </trkpt>
      <trkpt lat="45.90663" lon="6.12393">
        <ele>455.20001220703</ele>
        <time>2014-05-14T18:08:26.000Z</time>
      </trkpt>
      <trkpt lat="45.90684" lon="6.12387">
        <ele>454.39999389648</ele>
        <time>2014-05-14T18:08:29.000Z</time>
      </trkpt>
      <trkpt lat="45.90717" lon="6.12381">
        <ele>453.60000610352</ele>
        <time>2014-05-14T18:08:34.000Z</time>
      </trkpt>
      <trkpt lat="45.90755" lon="6.1239">
        <ele>454</ele>
        <time>2014-05-14T18:08:40.000Z</time>
      </trkpt>
      <trkpt lat="45.90774" lon="6.12391">
        <ele>454.39999389648</ele>
        <time>2014-05-14T18:08:43.000Z</time>
      </trkpt>
      <trkpt lat="45.90823" lon="6.1239">
        <ele>454.79998779297</ele>
        <time>2014-05-14T18:08:51.000Z</time>
      </trkpt>
      <trkpt lat="45.90854" lon="6.12389">
        <ele>454.60000610352</ele>
        <time>2014-05-14T18:08:56.000Z</time>
      </trkpt>
      <trkpt lat="45.90894" lon="6.12389">
        <ele>454.20001220703</ele>
        <time>2014-05-14T18:09:02.000Z</time>
      </trkpt>
      <trkpt lat="45.90934" lon="6.12388">
        <ele>454.60000610352</ele>
        <time>2014-05-14T18:09:08.000Z</time>
      </trkpt>
      <trkpt lat="45.90966" lon="6.12382">
        <ele>455.20001220703</ele>
        <time>2014-05-14T18:09:13.000Z</time>
      </trkpt>
      <trkpt lat="45.90998" lon="6.12388">
        <ele>456</ele>
        <time>2014-05-14T18:09:18.000Z</time>
      </trkpt>
      <trkpt lat="45.91032" lon="6.12384">
        <ele>457.39999389648</ele>
        <time>2014-05-14T18:09:23.000Z</time>
      </trkpt>
      <trkpt lat="45.91076" lon="6.12385">
        <ele>457.79998779297</ele>
        <time>2014-05-14T18:09:30.000Z</time>
      </trkpt>
      <trkpt lat="45.91089" lon="6.12385">
        <ele>457.60000610352</ele>
        <time>2014-05-14T18:09:32.000Z</time>
      </trkpt>
      <trkpt lat="45.91114" lon="6.12382">
        <ele>457</ele>
        <time>2014-05-14T18:09:36.000Z</time>
      </trkpt>
      <trkpt lat="45.91133" lon="6.12377">
        <ele>456.79998779297</ele>
        <time>2014-05-14T18:09:39.000Z</time>
      </trkpt>
      <trkpt lat="45.91151" lon="6.12386">
        <ele>456.60000610352</ele>
        <time>2014-05-14T18:09:42.000Z</time>
      </trkpt>
      <trkpt lat="45.91163" lon="6.12391">
        <ele>456.60000610352</ele>
        <time>2014-05-14T18:09:44.000Z</time>
      </trkpt>
      <trkpt lat="45.9118" lon="6.12389">
        <ele>457.20001220703</ele>
        <time>2014-05-14T18:09:47.000Z</time>
      </trkpt>
      <trkpt lat="45.91216" lon="6.12385">
        <ele>458</ele>
        <time>2014-05-14T18:09:53.000Z</time>
      </trkpt>
      <trkpt lat="45.91243" lon="6.12387">
        <ele>458</ele>
        <time>2014-05-14T18:09:58.000Z</time>
      </trkpt>
      <trkpt lat="45.91269" lon="6.12386">
        <ele>458.39999389648</ele>
        <time>2014-05-14T18:10:02.000Z</time>
      </trkpt>
      <trkpt lat="45.91311" lon="6.12388">
        <ele>459.20001220703</ele>
        <time>2014-05-14T18:10:08.000Z</time>
      </trkpt>
      <trkpt lat="45.91328" lon="6.12387">
        <ele>460.20001220703</ele>
        <time>2014-05-14T18:10:10.000Z</time>
      </trkpt>
      <trkpt lat="45.91362" lon="6.12379">
        <ele>462.20001220703</ele>
        <time>2014-05-14T18:10:15.000Z</time>
      </trkpt>
      <trkpt lat="45.91378" lon="6.12388">
        <ele>463.20001220703</ele>
        <time>2014-05-14T18:10:18.000Z</time>
      </trkpt>
      <trkpt lat="45.91413" lon="6.12383">
        <ele>462.60000610352</ele>
        <time>2014-05-14T18:10:23.000Z</time>
      </trkpt>
      <trkpt lat="45.91435" lon="6.12384">
        <ele>462</ele>
        <time>2014-05-14T18:10:27.000Z</time>
      </trkpt>
      <trkpt lat="45.91454" lon="6.12383">
        <ele>461.20001220703</ele>
        <time>2014-05-14T18:10:30.000Z</time>
      </trkpt>
      <trkpt lat="45.91471" lon="6.1238">
        <ele>460.79998779297</ele>
        <time>2014-05-14T18:10:33.000Z</time>
      </trkpt>
      <trkpt lat="45.91494" lon="6.12385">
        <ele>460.60000610352</ele>
        <time>2014-05-14T18:10:37.000Z</time>
      </trkpt>
      <trkpt lat="45.91506" lon="6.12388">
        <ele>460.60000610352</ele>
        <time>2014-05-14T18:10:39.000Z</time>
      </trkpt>
      <trkpt lat="45.91534" lon="6.12389">
        <ele>460.20001220703</ele>
        <time>2014-05-14T18:10:44.000Z</time>
      </trkpt>
      <trkpt lat="45.91562" lon="6.12387">
        <ele>460</ele>
        <time>2014-05-14T18:10:49.000Z</time>
      </trkpt>
      <trkpt lat="45.91575" lon="6.12386">
        <ele>460</ele>
        <time>2014-05-14T18:10:51.000Z</time>
      </trkpt>
      <trkpt lat="45.9159" lon="6.12384">
        <ele>460.20001220703</ele>
        <time>2014-05-14T18:10:53.000Z</time>
      </trkpt>
      <trkpt lat="45.91602" lon="6.12381">
        <ele>460.20001220703</ele>
        <time>2014-05-14T18:10:55.000Z</time>
      </trkpt>
      <trkpt lat="45.91636" lon="6.12384">
        <ele>460</ele>
        <time>2014-05-14T18:11:00.000Z</time>
      </trkpt>
      <trkpt lat="45.91666" lon="6.12385">
        <ele>460.60000610352</ele>
        <time>2014-05-14T18:11:05.000Z</time>
      </trkpt>
      <trkpt lat="45.91702" lon="6.12374">
        <ele>461.39999389648</ele>
        <time>2014-05-14T18:11:10.000Z</time>
      </trkpt>
      <trkpt lat="45.91711" lon="6.12383">
        <ele>461.79998779297</ele>
        <time>2014-05-14T18:11:12.000Z</time>
      </trkpt>
      <trkpt lat="45.91736" lon="6.12391">
        <ele>462</ele>
        <time>2014-05-14T18:11:16.000Z</time>
      </trkpt>
      <trkpt lat="45.91748" lon="6.12394">
        <ele>462</ele>
        <time>2014-05-14T18:11:18.000Z</time>
      </trkpt>
      <trkpt lat="45.91796" lon="6.12388">
        <ele>462</ele>
        <time>2014-05-14T18:11:25.000Z</time>
      </trkpt>
      <trkpt lat="45.91835" lon="6.12389">
        <ele>462</ele>
        <time>2014-05-14T18:11:31.000Z</time>
      </trkpt>
      <trkpt lat="45.9188" lon="6.1239">
        <ele>462</ele>
        <time>2014-05-14T18:11:38.000Z</time>
      </trkpt>
      <trkpt lat="45.91893" lon="6.1239">
        <ele>462</ele>
        <time>2014-05-14T18:11:40.000Z</time>
      </trkpt>
      <trkpt lat="45.9194" lon="6.12389">
        <ele>462</ele>
        <time>2014-05-14T18:11:47.000Z</time>
      </trkpt>
      <trkpt lat="45.91964" lon="6.12385">
        <ele>461.79998779297</ele>
        <time>2014-05-14T18:11:51.000Z</time>
      </trkpt>
      <trkpt lat="45.91999" lon="6.12382">
        <ele>461.79998779297</ele>
        <time>2014-05-14T18:11:56.000Z</time>
      </trkpt>
      <trkpt lat="45.92019" lon="6.12383">
        <ele>461.79998779297</ele>
        <time>2014-05-14T18:11:59.000Z</time>
      </trkpt>
      <trkpt lat="45.92073" lon="6.12384">
        <ele>462</ele>
        <time>2014-05-14T18:12:07.000Z</time>
      </trkpt>
      <trkpt lat="45.92121" lon="6.12384">
        <ele>462</ele>
        <time>2014-05-14T18:12:14.000Z</time>
      </trkpt>
      <trkpt lat="45.92134" lon="6.12384">
        <ele>462</ele>
        <time>2014-05-14T18:12:16.000Z</time>
      </trkpt>
      <trkpt lat="45.92176" lon="6.12382">
        <ele>462.20001220703</ele>
        <time>2014-05-14T18:12:22.000Z</time>
      </trkpt>
      <trkpt lat="45.92211" lon="6.12383">
        <ele>462.20001220703</ele>
        <time>2014-05-14T18:12:27.000Z</time>
      </trkpt>
      <trkpt lat="45.92252" lon="6.12384">
        <ele>462.39999389648</ele>
        <time>2014-05-14T18:12:33.000Z</time>
      </trkpt>
      <trkpt lat="45.92271" lon="6.12386">
        <ele>462.60000610352</ele>
        <time>2014-05-14T18:12:36.000Z</time>
      </trkpt>
      <trkpt lat="45.9231" lon="6.12386">
        <ele>462.79998779297</ele>
        <time>2014-05-14T18:12:42.000Z</time>
      </trkpt>
      <trkpt lat="45.92343" lon="6.1239">
        <ele>463</ele>
        <time>2014-05-14T18:12:48.000Z</time>
      </trkpt>
      <trkpt lat="45.92349" lon="6.1239">
        <ele>463</ele>
        <time>2014-05-14T18:12:49.000Z</time>
      </trkpt>
      <trkpt lat="45.92366" lon="6.12393">
        <ele>463</ele>
        <time>2014-05-14T18:12:52.000Z</time>
      </trkpt>
      <trkpt lat="45.92405" lon="6.1239">
        <ele>462.60000610352</ele>
        <time>2014-05-14T18:12:58.000Z</time>
      </trkpt>
      <trkpt lat="45.92458" lon="6.12388">
        <ele>461.20001220703</ele>
        <time>2014-05-14T18:13:05.000Z</time>
      </trkpt>
      <trkpt lat="45.92499" lon="6.12387">
        <ele>461.20001220703</ele>
        <time>2014-05-14T18:13:11.000Z</time>
      </trkpt>
      <trkpt lat="45.92557" lon="6.12389">
        <ele>461.60000610352</ele>
        <time>2014-05-14T18:13:19.000Z</time>
      </trkpt>
      <trkpt lat="45.92598" lon="6.12395">
        <ele>461.60000610352</ele>
        <time>2014-05-14T18:13:25.000Z</time>
      </trkpt>
      <trkpt lat="45.92647" lon="6.12393">
        <ele>460.79998779297</ele>
        <time>2014-05-14T18:13:32.000Z</time>
      </trkpt>
      <trkpt lat="45.92692" lon="6.1239">
        <ele>459.60000610352</ele>
        <time>2014-05-14T18:13:39.000Z</time>
      </trkpt>
      <trkpt lat="45.92703" lon="6.12389">
        <ele>459.20001220703</ele>
        <time>2014-05-14T18:13:41.000Z</time>
      </trkpt>
      <trkpt lat="45.92721" lon="6.12375">
        <ele>458.60000610352</ele>
        <time>2014-05-14T18:13:45.000Z</time>
      </trkpt>
      <trkpt lat="45.92736" lon="6.12352">
        <ele>457.79998779297</ele>
        <time>2014-05-14T18:13:49.000Z</time>
      </trkpt>
      <trkpt lat="45.92755" lon="6.12333">
        <ele>456.79998779297</ele>
        <time>2014-05-14T18:13:53.000Z</time>
      </trkpt>
      <trkpt lat="45.92778" lon="6.12301">
        <ele>453.60000610352</ele>
        <time>2014-05-14T18:13:58.000Z</time>
      </trkpt>
      <trkpt lat="45.92806" lon="6.12243">
        <ele>451.39999389648</ele>
        <time>2014-05-14T18:14:04.000Z</time>
      </trkpt>
      <trkpt lat="45.92812" lon="6.12234">
        <ele>451.39999389648</ele>
        <time>2014-05-14T18:14:05.000Z</time>
      </trkpt>
      <trkpt lat="45.92854" lon="6.12196">
        <ele>449.60000610352</ele>
        <time>2014-05-14T18:14:10.000Z</time>
      </trkpt>
      <trkpt lat="45.92863" lon="6.1219">
        <ele>448.79998779297</ele>
        <time>2014-05-14T18:14:11.000Z</time>
      </trkpt>
      <trkpt lat="45.92899" lon="6.12146">
        <ele>444</ele>
        <time>2014-05-14T18:14:16.000Z</time>
      </trkpt>
      <trkpt lat="45.92904" lon="6.12138">
        <ele>443</ele>
        <time>2014-05-14T18:14:17.000Z</time>
      </trkpt>
      <trkpt lat="45.92925" lon="6.12103">
        <ele>439.39999389648</ele>
        <time>2014-05-14T18:14:22.000Z</time>
      </trkpt>
      <trkpt lat="45.92958" lon="6.12043">
        <ele>438.39999389648</ele>
        <time>2014-05-14T18:14:29.000Z</time>
      </trkpt>
      <trkpt lat="45.93005" lon="6.11963">
        <ele>444.39999389648</ele>
        <time>2014-05-14T18:14:38.000Z</time>
      </trkpt>
      <trkpt lat="45.93042" lon="6.11924">
        <ele>445.60000610352</ele>
        <time>2014-05-14T18:14:44.000Z</time>
      </trkpt>
      <trkpt lat="45.93076" lon="6.11898">
        <ele>449.60000610352</ele>
        <time>2014-05-14T18:14:50.000Z</time>
      </trkpt>
      <trkpt lat="45.93081" lon="6.11896">
        <ele>450</ele>
        <time>2014-05-14T18:14:51.000Z</time>
      </trkpt>
      <trkpt lat="45.93112" lon="6.1188">
        <ele>452.79998779297</ele>
        <time>2014-05-14T18:14:58.000Z</time>
      </trkpt>
      <trkpt lat="45.93135" lon="6.11875">
        <ele>455</ele>
        <time>2014-05-14T18:15:04.000Z</time>
      </trkpt>
      <trkpt lat="45.93166" lon="6.11871">
        <ele>456.79998779297</ele>
        <time>2014-05-14T18:15:12.000Z</time>
      </trkpt>
      <trkpt lat="45.93197" lon="6.11874">
        <ele>458.20001220703</ele>
        <time>2014-05-14T18:15:20.000Z</time>
      </trkpt>
      <trkpt lat="45.93229" lon="6.11881">
        <ele>459.20001220703</ele>
        <time>2014-05-14T18:15:27.000Z</time>
      </trkpt>
      <trkpt lat="45.93264" lon="6.11892">
        <ele>461</ele>
        <time>2014-05-14T18:15:34.000Z</time>
      </trkpt>
      <trkpt lat="45.933" lon="6.11905">
        <ele>462.39999389648</ele>
        <time>2014-05-14T18:15:42.000Z</time>
      </trkpt>
      <trkpt lat="45.93317" lon="6.11912">
        <ele>463</ele>
        <time>2014-05-14T18:15:46.000Z</time>
      </trkpt>
      <trkpt lat="45.9333" lon="6.11915">
        <ele>463.60000610352</ele>
        <time>2014-05-14T18:15:49.000Z</time>
      </trkpt>
      <trkpt lat="45.93359" lon="6.1191">
        <ele>463.79998779297</ele>
        <time>2014-05-14T18:15:56.000Z</time>
      </trkpt>
      <trkpt lat="45.93363" lon="6.11908">
        <ele>463.79998779297</ele>
        <time>2014-05-14T18:15:57.000Z</time>
      </trkpt>
      <trkpt lat="45.93392" lon="6.11881">
        <ele>464</ele>
        <time>2014-05-14T18:16:05.000Z</time>
      </trkpt>
      <trkpt lat="45.93401" lon="6.11867">
        <ele>464.39999389648</ele>
        <time>2014-05-14T18:16:08.000Z</time>
      </trkpt>
      <trkpt lat="45.93403" lon="6.11863">
        <ele>464.39999389648</ele>
        <time>2014-05-14T18:16:09.000Z</time>
      </trkpt>
    </trkseg>
  </trk>
</gpx>